[[{"header":{"parameterUnit":"m.s-1","parameterCategory":1,"la1":30.6,"la2":28.766,"lo1":-90.7593,"lo2":-88.6598,"dy":0.0162,"dx":0.0183,"nx":116,"ny":114,"refTime":"2024-05-22T06:00:00:Z","depth":0,"parameterNumber":2,"parameterNumberName":"U-component_of_WINDS"},"data":[0.0,0.0,0.0,0.0,0.0,0.0,0.0,0.0,0.0,0.0,0.0,0.0,0.0,0.0,0.0,0.0,0.0,0.0,0.0,0.0,0.0,0.0,0.0,0.0,0.0,0.0,0.0,0.0,0.0,0.0,0.0,0.0,0.0,0.0,0.0,0.0,0.0,0.0,0.0,0.0,0.0,0.0,0.0,0.0,0.0,0.0,0.0,0.0,0.0,0.0,0.0,0.0,0.0,0.0,0.0,0.0,0.0,0.0,0.0,0.0,0.0,0.0,0.0,0.0,0.0,0.0,0.0,0.0,0.0,0.0,0.0,0.0,0.0,0.0,0.0,0.0,0.0,0.0,0.0,0.0,0.0,0.0,0.0,0.0,0.0,0.0,0.0,0.0,0.0,0.0,0.0,0.0,0.0,0.0,0.0,0.0,0.0,0.0,0.0,0.0,0.0,0.0,0.0,0.0,0.0,0.0,0.0,0.0,0.0,0.0,0.0,0.0,0.0,0.0,0.0,0.0,0.0,0.0,0.0,0.0,0.0,0.0,0.0,0.0,0.0,0.0,0.0,0.0,0.0,0.0,0.0,0.0,0.0,0.0,0.0,0.0,0.0,0.0,0.0,0.0,0.0,0.0,0.0,0.0,0.0,0.0,0.0,0.0,0.0,0.0,0.0,0.0,0.0,0.0,0.0,0.0,0.0,0.0,0.0,0.0,0.0,0.0,0.0,0.0,0.0,0.0,0.0,0.0,0.0,0.0,0.0,0.0,0.0,0.0,0.0,0.0,0.0,0.0,0.0,0.0,0.0,0.0,0.0,0.0,0.0,0.0,0.0,0.0,0.0,0.0,0.0,0.0,0.0,0.0,0.0,0.0,0.0,0.0,0.0,0.0,0.0,0.0,0.0,0.0,0.0,0.0,0.0,0.0,0.0,0.0,0.0,0.0,0.0,0.0,0.0,0.0,0.0,0.0,0.0,0.0,0.0,0.0,0.0,0.0,0.0,0.0,0.0,0.0,0.0,0.0,0.0,0.0,0.0,0.0,0.0,0.0,0.0,0.0,0.0,0.0,0.0,0.0,0.0,0.0,0.0,0.0,0.0,0.0,0.0,0.0,0.0,0.0,0.0,0.0,0.0,0.0,0.0,0.0,0.0,0.0,0.0,0.0,0.0,0.0,0.0,0.0,0.0,0.0,0.0,0.0,0.0,0.0,0.0,0.0,0.0,0.0,0.0,0.0,0.0,0.0,0.0,0.0,0.0,0.0,0.0,0.0,0.0,0.0,0.0,0.0,0.0,0.0,0.0,0.0,0.0,0.0,0.0,0.0,0.0,0.0,0.0,0.0,0.0,0.0,0.0,0.0,0.0,0.0,0.0,0.0,0.0,0.0,0.0,0.0,0.0,0.0,0.0,0.0,0.0,0.0,0.0,0.0,0.0,0.0,0.0,0.0,0.0,0.0,0.0,0.0,0.0,0.0,0.0,0.0,0.0,0.0,0.0,0.0,0.0,0.0,0.0,0.0,0.0,0.0,0.0,0.0,0.0,0.0,0.0,0.0,0.0,0.0,0.0,0.0,0.0,0.0,0.0,0.0,0.0,0.0,0.0,0.0,0.0,0.0,0.0,0.0,0.0,0.0,0.0,0.0,0.0,0.0,0.0,0.0,0.0,0.0,0.0,0.0,0.0,0.0,0.0,0.0,0.0,0.0,0.0,0.0,0.0,0.0,0.0,0.0,0.0,0.0,0.0,0.0,0.0,0.0,0.0,0.0,0.0,0.0,0.0,0.0,0.0,0.0,0.0,0.0,0.0,0.0,0.0,0.0,0.0,0.0,0.0,0.0,0.0,0.0,0.0,0.0,0.0,0.0,0.0,0.0,0.0,0.0,0.0,0.0,0.0,0.0,0.0,0.0,0.0,0.0,0.0,0.0,0.0,0.0,0.0,0.0,0.0,0.0,0.0,0.0,0.0,0.0,0.0,0.0,0.0,0.0,0.0,0.0,0.0,0.0,0.0,0.0,0.0,0.0,0.0,0.0,0.0,0.0,0.0,0.0,0.0,0.0,0.0,0.0,0.0,0.0,0.0,0.0,0.0,0.0,0.0,0.0,0.0,0.0,0.0,0.0,0.0,0.0,0.0,0.0,0.0,0.0,0.0,0.0,0.0,0.0,0.0,0.0,0.0,0.0,0.0,0.0,0.0,0.0,0.0,0.0,0.0,0.0,0.0,0.0,0.0,0.0,0.0,0.0,0.0,0.0,0.0,0.0,0.0,0.0,0.0,0.0,0.0,0.0,0.0,0.0,0.0,0.0,0.0,0.0,0.0,0.0,0.0,0.0,0.0,0.0,0.0,0.0,0.0,0.0,0.0,0.0,0.0,0.0,0.0,0.0,0.0,0.0,0.0,0.0,0.0,0.0,0.0,0.0,0.0,0.0,0.0,0.0,0.0,0.0,0.0,0.0,0.0,0.0,0.0,0.0,0.0,0.0,0.0,0.0,0.0,0.0,0.0,0.0,0.0,0.0,0.0,0.0,0.0,0.0,0.0,0.0,0.0,0.0,0.0,0.0,0.0,0.0,0.0,0.0,0.0,0.0,0.0,0.0,0.0,0.0,0.0,0.0,0.0,0.0,0.0,0.0,0.0,0.0,0.0,0.0,0.0,0.0,0.0,0.0,0.0,0.0,0.0,0.0,0.0,0.0,0.0,0.0,0.0,0.0,0.0,0.0,0.0,0.0,0.0,0.0,0.0,0.0,0.0,0.0,0.0,0.0,0.0,0.0,0.0,0.0,0.0,0.0,0.0,0.0,0.0,0.0,0.0,0.0,0.0,0.0,0.0,0.0,0.0,0.0,0.0,0.0,0.0,0.0,0.0,0.0,0.0,0.0,0.0,0.0,0.0,0.0,0.0,0.0,0.0,0.0,0.0,0.0,0.0,0.0,0.0,0.0,0.0,0.0,0.0,0.0,0.0,0.0,0.0,0.0,0.0,0.0,0.0,0.0,0.0,0.0,0.0,0.0,0.0,0.0,0.0,0.0,0.0,0.0,0.0,0.0,0.0,0.0,0.0,0.0,0.0,0.0,0.0,0.0,0.0,0.0,0.0,0.0,0.0,0.0,0.0,0.0,0.0,0.0,0.0,0.0,0.0,0.0,0.0,0.0,0.0,0.0,0.0,0.0,0.0,0.0,0.0,0.0,0.0,0.0,0.0,0.0,0.0,0.0,0.0,0.0,0.0,0.0,0.0,0.0,0.0,0.0,0.0,0.0,0.0,0.0,0.0,0.0,0.0,0.0,0.0,0.0,0.0,0.0,0.0,0.0,0.0,0.0,0.0,0.0,0.0,0.0,0.0,0.0,0.0,0.0,0.0,0.0,0.0,0.0,0.0,0.0,0.0,0.0,0.0,0.0,0.0,0.0,0.0,0.0,0.0,0.0,0.0,0.0,0.0,0.0,0.0,0.0,0.0,0.0,0.0,0.0,0.0,0.0,0.0,0.0,0.0,0.0,0.0,0.0,0.0,0.0,0.0,0.0,0.0,0.0,0.0,0.0,0.0,0.0,0.0,0.0,0.0,0.0,0.0,0.0,0.0,0.0,0.0,0.0,0.0,0.0,0.0,0.0,0.0,0.0,0.0,0.0,0.0,0.0,0.0,0.0,0.0,0.0,0.0,0.0,0.0,0.0,0.0,0.0,0.0,0.0,0.0,0.0,0.0,0.0,0.0,0.0,0.0,0.0,0.0,0.0,0.0,0.0,0.0,0.0,0.0,0.0,0.0,0.0,0.0,0.0,0.0,0.0,0.0,0.0,0.0,0.0,0.0,0.0,0.0,0.0,0.0,0.0,0.0,0.0,0.0,0.0,0.0,0.0,0.0,0.0,0.0,0.0,0.0,0.0,0.0,0.0,0.0,0.0,0.0,0.0,0.0,0.0,0.0,0.0,0.0,0.0,0.0,0.0,0.0,0.0,0.0,0.0,0.0,0.0,0.0,0.0,0.0,0.0,0.0,0.0,0.0,0.0,0.0,0.0,0.0,0.0,0.0,0.0,0.0,0.0,0.0,0.0,0.0,0.0,0.0,0.0,0.0,0.0,0.0,0.0,0.0,0.0,0.0,0.0,0.0,0.0,0.0,0.0,0.0,0.0,0.0,0.0,0.0,0.0,0.0,0.0,0.0,0.0,0.0,0.0,0.0,0.0,0.0,0.0,0.0,0.0,0.0,0.0,0.0,0.0,0.0,0.0,0.0,0.0,0.0,0.0,0.0,0.0,0.0,0.0,0.0,0.0,0.0,0.0,0.0,0.0,0.0,0.0,0.0,0.0,0.0,0.0,0.0,0.0,0.0,0.0,0.0,0.0,0.0,0.0,0.0,0.0,0.0,0.0,0.0,0.0,0.0,0.0,0.0,0.0,0.0,0.0,0.0,0.0,0.0,0.0,0.0,0.0,0.0,0.0,0.0,0.0,0.0,0.0,0.0,0.0,0.0,0.0,0.0,0.0,0.0,0.0,0.0,0.0,0.0,0.0,0.0,0.0,0.0,0.0,0.0,0.0,0.0,0.0,0.0,0.0,0.0,0.0,0.0,0.0,0.0,0.0,0.0,0.0,0.0,0.0,0.0,0.0,0.0,0.0,0.0,0.0,0.0,0.0,0.0,0.0,0.0,0.0,0.0,0.0,0.0,0.0,0.0,0.0,0.0,0.0,0.0,0.0,0.0,0.0,0.0,0.0,0.0,0.0,0.0,0.0,0.0,0.0,0.0,0.0,0.0,0.0,0.0,0.0,0.0,0.0,0.0,0.0,0.0,0.0,0.0,0.0,0.0,0.0,0.0,0.0,0.0,0.0,0.0,0.0,0.0,0.0,0.0,0.0,0.0,0.0,0.0,0.0,0.0,0.0,0.0,0.0,0.0,0.0,0.0,0.0,0.0,0.0,0.0,0.0,0.0,0.0,0.0,0.0,0.0,0.0,0.0,0.0,0.0,0.0,0.0,0.0,0.0,0.0,0.0,0.0,0.0,0.0,0.0,0.0,0.0,0.0,0.0,0.0,0.0,0.0,0.0,0.0,0.0,0.0,0.0,0.0,0.0,0.0,0.0,0.0,0.0,0.0,0.0,0.0,0.0,0.0,0.0,0.0,0.0,0.0,0.0,0.0,0.0,0.0,0.0,0.0,0.0,0.0,0.0,0.0,0.0,0.0,0.0,0.0,0.0,0.0,0.0,0.0,0.0,0.0,0.0,0.0,0.0,0.0,0.0,0.0,0.0,0.0,0.0,0.0,0.0,0.0,0.0,0.0,0.0,0.0,0.0,0.0,0.0,0.0,0.0,0.0,0.0,0.0,0.0,0.0,0.0,0.0,0.0,0.0,0.0,0.0,0.0,0.0,0.0,0.0,0.0,0.0,0.0,0.0,0.0,0.0,0.0,0.0,0.0,0.0,0.0,0.0,0.0,0.0,0.0,0.0,0.0,0.0,0.0,0.0,0.0,0.0,0.0,0.0,0.0,0.0,0.0,0.0,0.0,0.0,0.0,0.0,0.0,0.0,0.0,0.0,0.0,0.0,0.0,0.0,0.0,0.0,0.0,0.0,0.0,0.0,0.0,0.0,0.0,0.0,0.0,0.0,0.0,0.0,0.0,0.0,0.0,0.0,0.0,0.0,0.0,0.0,0.0,0.0,0.0,0.0,0.0,0.0,0.0,0.0,0.0,0.0,0.0,0.0,0.0,0.0,0.0,0.0,0.0,0.0,0.0,0.0,0.0,0.0,0.0,0.0,0.0,0.0,0.0,0.0,0.0,0.0,0.0,0.0,0.0,0.0,0.0,0.0,0.0,0.0,0.0,0.0,0.0,0.0,0.0,0.0,0.0,0.0,0.0,0.0,0.0,0.0,0.0,0.0,0.0,0.0,0.0,0.0,0.0,0.0,0.0,0.0,0.0,0.0,0.0,0.0,0.0,0.0,0.0,0.0,0.0,0.0,0.0,0.0,0.0,0.0,0.0,0.0,0.0,0.0,0.0,0.0,0.0,0.0,0.0,0.0,0.0,0.0,0.0,0.0,0.0,0.0,0.0,0.0,0.0,0.0,0.0,0.0,0.0,0.0,0.0,0.0,0.0,0.0,-2.9386,0.0,0.0,0.0,0.0,0.0,0.0,0.0,0.0,0.0,0.0,0.0,0.0,0.0,0.0,0.0,0.0,0.0,0.0,0.0,0.0,0.0,0.0,0.0,0.0,-1.6445,-1.6875,-1.7304,-1.8467,-1.8988,-1.851,0.0,0.0,0.0,0.0,0.0,-1.7754,-1.7331,-1.7709,-1.8965,-1.935,-2.0585,-2.2663,-2.2624,-2.1277,-1.8927,0.0,0.0,0.0,0.0,0.0,0.0,0.0,0.0,0.0,0.0,0.0,0.0,0.0,0.0,0.0,0.0,0.0,0.0,0.0,0.0,0.0,0.0,0.0,0.0,0.0,0.0,0.0,0.0,0.0,0.0,0.0,0.0,0.0,0.0,0.0,0.0,0.0,0.0,0.0,0.0,0.0,0.0,0.0,0.0,0.0,0.0,0.0,0.0,0.0,0.0,0.0,0.0,0.0,0.0,0.0,0.0,0.0,0.0,0.0,0.0,0.0,0.0,0.0,0.0,0.0,0.0,0.0,0.0,0.0,0.0,0.0,-3.1765,0.0,0.0,0.0,0.0,0.0,0.0,0.0,0.0,0.0,0.0,0.0,0.0,0.0,0.0,0.0,0.0,0.0,0.0,0.0,0.0,0.0,-1.5977,-1.6836,-1.7187,-1.7734,-1.8591,-1.9398,-1.9758,-1.9539,-2.0203,0.0,0.0,0.0,-1.8975,-1.8268,-1.8226,-1.9064,-2.0731,-2.2158,-2.4428,-2.7505,-2.8352,-2.6544,-2.2462,-2.1577,0.0,0.0,0.0,0.0,0.0,0.0,0.0,0.0,0.0,0.0,0.0,0.0,0.0,0.0,0.0,0.0,0.0,0.0,0.0,0.0,0.0,0.0,0.0,0.0,0.0,0.0,0.0,0.0,0.0,0.0,0.0,0.0,0.0,0.0,0.0,0.0,0.0,0.0,0.0,0.0,0.0,0.0,0.0,0.0,0.0,0.0,0.0,0.0,0.0,0.0,0.0,0.0,0.0,0.0,0.0,0.0,0.0,0.0,0.0,0.0,0.0,0.0,0.0,-3.9698,-4.0698,-4.1664,-4.1826,-4.224,-4.2561,-3.818,-3.6995,-3.7823,-3.4268,0.0,0.0,0.0,0.0,0.0,0.0,0.0,0.0,0.0,0.0,0.0,0.0,0.0,0.0,0.0,0.0,0.0,0.0,0.0,-1.6875,-1.7734,-1.918,-2.0428,-2.123,-2.2025,-2.2142,-2.133,-2.1388,0.0,-2.0188,-2.0153,-2.0104,-1.9969,-1.9969,-2.0777,-2.247,-2.6241,-2.9083,-3.1044,-3.1852,-3.1891,-3.1044,-2.6615,-2.5428,-2.6433,0.0,0.0,0.0,0.0,0.0,0.0,0.0,0.0,0.0,0.0,0.0,0.0,0.0,0.0,0.0,0.0,0.0,0.0,0.0,0.0,0.0,0.0,0.0,0.0,0.0,0.0,0.0,0.0,0.0,0.0,0.0,0.0,0.0,0.0,0.0,0.0,0.0,0.0,0.0,0.0,0.0,-2.5326,-2.729,0.0,0.0,0.0,0.0,0.0,0.0,0.0,0.0,0.0,0.0,0.0,0.0,0.0,-3.7146,-3.9825,-4.193,-4.3103,-4.3448,-4.5527,-4.5906,-4.4811,-4.5527,-4.5906,-4.5941,-4.5251,0.0,-4.0273,-3.7789,0.0,0.0,0.0,0.0,0.0,0.0,0.0,0.0,0.0,0.0,0.0,0.0,0.0,0.0,0.0,0.0,0.0,0.0,0.0,0.0,0.0,-2.0973,-2.233,-2.3173,-2.4406,-2.4544,-2.3143,-2.304,-2.2416,-2.1093,-2.0553,-2.0542,-2.1024,-2.1486,-2.3479,-2.7082,-3.1314,-3.3776,-3.4538,-3.5353,-3.5776,-3.5661,-3.2923,-3.0544,-2.8357,-2.5197,0.0,0.0,0.0,0.0,0.0,0.0,0.0,0.0,0.0,0.0,0.0,0.0,0.0,0.0,0.0,0.0,0.0,0.0,0.0,0.0,0.0,0.0,0.0,0.0,0.0,0.0,0.0,0.0,0.0,0.0,0.0,0.0,0.0,0.0,0.0,0.0,0.0,0.0,0.0,-2.4884,-2.7597,-2.9104,-2.8996,-2.8467,0.0,0.0,0.0,0.0,0.0,0.0,0.0,0.0,0.0,-3.9618,-4.0411,-4.1836,-4.4078,-4.5079,-4.601,-4.6837,-4.7838,-4.8189,-4.801,-4.8355,-4.8528,-4.8528,-4.8528,-4.732,-4.5147,-4.2447,-3.9997,-3.7754,0.0,0.0,0.0,0.0,-3.5214,-3.4924,0.0,0.0,0.0,0.0,0.0,0.0,0.0,0.0,0.0,0.0,0.0,0.0,-2.1053,-2.2916,-2.4495,-2.5563,-2.6743,-2.6798,-2.5254,-2.4505,-2.3466,-2.1995,-2.11,-2.0935,-2.1567,-2.3454,-2.6718,-3.1385,-3.5154,-3.7161,-3.7392,-3.8238,-3.8623,-3.8623,-3.7969,-3.5468,-3.1551,-2.9006,-2.6313,-2.3577,0.0,0.0,0.0,0.0,0.0,0.0,0.0,0.0,0.0,0.0,0.0,0.0,0.0,0.0,0.0,0.0,0.0,0.0,0.0,0.0,0.0,0.0,0.0,0.0,0.0,0.0,0.0,0.0,0.0,0.0,0.0,0.0,0.0,0.0,0.0,0.0,0.0,-2.7954,-2.9731,-3.0961,-3.1585,-3.144,0.0,0.0,0.0,0.0,0.0,0.0,-3.7939,-4.0043,-4.2043,-4.4,-4.4794,-4.5803,-4.7148,-4.7562,-4.8321,-4.9396,-4.9568,-4.9878,-5.0287,-5.0287,-5.0183,-5.0011,-5.0011,-4.9666,-4.8879,-4.6251,-4.394,-4.1905,-4.056,-3.9215,-3.8284,-4.0181,-4.0181,-3.9756,0.0,0.0,0.0,0.0,0.0,0.0,0.0,0.0,0.0,0.0,0.0,-2.1092,-2.2792,-2.5207,-2.7322,-2.8929,-2.9197,-2.8853,-2.7864,-2.5537,-2.379,-2.2883,-2.2015,-2.1529,-2.1504,-2.6279,-3.0512,-3.4013,-3.6661,-3.8354,-3.9207,-4.0015,-4.0362,-4.0362,-4.0323,-3.9746,-3.8476,-3.3545,-3.0885,-2.9577,-2.5471,0.0,0.0,0.0,0.0,0.0,0.0,0.0,0.0,0.0,0.0,0.0,0.0,0.0,0.0,0.0,0.0,0.0,0.0,0.0,0.0,0.0,0.0,0.0,0.0,0.0,0.0,0.0,0.0,0.0,0.0,0.0,0.0,0.0,0.0,0.0,0.0,0.0,0.0,-3.3673,-3.4488,0.0,0.0,0.0,0.0,-3.5904,-3.8824,-4.1205,-4.2758,-4.4285,-4.55,-4.6424,-4.7148,-4.7879,-4.8672,-5.0119,-5.0907,-5.1011,-5.1671,-5.1671,-5.1045,-5.1045,-5.0666,-5.0011,-5.0011,-4.9976,-4.9804,-4.8217,-4.6603,-4.5087,-4.432,-4.3552,-4.293,-4.3759,-4.4035,-4.4104,0.0,0.0,0.0,0.0,0.0,-1.5391,-1.5391,-1.6133,-1.6914,-1.7461,-1.9763,-2.2214,-2.4464,-2.6996,-2.9162,-3.082,-3.1474,-3.1158,-2.9709,-2.7228,-2.5897,-2.6092,-2.4263,-2.475,-2.8005,-3.1468,-3.4353,-3.6661,-3.863,-3.9785,-4.0092,-4.0362,-4.0516,-4.0516,-4.0516,-4.0323,-3.9861,-3.6392,-3.35,-3.1006,-2.8396,-2.5284,0.0,0.0,0.0,0.0,0.0,0.0,0.0,0.0,0.0,0.0,0.0,0.0,0.0,0.0,0.0,0.0,0.0,0.0,0.0,0.0,0.0,0.0,0.0,0.0,0.0,0.0,0.0,0.0,0.0,0.0,0.0,0.0,0.0,0.0,0.0,0.0,0.0,-3.7541,-3.8426,0.0,-3.7754,-3.8582,-3.9802,-4.1343,-4.2906,-4.4492,-4.601,-4.7017,-4.8155,-4.9459,-4.9769,-5.0223,-5.0981,-5.1533,-5.1808,-5.1808,-5.205,-5.205,-5.1808,-5.1808,-5.1636,-5.1425,-5.1425,-5.1425,-5.1356,-5.0321,-4.8982,-4.7569,-4.732,-4.6734,-4.6148,-4.6389,-4.6493,-4.6527,0.0,0.0,0.0,0.0,-1.5391,-1.5391,-1.5391,-1.6406,-1.7461,-1.832,-2.0891,-2.3645,-2.6162,-2.8729,-3.093,-3.2615,-3.2981,-3.2634,-3.1453,-2.869,-2.72,-2.7431,-2.614,-2.7626,-3.2429,-3.4731,-3.6731,-3.843,-3.9823,-4.0516,-4.0516,-4.0516,-4.0516,-4.0516,-4.0516,-4.0516,-4.04,-3.87,-3.6199,-3.3237,-3.1506,-2.9165,-2.6395,0.0,0.0,0.0,0.0,0.0,0.0,0.0,0.0,0.0,0.0,0.0,0.0,0.0,0.0,0.0,0.0,0.0,0.0,0.0,0.0,0.0,0.0,0.0,0.0,0.0,0.0,0.0,0.0,0.0,0.0,0.0,0.0,0.0,0.0,0.0,-3.8384,-4.0197,-4.1515,-4.2122,-4.1712,-4.2827,-4.3975,-4.4975,-4.601,-4.6983,-4.8017,-4.9016,-5.0016,-5.108,-5.1356,-5.1735,-5.2188,-5.2494,-5.2597,-5.2632,-5.2873,-5.2873,-5.2597,-5.2597,-5.2597,-5.2597,-5.2291,-5.2326,-5.2563,-5.1774,-5.0843,-4.9878,-4.9396,-4.8907,-4.8493,-4.8493,-4.8493,-4.8493,0.0,0.0,0.0,-1.5391,-1.5391,-1.5391,-1.5391,-1.6875,-1.832,-1.918,-2.2295,-2.535,-2.788,-3.0458,-3.2636,-3.4254,-3.3637,-3.3141,-3.3047,-2.9767,-2.7499,-2.6747,-2.7642,-3.0127,-3.4282,-3.5968,-3.7623,-3.9361,-4.0131,-4.0516,-4.0554,-4.0554,-4.0554,-4.0593,-4.0593,-4.0593,-4.0593,-4.0554,-3.9123,-3.6692,-3.5007,-3.3314,-3.1429,0.0,0.0,0.0,0.0,0.0,0.0,0.0,0.0,0.0,0.0,0.0,0.0,0.0,0.0,0.0,0.0,0.0,0.0,0.0,0.0,0.0,0.0,0.0,0.0,0.0,0.0,0.0,0.0,0.0,0.0,0.0,0.0,0.0,-3.7103,-3.906,-4.0826,-4.1565,-4.3687,-4.4642,-4.3498,-4.5354,-4.67,-4.67,-4.8051,-4.8879,-4.8879,-5.0326,-5.1183,-5.1218,-5.1908,-5.2257,-5.2291,-5.308,-5.3425,-5.3425,-5.4149,-5.4149,-5.3425,-5.3425,-5.3425,-5.3391,-5.2632,-5.2735,-5.3391,-5.2597,-5.2222,-5.2084,-5.0631,-5.0045,-5.0045,-5.0011,-5.0011,-5.0011,0.0,0.0,-1.5391,-1.5391,-1.5391,-1.5391,-1.5391,-1.6875,-1.832,-1.918,-2.2242,-2.5513,-2.869,-3.0775,-3.259,-3.4249,-3.3098,-3.2244,-3.2166,-2.8367,-2.7065,-2.9248,-3.2506,-3.543,-3.7861,-3.8354,-3.913,-4.0169,-4.04,-4.0816,-4.1431,-4.1431,-4.1777,-4.2393,-4.2393,-4.2393,-4.2354,-4.17,-4.1046,-4.0192,-3.7892,-3.5584,-3.3276,0.0,0.0,0.0,0.0,0.0,0.0,0.0,0.0,0.0,0.0,0.0,0.0,0.0,0.0,0.0,0.0,0.0,0.0,0.0,0.0,0.0,0.0,0.0,0.0,0.0,0.0,0.0,0.0,0.0,0.0,0.0,0.0,-3.8817,-3.9868,-4.2464,-4.4528,-4.5262,-4.63,-4.7034,-4.7217,-4.7838,-4.843,-4.901,-4.9942,-5.0493,-5.0493,-5.1942,-5.3011,-5.3563,-5.377,-5.4149,-5.4667,-5.4356,-5.4218,-5.4218,-5.4425,-5.4391,-5.4218,-5.4218,-5.4218,-5.4184,-5.3977,-5.4011,-5.4149,-5.3391,-5.308,-5.2942,-5.139,-5.0804,-5.0735,-5.0218,-5.0011,-5.008,0.0,-1.5391,-1.5391,-1.5391,-1.5391,-1.5391,-1.5391,-1.6875,-1.8437,-1.9687,-2.2754,-2.5991,-2.9085,-3.0614,-3.1932,-3.3204,-3.2155,-3.1188,-3.0732,-2.8685,-2.8995,-3.2385,-3.5192,-3.7507,-3.9246,-3.9631,-4.0208,-4.1046,-4.1046,-4.1508,-4.2354,-4.2354,-4.2624,-4.3085,-4.3085,-4.3085,-4.3085,-4.2547,-4.2354,-4.22,-4.0315,-3.8507,-3.6591,-3.4199,-3.2891,-3.2006,-2.9967,-2.9352,-2.9352,-2.8506,0.0,0.0,0.0,0.0,0.0,0.0,0.0,0.0,0.0,0.0,0.0,0.0,0.0,0.0,0.0,0.0,0.0,0.0,0.0,0.0,0.0,0.0,0.0,0.0,-3.9866,-4.2402,-4.3953,-4.5513,-4.6825,-4.7866,-4.8286,-4.8709,-4.9252,-4.9292,-4.9602,-5.0424,-5.0873,-5.1252,-5.1563,-5.2735,-5.3736,-5.4494,-5.4494,-5.4874,-5.5566,-5.4874,-5.4494,-5.4494,-5.4494,-5.4494,-5.4494,-5.4494,-5.4667,0.0,-5.4632,-5.4701,-5.4908,-5.4184,-5.3873,0.0,0.0,0.0,0.0,0.0,-5.0011,-5.008,0.0,-1.5391,-1.5391,-1.5391,-1.5391,-1.5391,-1.5391,-1.6875,-1.8633,-2.0352,-2.3429,-2.6446,-2.898,-3.0076,-3.0912,-3.1602,-3.0993,-3.0182,-2.9265,-3.0232,-3.2237,-3.5346,-3.6462,-3.7777,-3.94,-4.0246,-4.1046,-4.1808,-4.1885,-4.2393,-4.3239,-4.3239,-4.3278,-4.3393,-4.3393,-4.3393,-4.3393,-4.3278,-4.3239,-4.3162,-4.22,-4.1277,-4.0169,-3.7084,-3.6308,-3.6538,-3.4199,-3.2929,-3.2275,-3.15,0.0,0.0,0.0,0.0,0.0,0.0,0.0,0.0,0.0,0.0,0.0,0.0,0.0,0.0,0.0,0.0,0.0,0.0,0.0,0.0,0.0,0.0,0.0,0.0,-4.3734,-4.6837,-4.8362,-4.8202,-4.8353,-4.9572,-4.9741,-4.9796,-4.9999,-5.0011,-5.0321,-5.1045,-5.1183,-5.1563,-5.2291,0.0,0.0,0.0,0.0,-5.4943,-5.5566,-5.4874,-5.4494,-5.4494,-5.4494,-5.4494,-5.4494,-5.4494,-5.4874,-5.546,-5.4805,-5.4874,-5.5426,-5.477,-5.4494,-5.4356,-5.2908,-5.1908,-5.1149,-5.0493,-5.0218,-5.0114,0.0,-1.5391,-1.5391,-1.5391,-1.5391,-1.5391,-1.5391,-1.6875,-1.8633,-2.0352,-2.2959,-2.5588,-2.8089,-2.9179,-3.0028,-3.0761,-3.0125,-2.9521,-2.9226,-3.1867,-3.4064,-3.5423,-3.7623,-3.9246,-4.0246,-4.1123,-4.1623,-4.1808,-4.2508,-4.3278,-4.4085,-4.4085,-4.4432,-4.5133,-4.5133,-4.5133,-4.5056,-4.4355,-4.4085,-4.3932,-4.2431,-4.1277,-4.0362,-3.9053,-3.8238,-3.7584,-3.6392,-3.6315,-3.6776,-3.6584,-3.493,-3.3051,-3.3423,-3.0565,0.0,0.0,0.0,0.0,0.0,0.0,0.0,0.0,0.0,0.0,0.0,0.0,0.0,0.0,0.0,0.0,0.0,0.0,0.0,-4.1667,-4.4864,-4.785,-5.0014,-5.0408,-5.0443,-5.0254,-5.0435,-5.0417,-5.0034,-5.0011,-5.0321,-5.1045,-5.1636,-5.2356,-5.3149,-5.446,-5.5253,-5.5391,-5.5391,-5.546,-5.5598,-5.4874,-5.4494,-5.4494,0.0,0.0,-5.4494,-5.4494,-5.4598,-5.4701,-5.4563,-5.4598,-5.4701,-5.4563,-5.4494,-5.4425,-5.3529,-5.2701,-5.1946,-5.1808,-5.1425,-5.0907,-1.5387,-1.539,-1.5391,-1.5391,-1.5391,-1.5391,-1.5391,-1.6875,-1.8633,-2.0352,-2.281,-2.5182,-2.7262,-2.7952,-2.8376,-2.8721,-2.836,-2.8773,-3.0394,-3.2804,-3.4963,-3.6682,-3.8792,-4.0092,-4.0477,-4.1354,-4.2,-4.247,-4.3278,-4.4124,-4.494,-4.494,-4.5171,-4.5594,-4.5594,-4.5594,-4.5556,-4.5133,-4.494,-4.4855,-4.3547,-4.2547,-4.1662,-4.04,-3.9631,-3.92,-3.8777,-3.8623,-3.8661,-3.8661,-3.7238,-3.5391,-3.4968,-3.2775,-2.9781,0.0,0.0,0.0,0.0,0.0,0.0,0.0,0.0,0.0,0.0,0.0,0.0,0.0,0.0,-3.5974,0.0,0.0,-4.331,-4.5332,-4.7591,-4.9653,-5.1233,-5.1883,-5.1919,-5.1104,-5.1134,-5.0884,-5.0097,-5.0581,-5.1159,-5.1597,-5.2356,-5.3149,-5.3908,-5.4667,-5.5219,-5.5598,-5.5253,-5.5253,-5.5598,-5.4874,-5.4494,-5.4494,-5.4494,-5.4494,-5.4494,-5.4494,-5.4494,-5.4494,-5.4494,-5.4494,-5.4494,-5.4494,-5.4494,-5.446,-5.4115,-5.3494,-5.277,-5.2356,-5.1946,-5.1597,-1.5415,-1.5388,-1.5391,-1.5391,-1.5391,-1.5391,-1.5391,-1.6875,-1.8555,-2.0156,-2.2422,-2.4491,-2.5997,-2.6207,-2.6361,-2.6613,-2.691,-2.8384,-3.1602,-3.3477,-3.5528,-3.7903,-3.9615,-4.0523,-4.0516,-4.1508,-4.2393,-4.3085,-4.4085,-4.4893,-4.5594,-4.5594,-4.5594,-4.5594,-4.5594,-4.5594,-4.5594,-4.5594,-4.5594,-4.5518,-4.4662,-4.3816,-4.2931,-4.1354,-4.0669,-4.0477,-4.0323,-3.9746,-3.9053,-3.9053,-3.7892,-3.6269,-3.5045,-3.3908,-3.2269,-2.8501,-2.8001,0.0,0.0,0.0,0.0,0.0,0.0,0.0,0.0,0.0,-3.3596,-3.5665,-3.8191,-4.0531,-4.2017,-4.4777,-4.7231,-4.8564,-5.0138,-5.1386,-5.2032,-5.2757,-5.285,-5.1897,-5.1676,-5.1228,-5.0263,-5.1122,-5.1882,-5.2179,-5.2942,-5.3736,-5.446,-5.4494,-5.477,-5.5391,-5.4805,-5.4805,-5.5391,-5.4805,-5.4494,-5.4494,-5.4494,-5.4494,-5.4494,-5.4494,-5.4494,-5.4494,-5.4494,-5.4494,-5.4494,-5.4494,-5.4494,-5.4494,-5.4494,-5.4149,-5.3529,-5.2735,-5.2429,-5.2356,0.0,-1.5383,-1.5391,-1.5391,-1.5391,-1.5391,-1.5391,-1.6875,-1.8359,-1.9336,-2.1055,-2.2538,-2.3422,-2.3513,-2.4134,-2.5634,-2.7104,-2.903,-3.1646,-3.4096,-3.6228,-3.7942,-3.9675,-4.0546,-4.0516,-4.2124,-4.3008,-4.3085,-4.4662,-4.5518,-4.5594,-4.5594,-4.5594,-4.5594,-4.5594,-4.5594,-4.5594,-4.5594,-4.5594,-4.5518,-4.4662,-4.3816,-4.3008,-4.2008,-4.1162,-4.04,-3.9708,-3.8892,-3.8161,-3.8161,-3.7046,-3.5731,-3.6231,-3.5308,-3.3716,-3.217,0.0,-2.9725,-2.977,-3.0511,-3.1589,-3.2915,-3.2915,-3.4104,0.0,0.0,-3.8302,-4.2129,-4.3206,-4.3763,-4.4692,-4.6904,-4.8652,-4.8767,-5.0694,-5.2168,-5.2242,-5.2798,-5.298,-5.245,-5.191,-5.1347,-5.0749,-5.1008,-5.1484,-5.2149,-5.2942,-5.3736,-5.446,-5.4494,-5.4563,-5.4632,-5.4563,-5.4563,-5.4632,-5.4563,-5.4494,-5.4494,-5.4494,-5.4494,-5.4494,-5.4494,-5.4494,-5.4494,-5.4494,-5.4494,-5.4494,-5.4494,-5.4494,-5.4494,-5.4494,-5.446,-5.4287,-5.3529,-5.3287,-5.3149,0.0,-1.5382,-1.5391,-1.5391,-1.5391,-1.5586,-1.6094,-1.7227,-1.8477,-1.9883,-2.1133,-2.2226,-2.3083,-2.3164,-2.363,-2.4811,-2.6422,-2.8432,-3.0927,-3.3947,-3.633,-3.8048,-3.9704,-4.06,-4.0546,-4.2217,-4.3085,-4.3085,-4.4786,-4.5594,-4.5594,-4.5594,-4.5594,-4.5594,-4.5594,-4.5594,-4.5594,-4.5594,-4.5594,-4.5518,-4.4662,-4.3816,-4.2931,-4.1585,-4.02,-3.9008,-3.8661,-3.7969,0.0,-3.6692,-3.6385,-3.6192,-3.6038,-3.5119,-3.3775,-3.2264,-3.2205,0.0,-3.5019,-3.512,0.0,0.0,-3.6816,-3.8018,-4.0791,-4.1051,-4.1497,-4.4209,-4.5509,-4.6252,-4.6624,-4.8652,-5.0249,0.0,-5.1823,-5.3021,-5.3117,-5.3195,-5.301,-5.237,-5.215,-5.1904,-5.1454,-5.2192,-5.2711,-5.29,-5.3632,-5.4184,-5.4494,-5.4494,-5.4494,-5.4494,-5.4494,-5.4494,-5.4494,-5.4494,-5.4494,-5.4494,-5.4494,-5.4494,-5.4494,-5.4494,-5.4494,-5.4494,-5.4494,-5.4494,-5.4494,-5.4494,-5.4494,-5.4494,-5.4494,-5.4494,-5.446,-5.4149,-5.4046,-5.3942,0.0,-1.5382,-1.5391,-1.5391,-1.5586,-1.5977,-1.6602,-1.7422,-1.8555,-2.0039,-2.1016,-2.1797,-2.2422,-2.2461,-2.2889,-2.397,-2.534,-2.7354,-3.0093,-3.3171,-3.5774,-3.7745,-3.9392,-4.0359,-4.0607,-4.2002,-4.2747,-4.2739,-4.4432,-4.5248,-4.5248,-4.5479,-4.5594,-4.5594,-4.5594,-4.5594,-4.5594,-4.5325,-4.5248,-4.5171,-4.4316,-4.3316,-4.22,-4.0746,-3.8823,-3.693,-3.693,-3.6238,-3.5192,-3.4385,-3.4462,-3.4885,-3.4577,-3.4107,-3.353,-3.2675,-3.3789,-3.5627,-3.7303,0.0,0.0,-3.8079,-3.9825,-4.1386,-4.1386,-4.2649,-4.4172,-4.5361,-4.655,-4.7441,-4.7664,-4.9266,-5.0768,-5.1324,-5.2417,-5.3339,-5.3696,-5.3296,-5.286,-5.2552,-5.2374,-5.2412,-5.2697,-5.3202,-5.352,-5.3514,-5.4074,-5.4503,-5.4741,-5.4589,-5.4494,-5.4494,-5.4494,-5.4598,-5.4805,-5.4805,-5.4805,-5.4805,-5.4805,-5.4701,-5.4494,-5.4494,-5.4494,-5.4494,-5.4494,-5.4494,-5.4494,-5.4494,-5.4494,-5.4494,-5.4494,-5.4494,-5.4494,-5.4494,-5.4494,-5.4425,0.0,0.0,-1.5391,-1.5391,-1.6094,-1.668,-1.6719,-1.7422,-1.832,-1.9219,-2.0117,-2.0664,-2.0664,-2.0664,-2.1327,-2.2992,-2.3894,-2.5831,-2.9204,-3.1762,-3.429,-3.6824,-3.8556,-3.9791,-4.0569,-4.1493,-4.1894,-4.1846,-4.3508,-4.4355,-4.4355,-4.521,-4.5594,-4.5594,-4.5594,-4.5594,-4.5556,-4.4701,-4.4355,-4.4278,-4.347,-4.2124,-4.0477,-3.9669,-3.7245,-3.4321,-3.4321,-3.3237,-3.1737,-3.0846,-3.0577,-3.0731,-3.1545,-3.2308,0.0,-3.4665,-3.5951,-3.655,0.0,0.0,-3.9045,-3.9045,-4.1497,-4.3875,-4.3875,-4.5175,-4.6401,-4.6438,-4.6513,-4.6773,-4.7553,-4.8407,-4.9522,-5.1156,-5.1992,-5.277,-5.3663,-5.2838,-5.2515,-5.3526,-5.2676,-5.2761,0.0,-5.3537,-5.3048,-5.3832,-5.4077,-5.4571,-5.5337,-5.4803,-5.4494,-5.4494,-5.4494,-5.4839,-5.5563,-5.5598,-5.5598,-5.5598,-5.5598,-5.5219,-5.4494,-5.4494,-5.4494,-5.4494,-5.4494,-5.4494,-5.4494,-5.4494,-5.4494,-5.4494,-5.4494,-5.4494,-5.4494,-5.4494,-5.4494,-5.4494,0.0,0.0,0.0,-1.7031,-1.7383,-1.7773,-1.8359,-1.8672,-1.918,-2.0039,-2.043,0.0,0.0,0.0,0.0,0.0,-2.3887,-2.5568,-2.8335,-3.0905,-3.3161,-3.5151,-3.6868,-3.8389,-3.9753,-4.0612,-4.1323,-4.1855,-4.2988,-4.3511,-4.3511,-4.3794,-4.3932,-4.3932,-4.3932,-4.3932,-4.3932,-4.3624,-4.3816,-4.4124,-4.2162,-4.1354,-4.1085,-3.8546,-3.5815,-3.3199,0.0,-3.0929,-2.9852,-2.9006,-2.9083,-2.9583,-2.989,0.0,0.0,-3.3371,-3.4803,-3.6104,0.0,0.0,-4.1832,-4.2946,-4.4432,-4.5807,-4.6327,-4.6475,-4.6661,-4.7181,-4.6884,-4.6587,-4.6847,-4.7999,-4.9262,-5.0376,-5.2122,-5.344,-5.3757,-5.4363,-5.4283,-5.3047,-5.3383,0.0,0.0,0.0,0.0,-5.5375,-5.4698,-5.4739,-5.5936,-5.5396,-5.5074,-5.5074,-5.5074,-5.5243,-5.5598,-5.5598,-5.5874,-5.6391,-5.5874,-5.5219,-5.4494,-5.4494,-5.4494,-5.4494,-5.4494,-5.4494,-5.4494,-5.4494,-5.4494,-5.4494,-5.4494,-5.4494,-5.4494,-5.4494,-5.4494,-5.4494,0.0,0.0,0.0,0.0,0.0,0.0,0.0,0.0,0.0,0.0,0.0,0.0,0.0,0.0,0.0,0.0,0.0,0.0,-2.7525,-2.9479,-3.127,-3.2967,-3.435,-3.5747,-3.7121,-3.7675,-3.8466,-3.9609,-4.0422,-4.1139,-4.1763,-4.2032,-4.2162,-4.2162,-4.2162,-4.217,-4.2186,-4.1862,-4.2055,-4.234,-4.0069,-3.9138,-3.8784,-3.5982,-3.3327,0.0,-2.9544,-2.8467,-2.7659,-2.7159,-2.7736,-2.8703,-2.9011,-3.031,-3.2039,-3.393,-3.5465,-3.7397,-4.1186,-4.2522,-4.328,-4.5249,-4.6327,-4.6995,-4.7218,-4.7107,-4.681,-4.6438,-4.5955,-4.5509,-4.5212,-4.603,-4.7367,-4.9336,-5.1008,-5.2457,-5.3645,-5.4385,-5.4326,-5.3105,-5.3447,0.0,0.0,0.0,0.0,-5.5902,-5.5544,-5.5632,-5.6536,-5.6304,-5.5998,-5.5716,-5.5484,-5.5719,-5.633,-5.6141,-5.6288,-5.6805,-5.5977,-5.5219,-5.4494,-5.4494,-5.4494,-5.4494,-5.4494,-5.4494,-5.4494,-5.4494,-5.4494,-5.4494,-5.4494,-5.4494,-5.4494,-5.4494,-5.4494,-5.4494,0.0,0.0,0.0,0.0,0.0,0.0,0.0,0.0,0.0,0.0,0.0,0.0,0.0,0.0,0.0,0.0,0.0,0.0,-2.6697,-2.7603,-2.878,-3.04,-3.1258,-3.2091,-3.3032,-3.3026,-3.3787,-3.5379,-3.6222,-3.7434,-3.8989,-3.9761,-4.0131,-4.0169,-4.0169,-4.0231,-4.0299,-3.9453,-3.9114,-3.895,-3.7287,-3.5592,-3.3968,-3.2285,-3.0089,-2.7806,-2.6977,-2.6077,-2.5308,-2.5385,0.0,0.0,0.0,0.0,0.0,-3.6217,-3.7936,-4.0329,-4.2304,-4.2924,-4.3615,-4.5955,-4.7144,-4.7516,-4.6735,-4.7033,-4.6847,-4.4432,-4.3875,-4.354,0.0,0.0,-4.4098,-4.8073,-4.889,-5.0153,-5.3423,-5.3124,-5.2919,0.0,0.0,0.0,0.0,0.0,0.0,-5.5581,0.0,-5.7007,-5.7141,-5.737,-5.7144,-5.6393,-5.5773,-5.6199,-5.7689,-5.7166,-5.6874,-5.6805,-5.6046,-5.5253,-5.4494,-5.4494,-5.4494,-5.4494,-5.4494,-5.4494,-5.4494,-5.4494,-5.4494,-5.4494,-5.4494,-5.4494,-5.4494,-5.4494,-5.4494,-5.4494,0.0,0.0,0.0,0.0,0.0,0.0,0.0,0.0,0.0,0.0,0.0,0.0,0.0,0.0,0.0,0.0,0.0,0.0,-2.5921,-2.6776,-2.766,-2.8702,-2.9519,-3.0659,-3.218,-3.216,-3.2696,-3.379,-3.397,-3.4272,-3.4697,-3.4847,-3.5258,-3.5881,-3.5881,-3.6235,-3.6781,-3.6543,-3.6459,-3.6312,-3.466,-3.3691,-3.3106,-3.146,-2.9599,-2.7888,-2.7652,-2.6592,0.0,0.0,0.0,0.0,0.0,0.0,-3.6082,0.0,0.0,-4.1779,-4.2762,-4.4683,-4.6587,-4.7256,-4.7553,-4.7664,-4.7441,-4.6104,-4.4581,-4.3355,-4.2129,-4.0866,0.0,0.0,0.0,-4.5844,-4.8779,0.0,-5.4314,-5.5038,0.0,0.0,0.0,-5.536,-5.599,-5.6145,0.0,0.0,-5.5962,-5.6151,-5.7677,-5.7409,-5.7129,-5.6912,-5.6757,-5.6997,-5.7719,-5.8172,-5.7909,-5.6805,-5.6598,-5.5805,-5.4494,-5.4494,-5.4494,-5.4494,-5.4494,-5.4494,-5.4494,-5.4494,-5.4494,-5.4494,-5.4494,-5.4494,-5.4494,-5.4494,-5.4494,-5.4494,0.0,0.0,0.0,0.0,0.0,0.0,0.0,0.0,0.0,0.0,0.0,0.0,0.0,0.0,0.0,0.0,0.0,0.0,0.0,-2.6108,-2.658,-2.6998,-2.7401,-2.8102,-2.9075,-2.9416,-2.9997,-3.0935,-3.1246,-3.1597,-3.1939,-3.1907,-3.216,-3.2629,-3.2629,-3.2866,-3.3302,-3.3329,-3.3329,0.0,0.0,-3.1102,-3.0672,-2.9327,-2.8005,-2.6791,-2.6819,0.0,0.0,0.0,0.0,-3.3641,-3.5147,-3.6842,-3.8593,-4.0375,0.0,-4.3617,-4.4937,-4.6477,-4.7701,-4.7701,-4.7701,-4.7218,-4.5435,-4.3949,-4.2314,-4.0048,-3.8859,0.0,0.0,0.0,0.0,0.0,0.0,0.0,-5.4054,-5.4909,-5.5466,0.0,-5.5909,0.0,-5.6549,-5.673,-5.7059,0.0,-5.7189,-5.7235,-5.8029,-5.8055,-5.7862,-5.7498,-5.7241,-5.7299,-5.7719,-5.85,-5.8208,-5.6805,-5.6805,-5.5977,-5.4494,-5.4494,-5.4494,-5.4494,0.0,-5.4494,-5.4494,-5.4494,-5.4494,-5.4494,-5.4494,-5.4494,-5.4494,-5.4494,-5.4494,-5.4494,0.0,0.0,0.0,0.0,0.0,0.0,0.0,0.0,0.0,0.0,0.0,0.0,0.0,0.0,0.0,0.0,0.0,0.0,0.0,0.0,-2.5679,-2.5611,-2.5556,-2.5499,-2.5522,-2.6196,-2.6927,-2.7679,-2.8375,-2.9091,-2.9825,-2.9834,-2.9901,-3.0016,-3.0016,-3.007,-3.0173,-3.0186,-3.0109,-2.9941,-2.9168,-2.8396,-2.7584,0.0,-2.6069,0.0,0.0,0.0,0.0,0.0,-3.5045,-3.6615,-3.8131,-4.0254,-4.2381,-4.3807,-4.4638,-4.5584,-4.7631,-4.8044,-4.788,-4.7768,-4.7582,-4.6429,-4.2627,-4.1349,-3.9863,-3.6086,0.0,-3.4711,-3.3745,0.0,-3.8674,-4.1943,0.0,-4.9039,-5.3348,-5.3868,-5.45,-5.6395,-5.5874,-5.5909,-5.7365,-5.7076,-5.7241,-5.8348,-5.8954,-5.896,-5.8252,-5.8727,-5.8731,-5.8033,-5.7534,-5.7415,-5.7786,-5.844,-5.8129,-5.6859,-5.6859,-5.6099,-5.462,-5.462,-5.4589,-5.4494,-5.4494,0.0,-5.4494,-5.4494,-5.4494,-5.4494,-5.4494,-5.4494,-5.4494,-5.4494,-5.4494,-5.4494,0.0,0.0,0.0,0.0,0.0,0.0,0.0,0.0,0.0,0.0,-2.3125,-2.3008,0.0,0.0,0.0,0.0,0.0,0.0,0.0,0.0,0.0,-2.5681,-2.5576,-2.554,-2.5576,0.0,0.0,0.0,0.0,-2.6218,-2.6373,-2.6365,-2.6713,-2.7366,-2.7366,-2.7761,-2.8427,-2.8423,-2.8032,-2.7336,-2.7181,-2.664,-2.5909,-2.5754,0.0,0.0,0.0,0.0,0.0,0.0,-3.6507,-4.0861,-4.1656,-4.2802,-4.4093,-4.5342,-4.6266,-4.7098,-4.8196,-4.879,-4.8946,-4.8197,-4.7012,-4.5454,-4.3133,-3.9974,0.0,0.0,0.0,-3.1998,-3.0511,-3.3336,0.0,-4.0285,0.0,0.0,0.0,0.0,-5.4909,0.0,0.0,0.0,0.0,0.0,0.0,0.0,0.0,-5.8526,-5.8238,-5.8303,-5.8258,-5.7997,-5.8055,-5.8146,-5.8187,-5.8417,-5.813,-5.7298,-5.7298,-5.657,-5.5254,-5.5254,-5.4987,-5.4494,-5.4494,0.0,-5.4494,-5.4494,-5.4494,-5.4494,-5.4494,-5.4494,-5.4494,-5.4494,-5.4494,-5.4494,0.0,0.0,0.0,0.0,0.0,0.0,0.0,-2.3281,-2.4336,-2.5586,-2.5781,-2.5625,-2.5117,-2.4687,-2.4766,0.0,0.0,0.0,0.0,0.0,0.0,0.0,0.0,-2.5591,0.0,0.0,0.0,0.0,0.0,0.0,0.0,0.0,0.0,0.0,0.0,0.0,0.0,0.0,-2.6459,0.0,0.0,0.0,0.0,0.0,0.0,0.0,0.0,0.0,0.0,0.0,-3.6514,-4.1945,-4.2666,-4.3853,-4.5243,-4.6699,-4.7339,-4.7756,-4.8895,-4.9404,-4.9248,-4.783,-4.6576,-4.467,-4.0747,0.0,0.0,0.0,0.0,-2.9136,-2.8802,0.0,0.0,0.0,0.0,0.0,0.0,0.0,0.0,0.0,0.0,0.0,0.0,0.0,0.0,0.0,0.0,-5.8529,-5.8378,-5.8246,-5.8133,-5.7997,-5.8068,-5.8201,-5.8296,-5.8367,-5.806,-5.7397,-5.7397,-5.6858,-5.5858,-5.5858,-5.5513,-5.4987,-5.4987,0.0,-5.5046,-5.4667,-5.4736,-5.5046,-5.4667,-5.4494,-5.4494,-5.4494,-5.4494,-5.4494,0.0,0.0,0.0,0.0,0.0,0.0,0.0,-2.4687,-2.6133,-2.7383,-2.8008,-2.7773,-2.6406,-2.5469,-2.5156,0.0,0.0,0.0,0.0,0.0,0.0,0.0,0.0,0.0,0.0,0.0,0.0,0.0,0.0,0.0,0.0,0.0,0.0,0.0,0.0,0.0,0.0,0.0,0.0,0.0,0.0,0.0,0.0,0.0,0.0,0.0,0.0,0.0,0.0,0.0,-3.5065,-3.9885,-4.1277,-4.3508,-4.5902,-4.7394,-4.7778,-4.7983,-4.934,-4.9784,-4.9426,-4.7531,-4.6307,-4.4171,-3.8667,-3.5552,0.0,0.0,-2.7373,-2.6916,-2.7697,0.0,0.0,0.0,0.0,0.0,0.0,0.0,0.0,0.0,0.0,0.0,0.0,0.0,0.0,0.0,0.0,0.0,-5.8529,-5.8312,-5.8133,-5.8042,-5.802,-5.8079,-5.8221,-5.8221,-5.8017,-5.7532,-5.7532,-5.7155,-5.6492,-5.6492,-5.6166,-5.5572,-5.5572,0.0,0.0,-5.5147,-5.5161,-5.5529,-5.4928,-5.462,-5.4494,-5.4494,-5.4494,-5.4494,0.0,0.0,0.0,0.0,0.0,0.0,0.0,-2.5078,-2.6562,-2.9023,-2.875,-2.8242,-2.8086,-2.7266,-2.6484,0.0,0.0,0.0,0.0,0.0,0.0,0.0,0.0,0.0,0.0,0.0,0.0,0.0,0.0,0.0,0.0,0.0,0.0,0.0,0.0,0.0,0.0,0.0,0.0,0.0,0.0,0.0,0.0,0.0,0.0,0.0,0.0,0.0,0.0,0.0,0.0,-3.316,-3.6308,-4.1123,-4.5787,-4.674,0.0,0.0,-4.9133,-4.9805,-4.9739,-4.8048,-4.6418,-4.4058,-3.9515,0.0,0.0,-2.8931,-2.7122,-2.6192,-2.686,-2.843,0.0,0.0,0.0,0.0,0.0,0.0,0.0,0.0,0.0,0.0,0.0,0.0,0.0,0.0,0.0,0.0,-5.8529,-5.8312,-5.8179,-5.8156,-5.8065,-5.801,-5.8037,-5.8037,-5.8014,-5.793,-5.793,-5.7619,-5.704,-5.704,-5.6757,-5.6221,-5.6221,0.0,0.0,-5.6205,-5.5912,-5.5561,-5.5388,-5.4987,-5.4494,-5.4494,-5.4494,-5.4494,0.0,0.0,0.0,0.0,0.0,0.0,-2.4219,-2.5586,-2.7226,-2.9336,-2.9297,-2.9062,-2.9062,-2.8281,-2.7226,-2.582,0.0,0.0,0.0,0.0,0.0,0.0,0.0,0.0,0.0,0.0,0.0,0.0,0.0,0.0,0.0,0.0,0.0,0.0,0.0,0.0,0.0,0.0,0.0,0.0,0.0,0.0,0.0,0.0,0.0,0.0,0.0,0.0,0.0,0.0,0.0,0.0,-3.266,-3.6276,0.0,0.0,-4.51,-4.6177,-4.8513,-4.9032,-4.8726,-4.7909,-4.609,-4.3339,-3.9023,0.0,-3.1491,-2.8336,-2.6322,-2.5543,-2.6684,-2.7464,-2.9211,-3.3336,-3.4711,-3.7275,0.0,0.0,0.0,0.0,0.0,0.0,0.0,0.0,0.0,0.0,0.0,0.0,-5.8635,-5.8486,-5.8334,-5.8179,-5.8133,-5.8065,-5.7997,-5.7997,-5.7997,-5.7997,-5.7997,-5.7867,-5.7655,-5.7655,-5.7351,-5.6783,-5.6783,0.0,0.0,-5.6692,-5.6745,-5.7298,-5.6325,-5.5543,-5.5048,-5.5048,-5.4803,-5.4494,0.0,0.0,0.0,0.0,0.0,-2.3437,-2.4258,-2.5898,-2.7539,-2.9023,-2.9219,-2.9219,-2.9219,-2.8437,-2.7422,-2.6172,-2.5859,0.0,0.0,0.0,0.0,0.0,0.0,0.0,0.0,0.0,0.0,0.0,-2.6176,0.0,0.0,0.0,0.0,0.0,0.0,0.0,0.0,0.0,0.0,0.0,0.0,0.0,0.0,0.0,0.0,0.0,0.0,0.0,0.0,0.0,0.0,0.0,0.0,0.0,0.0,0.0,-4.3085,-4.4589,-4.7583,-4.823,-4.801,-4.7583,-4.5571,-4.2679,0.0,0.0,-3.1263,-2.8001,-2.5952,-2.5211,-2.6682,-2.6944,-2.8096,-3.1701,-3.2407,-3.4451,-4.0085,0.0,0.0,0.0,0.0,0.0,0.0,0.0,0.0,0.0,0.0,0.0,0.0,-5.8614,-5.8486,-5.829,-5.8223,-5.8133,-5.8065,-5.802,-5.7997,-5.7997,-5.7997,-5.8107,-5.8364,-5.8107,-5.792,-5.7703,-5.7449,0.0,0.0,-5.7306,-5.7361,-5.8131,-5.6967,-5.6193,-5.5629,-5.549,-5.5104,-5.4745,0.0,0.0,0.0,0.0,0.0,0.0,-2.4258,-2.5898,-2.7305,-2.8203,-2.832,-2.832,-2.832,-2.7539,-2.6992,-2.6992,-2.6211,0.0,0.0,0.0,0.0,0.0,0.0,0.0,0.0,0.0,-2.6887,-2.6891,-2.7753,0.0,0.0,0.0,0.0,0.0,0.0,0.0,0.0,0.0,0.0,0.0,0.0,0.0,0.0,0.0,0.0,0.0,0.0,0.0,0.0,0.0,0.0,0.0,0.0,0.0,0.0,0.0,-4.1739,-4.3662,-4.6231,-4.75,-4.7932,-4.7115,-4.5,-4.22,0.0,-3.4731,-3.0931,-2.816,-2.6148,-2.5338,-2.6848,-2.6981,-2.7724,-3.0214,-3.263,-3.533,-3.8674,0.0,0.0,0.0,0.0,0.0,0.0,0.0,0.0,0.0,0.0,0.0,0.0,-5.8698,-5.8635,-5.8492,-5.8312,-5.8179,-5.8215,-5.8065,-5.7997,-5.7997,-5.7997,-5.8437,-5.9148,-5.8364,-5.8437,0.0,0.0,0.0,0.0,-5.8055,-5.7749,-5.7382,-5.7185,-5.6783,-5.6221,-5.5601,-5.5402,-5.5313,0.0,0.0,0.0,0.0,0.0,0.0,0.0,-2.5,-2.6406,-2.7305,-2.7422,-2.7656,-2.8242,-2.7539,-2.6992,-2.6992,-2.6211,0.0,0.0,0.0,0.0,0.0,0.0,0.0,0.0,0.0,-2.7259,-2.7787,-2.8647,-2.9375,0.0,0.0,0.0,0.0,0.0,0.0,0.0,0.0,0.0,0.0,0.0,0.0,0.0,0.0,0.0,0.0,0.0,0.0,0.0,0.0,0.0,0.0,0.0,0.0,0.0,-3.2383,0.0,0.0,-4.1016,-4.1893,-4.2008,-4.1777,-4.0662,-3.8854,-3.6045,-3.3468,-3.0937,-2.8167,-2.6598,-2.6012,-2.6923,-2.7429,-2.8876,-3.2481,-3.3696,0.0,0.0,0.0,0.0,0.0,0.0,0.0,0.0,0.0,0.0,0.0,0.0,0.0,0.0,-5.8698,-5.8635,-5.8492,-5.8443,-5.8378,-5.8349,-5.8305,-5.8282,-5.8282,-5.8282,-5.8643,-5.9311,-5.8501,-5.8506,0.0,0.0,0.0,0.0,-5.8257,-5.8249,-5.8553,-5.7947,-5.7376,-5.6835,-5.6616,-5.6357,-5.5999,0.0,0.0,0.0,0.0,0.0,0.0,0.0,-2.4805,-2.5898,-2.6445,-2.6523,-2.6836,-2.7695,-2.7031,-2.6641,-2.6953,-2.6211,0.0,0.0,0.0,0.0,0.0,0.0,0.0,-2.6172,-2.7031,-2.8359,-3.0151,-3.0698,-3.155,-3.2658,-3.1442,-3.0233,0.0,0.0,0.0,0.0,0.0,0.0,0.0,0.0,0.0,0.0,0.0,0.0,0.0,0.0,0.0,0.0,0.0,0.0,0.0,0.0,0.0,0.0,0.0,-3.0722,-3.3474,0.0,-3.8546,-3.8815,-3.8815,-3.793,-3.6469,-3.4199,-3.216,-3.0065,-2.7723,-2.6409,-2.6022,-2.7013,-2.7491,-2.876,-3.1898,-3.315,0.0,0.0,0.0,0.0,0.0,0.0,0.0,0.0,0.0,0.0,0.0,0.0,0.0,0.0,-5.8698,-5.8656,-5.8593,-5.8551,-5.8486,-5.8459,-5.8415,-5.8393,-5.8393,-5.8393,-5.8755,-5.9425,-5.8651,-5.868,0.0,0.0,0.0,0.0,-5.8309,-5.8359,-5.8764,-5.8286,-5.7821,-5.7425,-5.7191,-5.6912,-5.6572,0.0,0.0,0.0,0.0,0.0,0.0,0.0,-2.5156,-2.5703,-2.5703,-2.5703,-2.6016,-2.6836,-2.6172,-2.6016,-2.6836,0.0,0.0,0.0,0.0,0.0,0.0,0.0,0.0,-2.6992,-2.7851,-2.9961,-3.332,-3.3437,-3.4334,-3.5962,-3.4328,-3.2605,-3.0795,-2.9032,0.0,0.0,0.0,0.0,0.0,0.0,0.0,0.0,0.0,0.0,0.0,0.0,0.0,0.0,0.0,0.0,0.0,0.0,0.0,0.0,0.0,0.0,0.0,0.0,-3.6661,0.0,0.0,-3.6161,-3.4615,-3.2929,-3.0698,0.0,-2.6928,-2.5844,-2.5666,-2.7199,-2.7374,-2.7848,-2.9613,-3.1849,0.0,0.0,0.0,0.0,0.0,0.0,0.0,0.0,0.0,0.0,0.0,0.0,0.0,0.0,-5.8698,-5.8698,-5.8698,-5.8593,-5.8492,-5.8492,-5.8443,-5.8452,-5.8489,-5.8452,-5.8858,-5.9671,-5.8821,-5.8858,0.0,0.0,0.0,0.0,-5.8282,-5.8201,-5.8201,-5.8179,-5.8111,-5.795,-5.7364,-5.7166,-5.7091,0.0,0.0,0.0,0.0,0.0,0.0,0.0,0.0,0.0,0.0,-2.5703,-2.5781,-2.5977,-2.582,-2.5781,0.0,0.0,0.0,0.0,0.0,0.0,0.0,0.0,0.0,-2.6992,-2.7851,-2.9687,-3.2461,-3.3789,-3.5273,-3.6952,-3.6442,-3.4961,-3.2655,-3.1421,-2.9708,0.0,0.0,0.0,0.0,0.0,0.0,0.0,0.0,0.0,0.0,0.0,0.0,0.0,0.0,0.0,0.0,0.0,0.0,0.0,0.0,-2.6305,-2.7291,-2.862,0.0,-3.105,-3.0429,-3.0429,-3.0352,0.0,-2.8626,-2.7895,-2.6813,0.0,0.0,-2.8804,-2.9088,-3.0335,0.0,0.0,0.0,0.0,0.0,0.0,0.0,0.0,0.0,0.0,0.0,0.0,0.0,0.0,0.0,0.0,-5.8698,-5.8698,-5.8698,-5.8656,-5.8656,-5.8656,-5.8635,-5.8948,-5.9542,-5.8911,-5.935,-6.0596,-5.9153,-5.8887,0.0,0.0,0.0,-5.8393,-5.8371,-5.8349,-5.8349,-5.826,-5.8156,-5.8111,-5.7867,-5.7797,-5.7774,0.0,0.0,0.0,0.0,0.0,0.0,0.0,0.0,0.0,0.0,0.0,-2.5703,-2.5703,-2.5703,0.0,0.0,0.0,0.0,0.0,0.0,0.0,0.0,0.0,-2.6289,-2.7578,-2.8047,-3.0156,-3.3945,-3.4453,-3.5976,-3.8432,-3.7529,-3.5922,-3.3754,-3.1643,-2.9674,0.0,0.0,0.0,0.0,0.0,0.0,0.0,0.0,0.0,0.0,0.0,-2.5488,0.0,-2.6872,-2.7022,-2.6786,0.0,0.0,0.0,0.0,-2.5777,-2.6108,-2.6067,-2.8427,-3.0677,-2.9858,-3.0237,-3.0544,-2.9313,0.0,0.0,0.0,0.0,0.0,0.0,0.0,0.0,0.0,0.0,0.0,0.0,0.0,0.0,0.0,0.0,0.0,0.0,0.0,0.0,0.0,0.0,0.0,0.0,-5.8698,-5.8698,-5.8698,-5.8698,-5.8698,-5.8698,-5.8698,-5.8921,-5.9367,-5.8921,-5.9139,-5.9913,-5.9001,-5.8831,0.0,0.0,0.0,-5.8545,-5.8465,-5.8443,-5.8422,-5.8356,-5.8312,-5.8282,-5.8201,-5.8156,-5.8156,0.0,0.0,0.0,0.0,0.0,0.0,0.0,0.0,0.0,0.0,0.0,0.0,0.0,0.0,0.0,0.0,0.0,0.0,0.0,0.0,0.0,0.0,-2.5703,-2.6562,-2.8476,-2.8359,-3.0703,-3.5586,-3.5273,-3.6637,-3.9584,-3.8568,-3.6911,-3.473,-3.1449,-2.9394,0.0,0.0,0.0,0.0,0.0,0.0,0.0,0.0,0.0,0.0,0.0,0.0,0.0,-2.7159,-2.731,-2.6996,-2.7464,0.0,0.0,0.0,0.0,0.0,-2.606,-2.9687,-3.3005,-3.132,-3.1814,-3.2237,-3.0423,0.0,0.0,0.0,0.0,0.0,0.0,0.0,0.0,0.0,0.0,0.0,0.0,0.0,0.0,0.0,0.0,0.0,0.0,0.0,0.0,0.0,0.0,0.0,0.0,-5.8698,-5.8698,-5.8698,-5.8698,-5.8698,-5.8698,-5.8698,-5.8772,-5.8884,-5.8772,-5.8772,-5.8884,-5.8772,-5.8698,-5.8677,0.0,0.0,-5.8677,-5.8593,-5.8513,-5.8551,-5.8529,-5.8465,-5.8415,-5.8393,-5.8393,-5.8356,0.0,0.0,0.0,0.0,0.0,0.0,0.0,0.0,0.0,0.0,0.0,0.0,0.0,0.0,0.0,0.0,0.0,0.0,0.0,0.0,0.0,-2.5703,-2.5703,-2.6875,-2.9336,-2.8672,-3.0117,-3.3789,-3.5898,-3.7535,-3.8756,-4.1332,-4.0411,-3.6505,-3.3871,-3.1765,-3.0171,-2.9631,0.0,0.0,0.0,0.0,0.0,0.0,0.0,0.0,0.0,0.0,0.0,-2.5801,-2.6729,-2.7585,-2.6304,0.0,0.0,0.0,0.0,0.0,-2.8941,-3.2375,-3.3871,-2.867,-2.966,-3.1237,-2.8813,0.0,0.0,0.0,0.0,0.0,0.0,0.0,0.0,0.0,0.0,0.0,0.0,0.0,0.0,0.0,0.0,0.0,0.0,0.0,0.0,0.0,0.0,0.0,0.0,-5.8698,-5.8698,-5.8698,-5.8698,-5.8698,-5.8698,-5.8698,-5.9032,-5.9717,-5.9032,-5.9069,-5.9701,-5.9032,-5.8698,-5.8698,0.0,-5.8677,-5.8698,-5.8677,-5.8656,-5.8656,-5.8513,-5.8471,-5.8486,-5.8437,-5.8393,-5.8282,0.0,0.0,0.0,0.0,0.0,0.0,0.0,0.0,0.0,0.0,0.0,0.0,0.0,0.0,0.0,0.0,0.0,0.0,0.0,0.0,-2.6602,-2.707,-2.7578,-2.8359,-2.957,-3.0117,-3.207,-3.5508,-3.7187,-3.8864,-4.0558,-4.0206,-3.8721,-3.6274,-3.3234,-3.1423,-3.0574,-3.0221,0.0,0.0,0.0,0.0,0.0,0.0,0.0,0.0,0.0,0.0,0.0,0.0,-2.6962,-2.7778,-2.6532,0.0,0.0,0.0,0.0,0.0,-2.7323,-3.0528,-3.2694,-2.9462,-3.2596,-3.5776,-3.3237,-3.1929,0.0,0.0,0.0,0.0,0.0,0.0,0.0,0.0,0.0,0.0,0.0,0.0,0.0,0.0,0.0,0.0,0.0,0.0,0.0,0.0,0.0,0.0,0.0,0.0,-5.8698,-5.8698,-5.8698,-5.8698,-5.8698,-5.8698,-5.8884,-5.9255,-5.8884,-5.8884,-5.9255,-5.8884,-5.8698,-5.8698,0.0,-5.8698,-5.8698,-5.8698,-5.8698,-5.8677,-5.8635,-5.8614,-5.8614,-5.8551,-5.8249,-5.774,0.0,0.0,0.0,0.0,0.0,0.0,0.0,0.0,0.0,0.0,0.0,0.0,0.0,0.0,0.0,0.0,0.0,0.0,0.0,-2.6523,-2.7305,-2.7969,-2.9219,-3.0273,-3.1094,-3.2226,-3.4453,-3.7891,-3.8984,-4.0778,-4.3139,-3.983,-3.7669,-3.6382,-3.3098,-3.1234,-3.0639,-3.0602,-3.0586,0.0,0.0,0.0,0.0,0.0,0.0,0.0,0.0,0.0,0.0,0.0,0.0,0.0,0.0,0.0,0.0,-2.6459,-2.5956,-2.5948,-2.6709,-2.9265,-3.1703,-3.1648,0.0,-3.863,-3.7046,-3.5391,0.0,0.0,0.0,0.0,0.0,0.0,0.0,0.0,0.0,0.0,0.0,0.0,0.0,0.0,0.0,0.0,0.0,0.0,0.0,0.0,0.0,0.0,0.0,0.0,-5.8512,-5.8698,-5.8698,-5.8698,-5.8698,-5.8698,-5.8698,-5.8698,-5.8698,-5.8698,-5.8698,-5.8698,-5.8698,-5.8698,-5.8698,-5.8698,-5.8698,-5.8698,-5.8698,-5.8698,-5.8698,-5.8698,-5.8698,-5.8512,-5.7967,-5.7291,0.0,0.0,0.0,0.0,0.0,0.0,0.0,0.0,0.0,0.0,0.0,0.0,0.0,0.0,0.0,0.0,0.0,0.0,0.0,-2.6523,-2.7031,-2.7109,-2.9492,-3.2305,-3.5469,-3.4883,-3.6211,-3.9726,-4.1328,-4.3434,-4.587,-4.3172,-4.0631,-3.8206,-3.5492,-3.2978,-3.0697,-3.0645,-3.0602,-3.0443,0.0,0.0,0.0,0.0,0.0,0.0,0.0,0.0,0.0,0.0,0.0,0.0,0.0,0.0,-2.7972,-2.7855,-2.7232,-2.7305,-3.0477,-3.1569,-3.2348,-3.4652,-3.495,-3.5013,-3.6392,-3.5391,0.0,-3.7161,0.0,0.0,0.0,0.0,0.0,0.0,0.0,0.0,0.0,0.0,0.0,0.0,0.0,0.0,0.0,0.0,0.0,0.0,0.0,0.0,0.0,0.0,0.0,-5.8698,-5.8698,-5.8698,-5.8698,-5.8698,-5.8698,-5.8698,-5.8698,-5.8698,-5.8698,-5.8698,-5.8698,-5.8698,-5.8698,-5.8698,-5.8698,-5.8698,-5.8698,-5.8698,-5.8698,-5.8698,-5.8624,-5.7881,-5.7546,-5.7266,0.0,0.0,0.0,0.0,0.0,0.0,0.0,0.0,0.0,0.0,0.0,0.0,0.0,0.0,0.0,0.0,0.0,0.0,0.0,-2.6523,-2.7461,-2.8555,-3.0586,-3.3047,-3.5937,-3.6758,-3.8555,-4.1445,-4.3711,-4.4765,-4.4566,-4.1441,-3.8902,-3.6791,-3.3592,-3.1919,-3.1478,-3.087,-3.0907,-3.1139,-2.89,0.0,0.0,0.0,0.0,0.0,0.0,0.0,0.0,0.0,-2.6652,-2.7387,-2.6652,-2.7542,-2.8591,-2.7503,-2.6957,-2.6992,-2.8272,-3.0168,-3.21,-3.3593,-3.5284,0.0,0.0,-3.9861,-4.1401,-4.1816,-4.2162,0.0,0.0,0.0,0.0,0.0,0.0,0.0,0.0,0.0,0.0,0.0,0.0,0.0,0.0,0.0,0.0,0.0,0.0,0.0,0.0,0.0,0.0,-5.7212,-5.7695,-5.7955,-5.7955,-5.8475,-5.8698,-5.8698,-5.8698,-5.8698,-5.8698,-5.8698,-5.8698,-5.8698,-5.8698,-5.8698,-5.8698,-5.8698,-5.8401,-5.7918,-5.7398,-5.7212,-5.7175,-5.6878,-5.6432,-5.5855,0.0,0.0,0.0,0.0,0.0,0.0,0.0,0.0,0.0,0.0,0.0,0.0,0.0,0.0,0.0,0.0,0.0,0.0,-2.5703,-2.6523,-2.7539,-2.8711,-3.0703,-3.2734,-3.4766,-3.7578,-4.0117,-4.2383,-4.5039,-4.5391,-4.3633,-4.0469,-3.8359,-3.7027,-3.3239,-3.2138,-3.308,-3.1594,-3.1294,-3.1599,-2.9321,-2.8242,0.0,0.0,0.0,0.0,0.0,0.0,0.0,0.0,-2.6459,-2.712,-2.6497,-2.731,-2.8315,-2.7383,-2.7301,-2.7486,-2.7486,-2.9535,-3.1967,-3.3106,0.0,0.0,-3.99,-4.2547,-4.4855,-4.5086,-4.5124,0.0,0.0,0.0,0.0,0.0,0.0,0.0,0.0,0.0,0.0,0.0,0.0,0.0,0.0,0.0,0.0,0.0,0.0,0.0,0.0,0.0,0.0,0.0,-5.684,-5.7138,-5.7138,-5.7695,-5.7955,-5.7955,-5.7955,-5.8215,-5.8698,-5.8698,-5.8549,-5.8326,-5.8326,-5.8178,-5.7955,-5.7955,-5.7621,-5.7063,-5.6506,-5.632,-5.6283,-5.5986,-5.5503,-5.4963,0.0,0.0,0.0,0.0,0.0,0.0,0.0,0.0,0.0,0.0,0.0,0.0,0.0,0.0,0.0,0.0,0.0,0.0,-2.5703,-2.6523,-2.6992,-2.6992,-2.9492,-3.1289,-3.2187,-3.7226,-4.0703,-4.2383,-4.5,-4.5351,-4.3594,-4.1055,-3.984,-3.9577,-3.5251,-3.4215,-3.5525,-3.288,-3.1792,-3.1637,-2.9979,-2.8784,0.0,0.0,0.0,0.0,0.0,0.0,0.0,0.0,-2.6145,-2.5801,-2.7469,-2.7426,-2.6919,-2.7739,-2.8568,-2.9202,-2.9202,-3.0413,-3.2116,0.0,0.0,0.0,-4.1662,-4.2547,-4.3893,-4.6385,0.0,0.0,0.0,0.0,0.0,0.0,0.0,0.0,0.0,0.0,0.0,0.0,0.0,0.0,0.0,0.0,0.0,0.0,0.0,0.0,0.0,0.0,0.0,-5.6246,-5.6283,-5.6283,-5.6283,-5.632,-5.632,-5.632,-5.632,-5.7138,-5.8698,-5.8698,-5.8252,-5.7509,-5.7509,-5.7063,-5.632,-5.6283,-5.6283,-5.6283,-5.6283,-5.6283,-5.6172,-5.5317,-5.4983,-5.4871,0.0,0.0,0.0,0.0,0.0,0.0,0.0,0.0,0.0,0.0,0.0,0.0,0.0,0.0,0.0,0.0,0.0,0.0,-2.5703,-2.5937,-2.6641,-2.7851,-2.9258,-3.0391,-3.1289,-3.4531,-3.8242,-4.2383,-4.3164,-4.207,-3.9219,-3.9062,-3.7965,-3.6105,-3.5373,-3.4652,-3.386,-3.2416,-3.1792,-3.1637,-2.9979,-2.9132,0.0,0.0,0.0,0.0,0.0,0.0,0.0,0.0,0.0,0.0,-2.6265,-2.7696,-2.9128,-2.7538,-2.8113,-2.9157,-2.8539,-3.0891,0.0,0.0,0.0,0.0,0.0,-4.6509,0.0,0.0,0.0,0.0,0.0,0.0,0.0,0.0,0.0,0.0,0.0,0.0,0.0,0.0,0.0,0.0,0.0,0.0,0.0,0.0,0.0,0.0,0.0,0.0,-5.4277,-5.4537,-5.5094,-5.5391,-5.5391,-5.5986,-5.632,-5.632,-5.632,-5.6543,-5.7026,-5.7026,-5.6878,-5.6655,-5.6655,-5.6506,-5.6246,-5.5652,-5.5391,-5.5354,-5.476,-5.4537,-5.45,-5.424,-5.4166,-5.4128,0.0,0.0,0.0,0.0,0.0,0.0,0.0,0.0,0.0,0.0,-2.5703,-2.5703,0.0,0.0,0.0,0.0,0.0,0.0,0.0,-2.5703,-2.6328,-2.7734,-2.8633,-3.0117,-3.2344,-3.4258,-3.6562,-3.9336,-4.0391,-3.9844,-3.7812,-3.8669,-3.8577,-3.7637,-3.7744,-3.7012,-3.5592,-3.4027,-3.3151,-3.2725,-3.1371,-3.0598,-3.0133,0.0,0.0,0.0,0.0,0.0,0.0,0.0,0.0,0.0,-2.5642,-2.6923,-2.8388,-2.7486,-2.8443,-2.9864,-3.0356,0.0,0.0,0.0,0.0,0.0,0.0,0.0,0.0,0.0,0.0,0.0,0.0,0.0,0.0,0.0,0.0,0.0,0.0,0.0,0.0,0.0,0.0,0.0,0.0,0.0,0.0,0.0,0.0,0.0,0.0,-5.3794,-5.3794,-5.3794,-5.4277,-5.4537,-5.4537,-5.5057,-5.5317,-5.5317,-5.5317,-5.5317,-5.5317,-5.5986,-5.6097,-5.5763,-5.5466,-5.5317,-5.528,-5.476,-5.4537,-5.45,-5.398,-5.3794,-5.3794,-5.3794,-5.3794,-5.3794,0.0,0.0,0.0,0.0,0.0,0.0,0.0,0.0,0.0,0.0,-2.5703,-2.5703,0.0,0.0,0.0,0.0,0.0,0.0,0.0,-2.5781,-2.6211,-2.707,-2.8125,-3.0508,-3.4492,-3.5273,-3.5312,-3.457,-3.7031,-3.8242,-3.8281,-3.9245,-4.0494,-4.1948,-4.1099,-4.0111,-3.8998,-3.6367,-3.4742,-3.3852,-3.3068,-3.2217,-3.1366,-3.0636,0.0,0.0,0.0,0.0,0.0,0.0,0.0,0.0,-2.5488,-2.5604,-2.599,-2.7361,-2.9067,-3.1009,-3.3249,0.0,0.0,0.0,0.0,0.0,0.0,0.0,0.0,0.0,0.0,0.0,0.0,0.0,0.0,0.0,0.0,0.0,0.0,0.0,0.0,0.0,0.0,0.0,0.0,0.0,0.0,0.0,0.0,0.0,0.0,-5.3757,-5.3794,-5.3794,-5.3794,-5.3794,-5.3794,-5.3794,-5.3794,-5.3794,-5.3794,-5.3794,-5.3868,-5.5391,-5.5652,-5.4871,-5.4128,-5.3794,-5.3794,-5.3794,-5.3794,-5.3794,-5.3794,-5.3794,-5.3794,-5.3794,-5.3794,-5.3794,0.0,0.0,0.0,0.0,0.0,0.0,0.0,0.0,0.0,0.0,0.0,0.0,0.0,0.0,0.0,0.0,0.0,0.0,0.0,-2.6328,-2.7109,-2.7969,-3.0156,-3.2109,-3.3633,-3.3242,-3.3242,-3.3672,-3.4922,-3.5547,-3.5586,-3.7812,-3.9354,-4.0244,-4.0016,-3.8657,-3.6328,-3.3073,-3.1178,-3.037,-3.0172,-2.9592,-2.8784,-2.8629,-2.7774,0.0,0.0,0.0,0.0,0.0,0.0,0.0,-2.5488,-2.6381,-2.7271,-2.6334,-2.8168,-3.0616,0.0,-3.4571,0.0,0.0,0.0,0.0,0.0,0.0,0.0,0.0,0.0,0.0,0.0,0.0,0.0,0.0,0.0,0.0,0.0,0.0,0.0,0.0,0.0,0.0,0.0,0.0,0.0,0.0,0.0,0.0,-5.2865,-5.346,-5.3794,-5.3794,-5.3794,-5.3794,-5.3794,-5.3794,-5.3794,0.0,-5.3794,-5.3794,-5.3831,-5.4166,-5.424,-5.4054,-5.3868,-5.3794,-5.3794,-5.3794,-5.3794,-5.3794,-5.3794,-5.3794,-5.3794,-5.3794,-5.3794,-5.3794,0.0,0.0,0.0,0.0,0.0,0.0,0.0,0.0,0.0,0.0,0.0,0.0,0.0,0.0,0.0,0.0,0.0,0.0,0.0,-2.6758,-2.7578,-2.8867,-3.1406,-3.2617,-3.2226,-3.1797,-3.1797,-3.2187,-3.2656,-3.3945,-3.5976,-3.8111,-3.9945,-4.1526,-4.1466,-3.951,-3.6091,-3.3499,-3.1681,-3.0443,-3.0095,-2.9863,-2.9747,-2.8939,-2.7813,-2.6605,-2.5797,0.0,0.0,0.0,0.0,0.0,0.0,0.0,-2.6807,-2.6713,-2.8207,-3.0428,0.0,0.0,0.0,0.0,0.0,0.0,0.0,0.0,0.0,0.0,0.0,0.0,0.0,0.0,0.0,0.0,0.0,0.0,0.0,0.0,0.0,0.0,0.0,0.0,0.0,0.0,0.0,0.0,0.0,-5.2048,-5.2048,-5.2419,-5.2828,-5.32,-5.3237,-5.3423,-5.3794,-5.3794,-5.3794,-5.3794,-5.3794,-5.3794,-5.3794,-5.3794,-5.3794,-5.3794,-5.3794,-5.3794,-5.3794,-5.3794,-5.3794,-5.3794,-5.3794,-5.3794,-5.3794,-5.3794,-5.3794,-5.3794,0.0,0.0,0.0,0.0,0.0,0.0,0.0,0.0,0.0,0.0,0.0,0.0,0.0,0.0,0.0,0.0,0.0,0.0,0.0,-2.707,-2.8008,-2.9766,-3.1992,-3.2617,-3.1367,-3.1211,-3.1289,-3.1562,-3.1289,-3.3398,-3.7773,-3.8894,-4.0789,-4.324,-4.2542,-4.015,-3.6555,-3.4254,-3.2392,-3.0864,-3.0211,-3.025,-3.0593,-2.9321,-2.789,-2.6416,-2.5758,-2.5488,-2.5488,-2.5488,0.0,0.0,0.0,0.0,-2.5754,-2.7168,-2.8241,-2.9921,0.0,0.0,0.0,0.0,0.0,0.0,0.0,0.0,0.0,0.0,0.0,0.0,0.0,0.0,0.0,0.0,0.0,0.0,0.0,0.0,0.0,0.0,0.0,0.0,0.0,0.0,0.0,0.0,0.0,-5.1193,-5.1193,-5.1305,-5.1714,-5.2382,-5.2382,-5.2717,-5.3385,-5.3534,-5.3608,-5.3608,-5.372,-5.3794,-5.3794,-5.3794,-5.3794,-5.3794,-5.3794,-5.3794,-5.3794,-5.3794,-5.3794,-5.3794,-5.3794,-5.3794,-5.3794,-5.3794,-5.3794,-5.3794,0.0,0.0,0.0,0.0,0.0,0.0,0.0,0.0,0.0,0.0,-2.5703,-2.5977,-2.6758,-2.625,0.0,0.0,0.0,0.0,-2.5937,0.0,0.0,-3.0664,-3.1797,-3.2578,-3.3047,-3.2383,-3.2734,-3.418,-3.2734,-3.4609,-3.9531,-3.8928,-3.9982,-4.2234,-3.926,-3.7156,-3.5554,-3.0913,-2.8346,-2.7383,-2.7267,-2.688,-2.6377,-2.688,-2.6455,-2.5642,-2.5526,-2.5488,-2.5488,-2.5488,-2.5488,0.0,0.0,0.0,0.0,0.0,-2.694,-2.8463,0.0,0.0,0.0,0.0,0.0,0.0,0.0,0.0,0.0,0.0,0.0,0.0,0.0,0.0,0.0,0.0,0.0,0.0,0.0,0.0,0.0,0.0,0.0,0.0,0.0,0.0,0.0,0.0,0.0,-5.0265,-5.0265,-5.1008,-5.1454,-5.1565,-5.1565,-5.1602,-5.1714,-5.2419,-5.2754,-5.2791,-5.346,-5.3794,-5.3794,-5.3794,-5.3794,-5.3794,-5.3794,-5.3794,-5.3794,-5.3794,-5.3794,-5.3794,-5.3794,-5.3794,-5.3794,-5.3794,-5.3794,-5.3794,0.0,0.0,0.0,0.0,0.0,0.0,0.0,0.0,0.0,0.0,0.0,-2.5859,-2.6211,-2.6367,0.0,0.0,0.0,0.0,-2.7148,-2.7851,0.0,-3.082,-3.1289,-3.1406,-3.1289,-3.0469,-3.0625,-3.1836,-3.1094,-3.3398,-3.8437,-3.8972,-4.0824,-4.3575,-4.0539,-3.8438,-3.6823,-3.1739,-2.9027,-2.8045,-2.6609,-2.7228,-2.8814,-2.6803,-2.6996,-2.8122,-2.6188,-2.5488,-2.5488,-2.5488,-2.5488,0.0,0.0,0.0,0.0,0.0,0.0,0.0,0.0,0.0,0.0,0.0,0.0,0.0,0.0,0.0,0.0,0.0,0.0,0.0,0.0,0.0,0.0,0.0,0.0,0.0,0.0,0.0,0.0,0.0,0.0,0.0,0.0,0.0,0.0,0.0,0.0,-4.9616,-4.9447,-4.9782,-5.0228,-5.0673,-5.0673,-5.0896,-5.1416,-5.1751,-5.1936,-5.1936,-5.2308,-5.2457,-5.2457,-5.294,-5.3385,-5.3794,-5.3794,-5.3794,-5.3794,-5.3794,-5.3794,-5.3794,-5.3794,-5.3794,-5.3794,-5.3794,-5.3794,-5.3794,0.0,0.0,0.0,0.0,0.0,0.0,0.0,0.0,0.0,0.0,0.0,0.0,-2.6016,0.0,0.0,0.0,0.0,0.0,-2.8242,0.0,0.0,0.0,-3.0664,-3.0391,-2.9297,-2.8867,-2.8945,-2.9609,-2.9609,-3.2461,-3.7969,-3.9011,-4.1657,-4.545,-4.2513,-3.9863,-3.735,-3.3142,-3.0683,-2.9476,-2.7774,-2.8853,-3.125,-2.9201,-2.9863,-3.1487,-2.8277,-2.6957,0.0,0.0,0.0,0.0,0.0,0.0,0.0,0.0,0.0,0.0,0.0,0.0,0.0,0.0,0.0,0.0,0.0,0.0,0.0,0.0,0.0,0.0,0.0,0.0,0.0,0.0,0.0,0.0,0.0,0.0,0.0,0.0,0.0,0.0,0.0,0.0,0.0,0.0,0.0,-4.9209,-4.9027,-4.8942,-4.9187,-4.9782,-4.9819,-5.0116,-5.0748,-5.0971,-5.1193,-5.1416,-5.1416,-5.1416,-5.1416,-5.2011,-5.2605,-5.32,-5.3608,-5.3794,-5.3794,-5.3794,-5.3794,-5.3794,-5.3794,-5.3794,-5.3794,-5.3571,-5.3497,-5.346,0.0,0.0,0.0,0.0,0.0,0.0,0.0,0.0,0.0,0.0,0.0,0.0,-2.6914,-2.6953,-2.6992,-2.6992,0.0,0.0,0.0,0.0,0.0,0.0,0.0,0.0,-2.8398,-2.9141,-2.9531,-2.9609,-2.9609,-3.3086,-3.9766,-3.893,-4.1745,-4.7304,-4.3775,-3.9847,-3.5732,-3.3927,-3.2133,-3.0598,-3.1212,-3.1134,-3.1062,-3.4853,-3.5936,-3.5085,-3.2411,0.0,0.0,0.0,0.0,0.0,0.0,0.0,0.0,0.0,0.0,0.0,0.0,0.0,0.0,0.0,0.0,0.0,0.0,0.0,0.0,0.0,0.0,0.0,0.0,0.0,0.0,0.0,0.0,0.0,0.0,0.0,0.0,0.0,0.0,0.0,0.0,0.0,0.0,0.0,0.0,-4.9061,-4.9368,-4.9077,-4.8927,-4.8964,-4.8964,-4.9002,-4.9039,-4.9856,-5.0636,-5.1416,-5.1416,-5.1416,-5.1416,-5.1454,-5.1491,-5.1602,-5.3162,-5.3794,-5.3794,-5.3794,-5.3794,-5.3794,-5.3794,-5.3794,-5.372,-5.294,-5.2679,-5.2568,0.0,0.0,0.0,0.0,0.0,0.0,0.0,0.0,0.0,0.0,0.0,0.0,0.0,-2.6641,-2.6992,-2.6992,-2.7812,0.0,0.0,0.0,0.0,0.0,0.0,0.0,-2.832,-2.8594,-2.8789,-2.8789,-2.8789,-3.1133,-3.5781,-3.7654,-3.9725,-4.1797,-4.1587,-4.1193,-4.0379,-3.5427,-3.3838,0.0,-3.3184,-3.4466,-3.7063,-3.64,-3.7638,-3.9262,0.0,0.0,0.0,0.0,0.0,0.0,-2.6455,-2.5913,-2.5488,-2.5488,0.0,0.0,0.0,0.0,0.0,0.0,0.0,0.0,0.0,0.0,0.0,0.0,0.0,0.0,0.0,0.0,0.0,0.0,0.0,0.0,0.0,0.0,0.0,0.0,0.0,0.0,0.0,0.0,0.0,0.0,0.0,-4.934,-4.9094,-4.8959,-4.889,-4.889,-4.889,-4.889,-4.889,-4.9224,-4.9522,-4.9819,-4.9819,-4.9819,-4.9819,-5.0339,-5.0562,-5.0636,-5.1788,-5.2271,-5.2271,-5.2271,-5.2271,-5.2271,-5.2271,-5.2271,-5.2234,-5.1936,-5.1825,-5.1788,0.0,0.0,0.0,0.0,0.0,0.0,0.0,0.0,-2.6992,-2.6992,0.0,0.0,0.0,0.0,-2.8516,-2.793,-2.8125,-2.8281,-2.8281,-2.8555,0.0,0.0,0.0,0.0,0.0,-2.8164,-2.8008,-2.7422,-2.8008,-3.0039,-3.3437,-3.5781,-3.7656,-3.9023,-3.9251,-4.0555,-4.2351,0.0,0.0,-3.7272,0.0,0.0,-4.0313,-4.0075,-4.1351,-4.2821,0.0,0.0,0.0,0.0,0.0,0.0,-2.7924,-2.6609,-2.5488,-2.5488,-2.5488,0.0,-2.7511,0.0,0.0,0.0,0.0,0.0,0.0,0.0,0.0,0.0,0.0,0.0,0.0,0.0,0.0,0.0,0.0,0.0,0.0,0.0,0.0,0.0,0.0,0.0,0.0,0.0,0.0,0.0,0.0,0.0,-4.8771,-4.86,-4.863,-4.889,-4.889,-4.889,-4.889,-4.889,-4.889,-4.889,-4.889,-4.889,-4.8927,-4.9447,-4.9707,-4.9745,-5.0302,-5.0896,-5.1416,-5.1416,-5.1416,-5.1416,-5.1416,-5.1416,-5.1342,-5.1082,-5.0971,-5.0933,0.0,0.0,0.0,0.0,0.0,0.0,0.0,0.0,-2.7109,-2.7031,0.0,0.0,0.0,0.0,0.0,-2.9883,-2.8945,-2.8398,-2.8398,-2.9141,0.0,0.0,0.0,0.0,-2.7109,-2.7891,-2.75,-2.5781,-2.7461,-3.0,-3.3242,-3.3281,-3.5625,-3.9609,-3.707,-3.7769,-4.0867,0.0,-3.9883,-3.862,0.0,-4.0352,-4.0429,0.0,0.0,0.0,-4.402,-4.2318,0.0,-3.6096,0.0,0.0,0.0,-2.758,-2.5526,-2.5526,-2.5526,0.0,0.0,0.0,0.0,0.0,0.0,0.0,0.0,0.0,0.0,0.0,0.0,0.0,0.0,0.0,0.0,0.0,0.0,0.0,0.0,0.0,0.0,0.0,0.0,0.0,0.0,0.0,0.0,0.0,-4.7365,-4.7382,-4.8399,-4.7963,-4.8053,-4.8853,-4.8853,-4.889,-4.889,-4.889,-4.889,-4.889,-4.889,-4.889,-4.889,-4.889,-4.889,-4.889,-4.889,-4.9819,-5.1342,-5.1342,-5.1342,-5.1342,-5.1342,-5.1342,-5.1231,-5.0376,-5.0079,-4.9968,0.0,0.0,0.0,0.0,0.0,-2.832,-2.7695,-2.8867,-2.9375,0.0,0.0,0.0,-2.9726,-3.168,-3.3125,-3.3281,-3.1953,-3.0859,-3.0234,-2.9805,-2.9336,-2.8672,-2.9883,-3.0039,-2.8906,-2.9101,-2.8711,-2.7578,-2.8047,-2.8789,-2.9726,-3.1016,-3.2891,-3.5195,-3.5117,-3.5937,-3.7301,-3.6009,0.0,-4.268,-4.0012,-4.2125,0.0,0.0,0.0,0.0,0.0,-4.4987,-4.3285,0.0,-3.845,-3.4775,0.0,0.0,-2.6261,-2.5681,-2.5913,-2.6223,-2.5642,0.0,0.0,0.0,0.0,0.0,0.0,0.0,0.0,0.0,0.0,0.0,0.0,0.0,0.0,0.0,0.0,0.0,0.0,0.0,0.0,0.0,0.0,0.0,0.0,0.0,0.0,0.0,-4.7583,-4.7517,-4.7642,-4.7296,-4.7388,-4.7999,-4.8036,-4.8296,-4.889,-4.889,-4.889,-4.889,-4.889,-4.889,-4.889,-4.889,-4.889,-4.889,-4.889,-4.915,-4.9596,-4.9596,-4.9596,-4.9596,-4.9596,-4.9596,-4.9559,-4.9336,-4.9224,-4.9187,0.0,0.0,0.0,-2.918,-2.9492,-2.9687,-2.9883,-3.0156,-3.0351,0.0,0.0,0.0,-3.332,-3.4687,-3.5312,-3.4766,-3.3476,-3.2187,-3.0976,-3.043,-2.9922,-2.9414,-3.0,-3.0273,-3.0156,-2.9805,-2.918,-2.8281,-2.8281,-2.8125,-2.7773,-2.8789,-3.0,-3.1289,-3.1797,-3.293,-3.4258,-3.2083,0.0,0.0,-4.1202,0.0,0.0,-4.696,-4.8043,0.0,0.0,0.0,-4.5993,-4.4755,-4.1274,0.0,0.0,0.0,0.0,-2.7116,-2.7387,-2.8156,-2.731,-2.7155,0.0,0.0,0.0,0.0,0.0,0.0,0.0,0.0,0.0,0.0,0.0,0.0,0.0,0.0,0.0,0.0,0.0,0.0,0.0,0.0,0.0,0.0,0.0,0.0,0.0,-4.6837,-4.6734,-4.6683,-4.6746,-4.6855,-4.702,-4.7357,-4.7248,-4.759,-4.8407,-4.8407,-4.8556,-4.889,-4.889,-4.889,-4.889,-4.889,-4.889,-4.889,-4.889,-4.889,-4.889,-4.889,-4.889,-4.889,-4.889,-4.889,-4.889,-4.889,-4.889,-4.889,0.0,0.0,-2.8984,-3.0742,-3.0547,-3.0703,-3.2226,-3.125,-3.1172,0.0,-3.3984,-3.5391,-3.8789,-3.8984,-3.8008,-3.5742,-3.4414,-3.3008,-3.1445,-3.1055,-3.082,-3.0625,-3.0156,-3.0117,-3.0586,-3.0156,-2.9375,-2.8281,-2.8281,-2.7891,-2.7148,-2.6953,-2.7305,-2.8164,-2.8047,-2.9375,-3.1484,-2.9601,0.0,-3.8608,-4.2343,-4.4372,0.0,0.0,-4.918,-4.8894,-4.9475,-4.9204,-4.8275,-4.6426,-4.2667,0.0,0.0,0.0,0.0,0.0,-2.9785,-3.0946,-2.9979,-2.9248,-2.9364,0.0,0.0,0.0,-3.2769,-3.2106,0.0,0.0,0.0,0.0,0.0,0.0,0.0,0.0,0.0,0.0,0.0,0.0,0.0,0.0,0.0,0.0,0.0,-4.5701,-4.5684,-4.5594,-4.539,-4.5442,-4.5886,-4.641,-4.6732,-4.6734,-4.6536,-4.6768,-4.7553,-4.7553,-4.7961,-4.8779,-4.8779,-4.8816,-4.889,-4.889,-4.889,-4.889,-4.889,-4.889,-4.889,-4.889,-4.889,-4.889,-4.889,-4.889,-4.889,-4.889,-4.889,-4.889,0.0,-2.9219,-2.9883,-3.1641,-3.293,-3.3828,-3.4141,-3.4531,-3.5195,-3.6367,-3.7773,-3.9687,-4.2422,-4.1484,-4.0742,-4.0898,-3.7578,-3.5078,-3.4023,-3.2031,-3.0273,-2.8867,-3.0664,-3.0781,-2.8867,-3.0703,-3.0586,-2.8281,-2.8281,-2.8203,-2.8008,-2.6602,-2.6406,-2.7226,-2.6523,-2.6875,-2.8203,0.0,0.0,-3.7498,-3.8272,0.0,-4.8638,-4.7953,-4.9278,-5.1293,-5.0132,-4.9591,-4.9088,0.0,-4.4253,-4.1699,0.0,0.0,0.0,0.0,0.0,-3.435,-3.2798,-3.2764,-3.2808,-3.1449,0.0,0.0,0.0,-2.9945,0.0,0.0,0.0,0.0,0.0,0.0,0.0,0.0,0.0,0.0,0.0,0.0,0.0,0.0,0.0,0.0,0.0,-4.5701,-4.5684,-4.5594,-4.5559,-4.5486,-4.5366,-4.5464,-4.5633,-4.5862,-4.5775,-4.6075,-4.6735,-4.6735,-4.7144,-4.7924,-4.7924,-4.8259,-4.889,-4.889,-4.889,-4.889,-4.889,-4.889,-4.889,-4.889,-4.889,-4.889,-4.889,-4.889,-4.889,-4.889,-4.889,-4.889,-3.0077,-3.0234,-3.1211,-3.4219,-3.4726,-3.543,-3.7617,-3.7578,-3.8086,-4.0195,-4.1992,-4.3242,-4.3672,-4.3359,-4.2734,-4.1875,-3.9023,-3.6562,-3.4805,-3.2305,-3.0508,-2.9648,-3.043,-3.0703,-3.0234,-3.1094,-3.0703,-2.8945,-2.8516,-2.7851,-2.6992,-2.6094,-2.6875,-2.8867,-2.7148,-2.8008,-3.0859,0.0,-3.3706,-3.7473,-4.0422,0.0,-4.9149,-4.9149,-5.0195,-5.1513,-5.0619,-5.0055,-4.9359,-4.7192,-4.5606,0.0,0.0,-4.0075,-3.9991,0.0,-3.6245,-3.7141,-3.4969,-3.4389,-3.4278,-3.3847,0.0,0.0,0.0,0.0,0.0,0.0,0.0,0.0,0.0,0.0,0.0,0.0,0.0,0.0,0.0,0.0,0.0,0.0,0.0,0.0,0.0,-4.5439,-4.5684,-4.5594,-4.5594,-4.555,-4.541,-4.5263,-4.5246,-4.5407,-4.5268,-4.5467,-4.6059,-4.6059,-4.6414,-4.7107,-4.7107,-4.7516,-4.8296,-4.8296,-4.8519,-4.889,-4.889,-4.889,-4.889,-4.889,-4.889,-4.889,-4.889,-4.889,-4.889,-4.889,-4.889,-4.889,-3.0742,-3.0898,-3.2031,-3.5664,-3.5703,-3.6445,-4.0156,-3.9922,-4.043,-4.3555,-4.5625,-4.625,-4.4844,-4.5312,-4.5039,-4.332,-4.0976,-3.8672,-3.6562,-3.3711,-3.1914,-3.1406,-3.0703,-3.0742,-3.168,-3.1172,-3.0312,-2.9101,-2.8398,-2.7344,-2.5937,-2.5781,-2.7383,-3.0312,-2.8555,-3.0234,0.0,0.0,0.0,-3.8889,0.0,-4.6631,-4.7855,-4.9853,-5.0625,-5.0637,-5.0881,-5.0548,-4.9713,-4.7977,0.0,-4.5807,-4.2557,-4.3169,0.0,0.0,0.0,0.0,0.0,0.0,0.0,0.0,0.0,-3.3532,0.0,0.0,0.0,-3.273,0.0,0.0,0.0,0.0,0.0,0.0,0.0,0.0,0.0,0.0,0.0,0.0,0.0,0.0,0.0,-4.4622,-4.5137,-4.5612,-4.5133,-4.5094,-4.5556,-4.54,-4.5243,-4.5201,-4.4977,-4.5041,-4.5444,-4.5388,-4.5679,-4.6313,-4.6285,-4.6698,-4.7478,-4.7627,-4.8036,-4.8667,-4.8816,-4.889,-4.889,-4.889,-4.889,-4.889,-4.889,-4.889,-4.889,-4.889,-4.889,-4.889,-3.0742,-3.0898,-3.1289,-3.2578,-3.5117,-3.7422,-3.8711,-4.0625,-4.2656,-4.4609,-4.7031,-4.8516,-4.832,-4.8398,-4.8945,-5.0156,-4.5898,-4.3008,-4.2695,-3.8867,-3.5547,-3.3203,-3.3008,-3.1992,-2.9922,-3.0547,-2.9726,-2.7305,-2.7187,-2.7031,-2.6836,-2.6055,-2.6758,-2.8633,-2.9883,0.0,0.0,0.0,-3.8945,0.0,-4.4531,-4.4704,0.0,-4.7711,-4.8938,-4.9071,-5.0625,-5.1074,-5.0673,0.0,-4.8238,-4.7657,0.0,-4.5374,-4.6264,0.0,0.0,0.0,0.0,0.0,0.0,0.0,-3.8876,0.0,0.0,0.0,-3.1908,-2.9287,0.0,0.0,0.0,0.0,0.0,0.0,0.0,0.0,0.0,0.0,0.0,0.0,0.0,0.0,0.0,0.0,-4.3187,-4.55,-4.3533,-4.3239,-4.5479,-4.5568,-4.5438,-4.5211,-4.518,-4.5087,-4.4903,-4.467,-4.4932,-4.5715,-4.5503,-4.5844,-4.6661,-4.7367,-4.7738,-4.7887,-4.8593,-4.889,-4.889,-4.889,-4.889,-4.889,-4.889,-4.889,-4.889,-4.889,-4.889,-4.889,-3.0742,-3.0898,-3.1484,-3.332,-3.4414,-3.6172,-3.9609,-4.3984,-4.6836,-4.6562,-4.875,-5.0156,-4.9726,0.0,0.0,0.0,0.0,-4.4375,0.0,0.0,-3.6797,-3.5703,-3.4219,-3.3125,-3.2578,-3.1484,-2.9883,-2.7734,-2.7266,-2.6758,-2.625,-2.6406,-2.8437,-3.2031,-3.2266,0.0,-3.8594,0.0,0.0,0.0,0.0,0.0,0.0,-4.833,-5.0168,-5.026,-5.1507,-5.1603,-5.0952,0.0,-4.8949,0.0,0.0,0.0,0.0,0.0,0.0,0.0,0.0,0.0,0.0,0.0,0.0,0.0,-3.3311,0.0,-3.1521,0.0,0.0,0.0,0.0,0.0,0.0,0.0,0.0,0.0,0.0,0.0,0.0,0.0,0.0,0.0,0.0,0.0,0.0,0.0,-4.2725,-4.2678,-4.4748,-4.5325,-4.5559,-4.5429,-4.5429,-4.5293,-4.5022,-4.4763,-4.4734,-4.4909,-4.4661,-4.4989,-4.5807,-4.6141,-4.655,-4.7033,-4.785,-4.8184,-4.8259,-4.8704,-4.889,-4.889,-4.889,-4.889,-4.889,-4.889,-4.889,-4.889,-3.0469,0.0,-3.1758,-3.3398,-3.4297,-3.6484,-4.1484,-4.6172,-4.875,-4.7734,-4.9414,0.0,-5.0859,-5.1094,0.0,0.0,-4.9531,-4.7266,0.0,0.0,-3.9648,-3.9414,-3.668,0.0,0.0,-3.2891,-3.0508,-2.8281,-2.7422,-2.6797,-2.6406,-2.6836,-2.9492,-3.4023,-3.4336,-3.7422,-4.2305,0.0,0.0,-4.3164,-4.4297,-4.4805,-4.5273,-4.917,-5.0904,-5.1339,-5.196,-5.1795,-5.108,-5.0231,-4.9478,0.0,-4.7983,0.0,0.0,0.0,0.0,0.0,-4.3453,0.0,0.0,0.0,0.0,0.0,0.0,0.0,0.0,0.0,0.0,0.0,0.0,0.0,0.0,0.0,0.0,0.0,0.0,0.0,0.0,0.0,0.0,0.0,0.0,0.0,0.0,0.0,0.0,-4.1309,-4.4162,-4.4701,-4.5133,-4.5594,-4.5594,-4.5457,-4.5201,-4.4988,-4.4776,-4.4506,-4.4236,-4.4423,-4.5056,-4.5223,-4.5621,-4.6215,-4.7033,-4.7367,-4.7441,-4.8259,-4.8556,-4.8593,-4.8816,-4.889,-4.889,-4.889,-4.889,-4.889,-2.9805,-3.1016,0.0,0.0,0.0,-3.9883,-4.4219,-4.5742,-4.6719,0.0,0.0,0.0,0.0,0.0,0.0,0.0,0.0,-5.3359,-5.2383,0.0,-4.5625,-4.4805,-4.1484,-3.8906,0.0,-3.4648,-3.168,-2.8281,-2.7422,-2.7422,-2.8203,-2.7383,-2.8906,-3.2422,-3.5703,-3.9101,-4.25,-4.4101,-4.7226,-5.082,-4.8437,-4.8945,-5.0976,0.0,-4.9961,-5.1406,-5.1445,0.0,0.0,-5.0284,-4.994,0.0,0.0,0.0,0.0,0.0,0.0,0.0,0.0,0.0,0.0,-3.9727,0.0,0.0,0.0,0.0,-3.3813,0.0,0.0,0.0,0.0,0.0,-3.1173,-2.9553,-3.0017,0.0,0.0,0.0,0.0,0.0,0.0,0.0,0.0,0.0,0.0,0.0,0.0,0.0,-4.397,-4.3585,-4.3932,-4.5556,-4.5594,-4.5457,-4.5201,-4.5191,-4.5033,-4.4776,-4.4506,-4.4407,-4.4444,-4.5034,-4.5287,-4.5361,-4.6178,-4.655,-4.6587,-4.7404,-4.7738,-4.7813,-4.8593,-4.889,-4.889,-4.889,-4.889,-4.889,0.0,0.0,0.0,0.0,0.0,-3.7656,-4.2539,-4.6484,0.0,0.0,0.0,0.0,0.0,-5.6406,-5.6953,0.0,0.0,-5.4844,-5.2812,-4.9766,0.0,0.0,0.0,-4.1562,0.0,-3.7891,-3.4844,-3.2539,-3.0547,-2.9726,-3.0,-2.9141,-3.0547,-3.3984,0.0,-4.0078,0.0,0.0,0.0,0.0,0.0,-5.0,-5.2148,0.0,0.0,-5.1406,-5.1406,-5.1405,0.0,-5.1676,-5.1048,-5.0143,-5.0379,-4.9661,-4.854,-4.7663,-4.7315,0.0,0.0,0.0,-4.5336,-4.1622,0.0,0.0,0.0,0.0,0.0,0.0,0.0,0.0,0.0,0.0,-3.1444,-3.0327,-2.9901,-2.9128,0.0,0.0,0.0,0.0,0.0,0.0,0.0,0.0,0.0,0.0,-3.7006,0.0,0.0,-4.3448,-4.4162,-4.4701,-4.5287,-4.5559,-4.5457,-4.5126,-4.4884,-4.4788,-4.4519,-4.4397,-4.4421,-4.4622,-4.4676,-4.4751,-4.5419,-4.5695,-4.5807,-4.7144,-4.7701,-4.7776,-4.8593,-4.889,-4.889,-4.889,-4.889,-4.889,-3.2656,0.0,0.0,0.0,0.0,0.0,0.0,0.0,0.0,0.0,-5.3594,0.0,-5.7695,0.0,-5.8125,0.0,-5.8281,-5.6601,-5.3359,-5.2226,0.0,-4.9414,-4.6953,0.0,0.0,-4.1484,-3.8281,-3.5625,-3.3359,-3.2109,-3.1758,-3.0586,-3.1719,-3.4805,0.0,-4.0508,0.0,0.0,-4.7734,0.0,0.0,-5.1055,0.0,0.0,-5.168,-5.1406,0.0,-5.1406,-5.1484,-5.2031,-5.1523,-5.0703,-5.125,-5.0427,-4.9167,-4.8571,-4.8077,-4.7573,-4.7023,-4.6839,0.0,-4.3183,-4.124,0.0,-3.603,0.0,0.0,0.0,0.0,0.0,0.0,0.0,-3.2532,-3.2029,-3.0443,-2.8586,0.0,0.0,0.0,0.0,0.0,0.0,0.0,0.0,-3.2584,-3.57,0.0,0.0,0.0,0.0,-4.3418,-4.4303,-4.5197,-4.5594,-4.5503,-4.5253,-4.5055,-4.4966,-4.4688,-4.4533,-4.4533,-4.4438,-4.4327,-4.4302,-4.4759,-4.4913,-4.4952,-4.6587,-4.7256,-4.7367,-4.8481,-4.889,-4.889,-4.889,-4.889,-4.889,0.0,0.0,0.0,0.0,-3.918,0.0,0.0,0.0,-5.1133,0.0,-5.2695,-5.5234,-5.7851,-5.8125,-5.875,-6.039,-6.0547,0.0,-5.4648,-5.5859,0.0,0.0,-5.1133,-5.0312,-4.7891,-4.5195,-4.1797,-3.7695,-3.582,-3.4453,-3.3555,-3.1875,-3.2344,-3.4766,-3.7461,0.0,-4.3867,-4.7383,-5.0351,-5.2695,-5.2773,-5.2266,-5.1562,-5.2422,-5.2187,-5.1406,-5.1406,-5.1406,-5.1406,-5.1406,-5.1406,-5.1406,-5.1406,-5.0898,-5.0234,-5.0064,-4.9357,-4.8663,-4.8536,-4.8505,-4.7695,-4.4383,-4.3485,0.0,0.0,0.0,-4.0423,0.0,0.0,0.0,0.0,0.0,0.0,-3.4355,-3.1492,-2.8431,0.0,0.0,0.0,0.0,0.0,0.0,0.0,0.0,-2.9776,-3.3876,-3.2717,0.0,0.0,0.0,-4.1686,-4.419,-4.52,-4.5594,-4.5333,-4.5547,-4.5559,-4.5283,-4.4966,-4.4812,-4.48,-4.4546,-4.4294,-4.4033,-4.4294,-4.4236,-4.4135,-4.5807,-4.6513,-4.6661,-4.8259,-4.889,-4.889,-4.889,-4.889,-4.889,-3.7226,-3.9687,-4.207,0.0,-4.2305,-4.2734,0.0,0.0,0.0,0.0,-5.664,-5.8828,-6.1406,-6.1094,-6.1172,-6.2226,-6.2344,0.0,0.0,0.0,0.0,-5.6015,-5.3633,-5.207,-5.1406,-4.7617,0.0,-4.3008,0.0,-3.7148,-3.625,-3.4531,-3.3711,-3.3906,0.0,0.0,-4.3008,-4.7148,-5.0351,-5.2812,-5.4101,-5.3711,0.0,0.0,-5.2734,-5.1406,-5.1406,-5.1406,-5.1406,-5.1406,-5.1406,-5.1406,-5.1406,-5.125,-5.0976,-5.0311,-4.9907,-4.9525,-4.8886,-4.8656,-4.8358,-4.739,-4.5253,-4.3078,0.0,0.0,0.0,0.0,0.0,0.0,0.0,0.0,0.0,-3.3842,-3.1101,-2.905,0.0,0.0,0.0,0.0,0.0,0.0,0.0,0.0,-2.9935,-3.2285,-3.2032,0.0,0.0,0.0,0.0,-4.241,-4.4575,-4.5684,-4.5612,-4.5464,-4.5361,-4.5304,-4.5197,-4.5072,-4.4943,-4.4872,-4.4676,-4.4365,-4.431,-4.4162,-4.4135,-4.5807,-4.6513,-4.6661,-4.8259,-4.889,-4.889,-4.889,-4.889,-4.889,-4.0156,0.0,0.0,-4.7266,0.0,0.0,-4.8945,0.0,0.0,-5.5039,-5.7305,0.0,-6.0625,-6.1328,-6.1914,-6.2383,-6.2773,0.0,-6.0156,0.0,0.0,-5.7422,-5.582,-5.4961,-5.4961,-5.0391,0.0,-4.6133,0.0,0.0,-3.668,-3.4961,-3.3867,-3.3594,0.0,-4.0625,0.0,-4.7305,-5.0703,-5.2812,-5.418,0.0,0.0,-5.4258,-5.3476,-5.1953,-5.1953,-5.1719,-5.1406,-5.1406,-5.1406,-5.1406,-5.1406,-5.1406,-5.1328,-5.0859,-5.0657,-5.0479,-5.001,-4.9838,-4.9676,-4.9192,-4.7369,-4.5468,-4.4576,-4.4136,-4.3479,0.0,-4.2667,-4.3053,0.0,0.0,0.0,0.0,0.0,0.0,0.0,0.0,0.0,0.0,0.0,0.0,0.0,0.0,0.0,0.0,0.0,0.0,0.0,0.0,0.0,-4.1846,-4.4052,-4.5372,-4.5743,-4.5577,-4.5526,-4.5526,-4.538,-4.5227,-4.5142,-4.5142,-4.4931,-4.4519,-4.453,-4.4374,-4.4197,-4.5499,-4.6211,-4.6661,-4.8259,-4.889,-4.889,-4.889,-4.889,-4.889,0.0,0.0,0.0,0.0,0.0,0.0,0.0,-5.207,0.0,-5.4453,0.0,-5.8437,-5.8555,-6.043,-6.1758,-6.1875,0.0,-6.1758,-5.875,-6.1367,-6.1289,-5.7422,-5.789,-5.8125,-5.789,-5.3047,0.0,0.0,0.0,-3.8789,-3.5976,-3.4453,-3.3555,0.0,0.0,0.0,0.0,-4.8008,-5.1328,-5.2969,-5.3828,-5.418,-5.4258,-5.5,-5.4297,-5.2851,-5.2734,-5.2148,-5.1406,-5.1406,-5.1406,-5.1406,-5.1406,-5.1406,-5.1406,-5.1406,-5.1362,-5.1304,-5.1304,-5.1304,-5.1091,-5.0213,-4.9292,-4.8175,-4.6519,-4.5427,-4.4755,-4.4755,-4.3556,-4.3092,0.0,0.0,0.0,0.0,0.0,0.0,0.0,0.0,0.0,0.0,0.0,0.0,0.0,0.0,0.0,0.0,0.0,0.0,0.0,0.0,0.0,-4.1763,-4.3571,-4.4906,-4.58,0.0,-4.5795,-4.5795,-4.5488,-4.5332,-4.5343,-4.5343,-4.5082,-4.4663,-4.4908,-4.4726,-4.4311,-4.5117,-4.5919,-4.681,-4.8296,-4.889,-4.889,-4.889,-4.889,-4.889,0.0,0.0,0.0,0.0,0.0,-5.5039,-5.5586,-5.5703,-5.6328,-5.8047,-5.9883,-6.1328,-6.2031,-6.1875,-6.1992,-6.2695,-6.289,0.0,0.0,0.0,0.0,-6.0859,-6.0273,-5.9297,-5.793,-5.4219,-5.0742,0.0,-4.3828,-3.9922,-3.5976,-3.5703,0.0,0.0,0.0,0.0,-4.668,-4.9844,0.0,-5.3867,-5.4726,-5.5078,-5.5078,-5.5234,-5.4648,-5.3672,-5.2969,-5.2148,-5.1406,-5.1406,-5.1406,-5.1406,-5.1406,-5.1406,-5.1406,-5.1406,-5.1406,-5.1366,-5.1366,-5.1366,-5.1324,-5.1091,-4.9806,-4.8503,-4.8105,-4.6745,-4.5568,-4.5568,-4.5343,-4.4833,-4.3904,0.0,0.0,0.0,0.0,0.0,0.0,0.0,0.0,0.0,0.0,0.0,0.0,0.0,0.0,0.0,0.0,0.0,0.0,0.0,0.0,0.0,-4.3262,0.0,0.0,0.0,-4.5793,-4.5793,-4.5725,-4.5634,-4.5453,-4.5453,-4.5294,-4.5038,-4.5044,-4.4861,-4.4605,-4.5341,-4.6382,-4.759,-4.8519,-4.889,-4.889,-4.889,-4.889,-4.889,0.0,0.0,0.0,0.0,0.0,0.0,0.0,-5.8945,0.0,-5.8594,-5.9219,-5.9883,-6.0312,-6.1172,-6.1875,-6.2305,-6.2734,-6.2812,-6.2344,-6.2734,-6.2617,-6.1758,-6.0859,0.0,-5.9883,-5.5586,-5.2344,-5.0234,-4.457,-4.0039,-3.6641,-3.5742,0.0,0.0,0.0,-4.2383,0.0,0.0,0.0,-5.4062,-5.4961,-5.5586,-5.5976,-5.5976,-5.543,-5.4609,-5.4219,-5.3476,-5.2617,-5.1719,-5.1406,-5.1406,-5.1406,-5.1406,-5.1406,-5.1406,-5.1406,-5.1406,-5.1406,-5.1406,-5.1366,-5.1306,-4.9937,-4.8585,-4.852,-4.7113,-4.5807,-4.5807,-4.5867,-4.5368,-4.3662,-4.16,0.0,0.0,0.0,0.0,0.0,0.0,0.0,0.0,0.0,0.0,0.0,0.0,0.0,0.0,0.0,0.0,0.0,0.0,0.0,0.0,0.0,0.0,0.0,0.0,0.0,-4.5807,-4.5807,-4.5764,-4.565,-4.565,-4.5543,-4.5294,-4.5294,-4.5142,-4.4962,-4.6102,-4.6812,-4.7329,-4.8616,-4.909,-4.8996,-4.8945,-4.889,-4.889,0.0,-5.6172,0.0,0.0,-5.9258,0.0,-6.0117,-6.1172,-6.1172,-5.8984,-5.8711,-5.8711,-5.8711,-6.0508,-6.1758,-6.1953,-6.2422,-6.2578,-6.2265,-6.2539,-6.25,-6.1992,-6.1133,-6.0898,-6.1406,-5.7109,-5.4023,0.0,-4.5781,-4.0937,-3.7812,-3.625,0.0,0.0,0.0,0.0,0.0,0.0,-5.1914,-5.4336,-5.5039,-5.582,-5.6601,-5.6601,-5.6172,-5.5547,-5.5351,-5.4844,-5.4023,-5.2461,-5.1836,-5.1641,-5.1445,-5.1406,-5.1406,-5.1406,-5.1406,-5.1406,-5.1406,-5.1406,-5.1406,-5.1315,-4.9955,-4.861,-4.8582,-4.7157,-4.5854,-4.5854,-4.5936,-4.5483,-4.3714,-4.2593,0.0,0.0,0.0,0.0,0.0,0.0,0.0,0.0,0.0,0.0,0.0,0.0,0.0,0.0,0.0,0.0,-3.0482,-3.2648,-3.582,0.0,0.0,-4.3053,-4.5265,0.0,-4.5807,-4.5807,-4.5807,-4.5807,-4.5807,-4.5807,-4.5696,-4.5569,-4.5569,-4.5399,-4.5295,-4.6824,-4.7212,-4.702,-4.8805,-4.9394,-4.9257,-4.9057,-4.899,-4.901,0.0,0.0,0.0,0.0,0.0,0.0,-5.9531,-6.1328,-6.25,-6.1484,-6.1328,-6.1328,-6.1328,-6.1562,-6.2031,-6.2812,-6.2226,-6.2461,-6.3945,-6.2656,-6.2148,-6.2851,-6.2031,-6.125,-6.0547,-5.8555,-5.5547,0.0,0.0,-4.4492,-3.9648,-3.8672,-3.8555,0.0,0.0,0.0,0.0,-5.0586,-5.2773,-5.5195,-5.5273,-5.582,-5.6601,-5.6601,-5.6562,-5.6367,-5.5586,-5.5234,-5.5039,-5.4062,-5.3242,-5.2422,-5.1641,-5.1406,-5.1406,-5.1406,-5.1406,-5.1406,-5.1406,-5.1406,-5.1406,-5.1406,-5.0068,-4.8796,-4.8751,-4.7382,-4.6076,-4.6076,-4.6084,-4.5523,-4.3729,-4.4554,-4.4439,0.0,0.0,0.0,0.0,0.0,0.0,0.0,0.0,0.0,0.0,0.0,0.0,0.0,0.0,0.0,-3.0443,-3.1526,-3.3996,-3.829,0.0,-4.2473,-4.3518,-4.5026,-4.5807,-4.5807,-4.5807,-4.5807,-4.5807,-4.5807,-4.58,-4.5786,-4.5786,-4.5626,-4.5477,-4.6986,-4.7474,-4.7491,-4.9201,-4.9835,-4.977,-4.9475,-4.9363,-4.9317,0.0,0.0,0.0,0.0,0.0,0.0,0.0,-6.2344,-6.2851,-6.2539,-6.2031,-6.1719,-6.1719,-6.1719,-6.1836,-6.2187,-6.1914,-6.1992,-6.2695,-6.2109,-6.1875,-6.2187,-6.1875,-6.1523,-6.1172,-5.9531,-5.7305,0.0,0.0,-4.7305,-4.3711,-4.2305,-4.2422,0.0,0.0,-4.8008,-5.0508,-5.2226,-5.3867,-5.5351,-5.5859,-5.6289,-5.6601,-5.6601,-5.6601,-5.6562,-5.6211,-5.6094,-5.5937,-5.5078,-5.4219,-5.332,-5.2461,-5.2187,-5.207,-5.1562,-5.1406,-5.1406,-5.1406,-5.1406,-5.1406,-5.1406,-5.0462,-4.9387,-4.8919,-4.7789,-4.6725,-4.6219,-4.6098,-4.5871,-4.5225,-4.4724,-4.4316,-4.3962,0.0,0.0,0.0,0.0,0.0,0.0,0.0,0.0,0.0,0.0,0.0,0.0,0.0,0.0,0.0,-3.0327,0.0,-3.6593,0.0,-4.1932,-4.3285,-4.4949,-4.5807,-4.5807,-4.5807,-4.5807,-4.5807,-4.5807,-4.5807,-4.5807,-4.5807,-4.5665,-4.5607,-4.7364,-4.7854,-4.7712,-4.9507,-5.0085,-4.9885,-4.9711,-4.9641,-4.9584,-6.0351,0.0,-6.0273,0.0,-6.1523,-6.1015,-6.3086,-6.3398,-6.3398,-6.3398,-6.2851,-6.2383,-6.2109,-6.1836,-6.1797,-6.207,-6.1836,-6.1914,-6.2422,-6.1992,-6.1797,-6.207,-6.1836,0.0,-6.1719,-6.0273,-5.8828,-5.7344,-5.3555,0.0,-4.8125,-4.6406,0.0,0.0,-4.8594,-5.0234,-5.2266,-5.375,-5.4883,-5.5742,-5.6367,-5.6601,-5.6601,-5.6601,-5.6601,-5.6601,-5.6601,-5.6601,-5.6523,-5.5898,-5.5273,-5.457,-5.3437,-5.2891,-5.2578,-5.1953,-5.1601,-5.1406,-5.1406,-5.1406,-5.1406,-5.1406,-5.0739,-4.9831,-4.901,-4.8133,-4.7211,-4.635,-4.6155,-4.6162,-4.6181,-4.5114,-4.444,-4.5118,0.0,0.0,0.0,0.0,0.0,0.0,0.0,-3.2256,0.0,0.0,0.0,0.0,0.0,0.0,0.0,0.0,0.0,0.0,0.0,0.0,-4.3285,-4.4949,-4.5807,-4.5807,-4.5807,-4.5807,-4.5807,-4.5807,-4.5807,-4.5807,-4.5807,-4.5858,-4.6103,-4.7728,-4.8347,-4.837,-4.9931,-5.0385,-5.0183,-5.0025,-4.9962,-4.9923,-6.0234,-6.039,-6.0937,-6.2695,-6.2969,-6.3242,-6.414,-6.4297,-6.4297,-6.4297,-6.4297,-6.3945,-6.3086,-6.2226,-6.2031,-6.289,-6.2187,-6.2422,-6.414,-6.2656,-6.207,0.0,0.0,-6.1719,-6.1719,-6.0859,-6.0,-5.918,0.0,0.0,-5.2578,0.0,-5.0117,-5.0234,-5.1875,-5.3125,-5.4023,-5.4922,-5.5781,-5.6601,-5.6601,-5.6601,-5.6601,-5.6601,-5.6601,-5.6601,-5.6601,-5.6601,-5.6601,-5.6601,-5.6562,-5.6289,-5.4531,-5.3398,-5.2695,-5.2695,-5.207,-5.1406,-5.1406,-5.1406,-5.1406,-5.1406,-5.0781,-4.9961,-4.9101,-4.8203,-4.7344,-4.6484,-4.6289,-4.6288,-4.6228,-4.6183,-4.5567,-4.3743,0.0,0.0,0.0,0.0,0.0,0.0,-3.388,-3.1792,-3.1792,0.0,0.0,0.0,0.0,0.0,0.0,0.0,0.0,-3.8019,-4.0655,0.0,-4.3285,-4.4949,-4.5807,-4.5807,-4.5807,-4.5807,-4.5807,-4.5807,-4.5807,-4.5807,-4.5807,-4.6303,-4.7154,-4.8043,-4.8894,-4.9769,-5.0579,-5.0872,-5.0838,-5.0427,-5.0298,-5.0252,-6.3008,-6.3047,-6.3242,-6.3789,-6.3906,-6.3984,-6.4258,-6.4805,-6.5195,-6.5195,-6.5195,-6.5078,-6.4805,-6.3476,-6.2695,0.0,-6.2734,-6.2578,0.0,-6.2578,-6.2422,-6.2148,-6.2422,-6.2578,-6.2578,-6.2305,-6.1758,-6.0898,0.0,0.0,0.0,-5.4805,-5.4883,-5.5469,-5.6015,-5.6719,-5.7578,-5.7851,-5.8125,-5.8359,-5.8359,-5.8359,-5.832,-5.7695,-5.75,-5.7422,-5.6797,-5.6601,-5.6601,-5.6601,-5.6601,-5.6484,-5.5937,-5.5156,-5.4375,-5.375,-5.2969,-5.2305,-5.2305,-5.1836,-5.1406,-5.1406,-5.1211,-5.0664,-4.9219,-4.7773,-4.6641,-4.6367,-4.6289,-4.6289,-4.6287,-4.6237,-4.6019,-4.5404,-4.4226,0.0,0.0,0.0,0.0,0.0,0.0,-3.3576,0.0,-3.257,0.0,0.0,0.0,0.0,0.0,0.0,0.0,0.0,-4.0655,0.0,-4.3285,-4.4949,-4.5807,-4.5807,-4.5807,-4.5807,-4.5807,-4.5807,-4.5807,-4.5807,-4.5807,-4.631,-4.7154,-4.8043,-4.8879,-4.9699,-5.0579,-5.0863,-5.0821,-5.0654,-5.0567,-5.0527,-6.4297,-6.4297,-6.4414,-6.4726,-6.4805,-6.4883,-6.5234,-6.5742,-6.6094,-6.6094,-6.6094,-6.6094,-6.6094,-6.4805,0.0,-6.3047,-6.3008,-6.2617,-6.1758,-6.2226,-6.2265,-6.1719,-6.2226,-6.25,-6.25,-6.25,0.0,-6.1719,-6.0312,-5.8945,-5.7578,-5.7578,-5.7851,-5.8398,-5.8398,-5.8672,-5.9219,-5.9219,-5.9219,-5.9219,-5.9219,-5.9219,-5.914,-5.8594,-5.8203,-5.7812,-5.7265,-5.6875,-5.6601,-5.6601,-5.6601,-5.6601,-5.6601,-5.6211,-5.5625,-5.4726,-5.3867,-5.3125,-5.2773,-5.2305,-5.1797,-5.1484,-5.1406,-5.0976,-4.9297,-4.7812,-4.6719,-4.6367,-4.6289,-4.6289,-4.6289,-4.6286,-4.6237,-4.6186,-4.4652,-4.3444,-4.3413,0.0,0.0,0.0,0.0,0.0,0.0,-3.4969,-3.5002,0.0,0.0,0.0,0.0,0.0,0.0,-3.8025,-4.1777,-4.3943,-4.4253,-4.5265,-4.5807,-4.5807,-4.5807,-4.5807,-4.5807,-4.5807,-4.5807,-4.5807,-4.5807,-4.6464,-4.7618,-4.8198,-4.9073,-5.0132,-5.0695,-5.0863,-5.0838,-5.0747,-5.0729,-5.0701,-6.4492,-6.4492,-6.4726,0.0,-6.5703,0.0,-6.6797,-6.6914,-6.6914,-6.6914,-6.6914,-6.6914,-6.6914,-6.6172,-6.5,-6.332,0.0,0.0,0.0,-6.1797,-6.1758,-6.1719,-6.1758,-6.1797,-6.1797,-6.1797,-6.1758,-6.1719,-6.0898,-6.0117,-5.9375,-5.9375,-5.9375,-5.9375,-5.9375,-5.9375,-5.9375,-5.9375,-5.9375,-5.9375,-5.9375,-5.9375,-5.9375,-5.9297,-5.8789,-5.8086,-5.8008,-5.7422,-5.668,-5.668,-5.664,-5.6601,-5.6601,-5.6601,-5.6445,-5.5625,-5.4765,-5.3906,-5.3086,-5.2773,-5.25,-5.168,-5.1406,-5.0898,-4.9336,-4.8281,-4.7383,-4.6562,-4.6328,-4.6289,-4.6289,-4.6289,-4.6288,-4.6231,-4.4743,-4.3543,-4.345,0.0,0.0,0.0,0.0,0.0,-3.6129,-3.7483,-3.8367,0.0,0.0,0.0,0.0,0.0,-3.7986,-4.197,-4.3788,-4.5026,-4.5807,-4.5807,-4.5807,-4.5807,-4.5807,-4.5807,-4.5807,-4.5807,-4.5807,-4.5807,-4.5807,-4.6806,-4.8392,-4.8392,-4.9397,-5.0898,-5.0897,-5.0888,-5.088,-5.0838,-5.0821,-5.0812,0.0,0.0,-6.6367,-6.6562,-6.6601,-6.664,-6.6875,-6.6914,-6.6914,-6.6914,-6.6914,-6.6914,-6.6914,-6.6719,-6.6172,-6.5078,-6.4375,-6.3633,-6.2734,-6.2695,-6.2383,-6.1719,-6.2344,-6.2695,-6.2695,-6.2695,-6.2383,-6.1719,-6.1484,-6.1289,-6.1094,-6.1094,-6.1094,-6.1094,-6.1094,-6.1094,-6.1094,-6.1094,-6.1094,-6.1094,-6.1094,-6.1094,-6.1055,-6.0351,-6.0,-5.9726,-5.9101,-5.832,-5.7578,-5.7578,-5.7148,-5.6601,-5.6601,-5.6601,-5.6562,-5.6367,-5.5664,-5.4961,-5.4726,-5.3711,-5.2656,-5.2422,-5.1445,-5.0391,-4.9961,-4.8711,-4.7539,-4.7344,-4.6758,-4.6289,-4.6289,-4.6289,-4.6289,-4.6288,-4.4755,-4.3604,-4.3546,-4.1279,0.0,0.0,-3.9442,-3.9075,-3.9539,-3.9965,-3.992,0.0,0.0,0.0,0.0,-4.0616,-4.1274,-4.2937,-4.4639,-4.5613,-4.5807,-4.5807,-4.5807,-4.5807,-4.5807,-4.5807,-4.5807,-4.5807,-4.5807,-4.5807,-4.5807,-4.6806,-4.8392,-4.8392,-4.9397,-5.0898,-5.089,-5.089,-5.0882,-5.088,-5.0863,-5.0863,-6.6914,-6.6914,-6.6914,-6.6914,-6.6914,-6.6914,-6.6914,-6.6914,-6.6914,-6.6914,-6.6914,-6.6914,-6.6914,-6.6914,-6.6719,-6.625,-6.539,-6.4375,-6.3086,-6.3008,-6.2617,-6.1758,-6.2148,-6.2422,-6.2422,-6.2422,-6.2187,-6.1719,-6.1719,-6.1719,-6.1719,-6.1719,-6.1719,-6.1719,-6.1719,-6.1719,-6.1719,-6.1719,-6.1719,-6.1719,-6.1719,-6.1719,-6.164,-6.1172,-6.0742,-6.0351,-5.9922,-5.9219,-5.8476,-5.8476,-5.793,-5.7187,-5.7187,-5.6914,-5.6601,-5.6601,-5.625,-5.582,-5.539,-5.4609,-5.3711,-5.2891,-5.1719,-5.0664,-5.0273,-4.9453,-4.8555,-4.7773,-4.7226,-4.6758,-4.6367,-4.6289,-4.6172,-4.5781,-4.4568,-4.3623,-4.3612,-4.1986,0.0,-4.1927,-4.159,-4.1429,-4.1893,-4.228,-4.2164,-4.1313,-4.1938,0.0,-4.2512,-4.3285,-4.3788,-4.3904,-4.5142,-4.5807,-4.5807,-4.5807,-4.5807,-4.5807,-4.5807,-4.5807,-4.5807,-4.5807,-4.5807,-4.5807,-4.6232,-4.7154,-4.843,-4.8817,-4.9745,-5.0898,-5.0898,-5.0898,-5.0898,-5.0913,-5.0905,-5.0905,-6.6914,-6.6914,-6.6914,-6.6914,-6.6914,-6.6914,-6.6914,-6.6914,-6.6914,-6.6914,-6.6914,-6.6914,-6.6914,-6.6914,-6.6914,-6.6914,-6.6211,-6.5117,-6.3515,-6.3164,-6.2656,-6.1914,-6.1758,-6.1719,-6.1719,-6.1719,-6.1719,-6.1719,-6.1719,-6.1719,-6.1719,-6.1719,-6.1719,-6.1719,-6.1719,-6.1719,-6.1719,-6.1719,-6.1719,-6.1719,-6.1719,-6.1719,-6.1719,-6.1719,-6.125,-6.0586,-6.0586,-6.0078,-5.9375,-5.9375,-5.8828,-5.8086,-5.8086,-5.75,-5.6797,-5.6797,-5.6719,-5.6445,-5.5703,-5.5312,-5.4726,-5.3086,-5.2031,-5.1211,-5.0547,-5.0273,-4.9766,-4.8281,-4.7773,-4.7383,-4.6641,-4.6406,-4.6016,-4.5156,-4.4375,-4.3788,-4.3463,0.0,-4.2663,-4.3337,-4.3485,-4.355,-4.3705,-4.4266,-4.4323,-4.3711,-4.4871,-4.5374,-4.4794,-4.5413,-4.549,-4.4794,-4.5452,-4.5807,-4.5807,-4.5807,-4.5807,-4.5807,-4.5807,-4.5807,-4.5807,-4.5807,-4.5807,-4.5845,-4.6728,-4.7579,-4.8469,-4.9359,-5.0163,-5.0898,-5.0898,-5.0898,-5.0898,-5.0898,-5.0898,-5.0898,-6.6907,-6.6912,-6.6914,-6.6912,-6.6914,-6.6914,-6.6914,-6.6914,-6.6914,-6.6914,-6.6914,-6.6914,-6.6914,-6.6914,-6.6914,-6.6914,-6.6797,-6.6289,-6.5273,-6.3828,-6.293,-6.2812,-6.2109,-6.1719,-6.1719,-6.1719,-6.1719,-6.1719,-6.1719,-6.1719,-6.1719,-6.1719,-6.1719,-6.1719,-6.1719,-6.1719,-6.1719,-6.1719,-6.1719,-6.1719,-6.1719,-6.1719,-6.1719,-6.1719,-6.1601,-6.1484,-6.1484,-6.0937,-6.0195,-6.0195,-5.9687,-5.8984,-5.8984,-5.8398,-5.7695,-5.7695,-5.7187,-5.6562,-5.6445,-5.5312,-5.3945,-5.2969,-5.2031,-5.1367,-5.125,-5.0703,-5.0117,-4.9844,-4.8633,-4.7578,-4.7422,-4.6797,-4.6016,-4.5156,-4.4883,-4.4297,-4.2773,0.0,-4.3441,-4.3548,-4.4098,-4.4766,-4.5509,-4.4983,-4.4833,-4.5381,-4.5026,-4.5026,-4.5568,-4.5729,-4.5729,-4.5613,-4.5729,-4.5807,-4.5807,-4.5807,-4.5807,-4.5807,-4.5807,-4.5807,-4.5807,-4.5807,-4.5807,-4.5845,-4.6728,-4.7579,-4.8469,-4.9359,-5.0163,-5.0898,-5.0898,-5.0898,-5.0898,-5.0898,-5.0898,-5.0898,-6.6902,-6.6909,-6.6912,-6.6911,-6.6912,-6.6912,-6.6913,-6.6913,-6.6913,-6.6913,-6.6914,-6.6914,-6.6914,-6.6914,-6.6914,-6.6914,-6.6914,-6.6719,-6.6328,-6.5117,-6.3984,-6.3047,-6.2617,-6.2187,-6.1719,-6.1719,-6.1719,-6.1719,-6.1719,-6.1719,-6.1719,-6.1719,-6.1719,-6.1719,-6.1719,-6.1719,-6.1719,-6.1719,-6.1719,-6.1719,-6.1719,-6.1719,-6.1719,-6.1719,-6.1719,-6.1719,-6.1719,-6.1445,-6.1094,-6.1094,-6.0547,-5.9844,-5.9844,-5.9258,-5.8515,-5.8047,-5.7265,-5.6601,-5.6601,-5.5664,-5.4492,-5.3633,-5.2734,-5.1992,-5.1523,-5.1094,-5.0703,-5.0273,-4.957,-4.8711,-4.7773,-4.7266,-4.6562,-4.5234,-4.5,0.0,-4.3906,-4.4093,-4.4465,-4.4933,-4.5254,-4.5594,-4.5968,-4.5603,-4.5499,-4.5775,-4.5452,-4.5413,-4.5768,-4.5807,-4.5807,-4.5807,-4.5807,-4.5807,-4.5807,-4.5807,-4.5807,-4.5807,-4.5807,-4.5807,-4.5807,-4.631,-4.6503,-4.6581,-4.7927,-4.874,-4.9165,-5.0016,-5.055,-5.0898,-5.0898,-5.0898,-5.0898,-5.0898,-5.0898,-5.0898,-6.6857,-6.6904,-6.6908,-6.6869,-6.6908,-6.6908,-6.691,-6.691,-6.691,-6.6911,-6.6913,-6.6914,-6.6914,-6.6914,-6.6914,-6.6914,-6.6914,-6.6914,-6.6914,-6.6289,-6.5195,-6.3672,-6.3203,-6.2578,-6.1719,-6.1719,-6.1719,-6.1719,-6.1719,-6.1719,-6.1719,-6.1719,-6.1719,-6.1719,-6.1719,-6.1719,-6.1719,-6.1719,-6.1719,-6.1719,-6.1719,-6.1719,-6.1719,-6.1719,-6.1719,-6.1719,-6.1719,-6.1719,-6.1719,-6.1719,-6.125,-6.0703,-6.0703,-6.0156,-5.9336,-5.8672,-5.7734,-5.6875,-5.664,-5.5976,-5.5156,-5.4453,-5.3476,-5.2539,-5.1836,-5.1562,-5.1211,-5.0625,-5.0312,-4.9805,-4.8437,-4.7851,-4.7109,-4.5547,0.0,-4.5156,-4.4766,-4.4995,-4.5413,-4.5881,-4.6043,-4.6102,-4.6039,-4.6032,-4.5964,-4.5861,-4.5827,-4.5807,-4.5807,-4.5807,-4.5807,-4.5807,-4.5807,-4.5807,-4.5807,-4.5807,-4.5807,-4.5807,-4.5807,-4.5923,-4.6116,-4.6806,-4.7192,-4.7502,-4.9049,-4.9707,-4.9745,-5.055,-5.0898,-5.0898,-5.0898,-5.0898,-5.0898,-5.0898,-5.0898,-5.0898,-6.68,-6.6854,-6.6862,-6.6815,-6.686,-6.6904,-6.6904,-6.6904,-6.6906,-6.6911,-6.6911,-6.6912,-6.6914,-6.6914,-6.6914,-6.6914,-6.6914,-6.6914,-6.6914,-6.6836,-6.6406,-6.5469,-6.3867,-6.2578,-6.1719,-6.1719,-6.1719,-6.1719,-6.1719,-6.1719,-6.1719,-6.1719,-6.1719,-6.1719,-6.1719,-6.1719,-6.1719,-6.1719,-6.1719,-6.1719,-6.1719,-6.1719,-6.1719,-6.1719,-6.1719,-6.1719,-6.1719,-6.1719,-6.1719,-6.1719,-6.164,-6.1601,-6.1601,-6.1015,-6.0312,-6.0234,-5.9062,-5.7617,-5.6836,-5.5976,-5.5273,-5.5234,-5.3945,-5.2695,-5.2617,-5.1992,-5.1367,-5.1328,-5.0703,-5.0156,-5.0039,-4.8672,-4.7305,-4.6367,0.0,0.0,-4.4023,-4.5195,-4.5937,-4.5195,-4.573,-4.6177,-4.6175,-4.6068,-4.5997,-4.5986,-4.588,-4.5807,-4.5807,-4.5807,-4.5807,-4.5807,-4.5807,-4.5807,-4.5807,-4.5807,-4.5807,-4.5807,-4.5807,-4.6232,-4.6999,-4.7076,-4.754,-4.8353,-4.9281,-4.9707,-4.9745,-5.055,-5.0898,-5.0898,-5.0898,-5.0898,-5.0898,-5.0898,-5.0898,-5.0898,-6.6798,-6.6805,-6.6848,-6.6811,-6.6811,-6.685,-6.6856,-6.6856,-6.6857,-6.6821,-6.6866,-6.6907,-6.691,-6.691,-6.6911,-6.6913,-6.6913,-6.6913,-6.6914,-6.6914,-6.6523,-6.5625,-6.4453,-6.3398,-6.2539,-6.25,-6.2226,-6.1719,-6.1719,-6.1719,-6.1719,-6.1719,-6.1719,-6.1719,-6.1719,-6.1719,-6.1719,-6.1719,-6.1719,-6.1719,-6.1719,-6.1719,-6.1719,-6.1719,-6.1719,-6.1719,-6.1719,-6.1719,-6.1719,-6.1719,-6.1719,-6.1719,-6.1719,-6.1484,-6.1094,-6.0547,-5.9219,-5.7812,-5.75,-5.6758,-5.5976,-5.543,-5.4805,-5.4023,-5.2969,-5.2422,-5.2031,-5.1523,-5.1172,-5.0781,-5.0273,-4.9648,-4.875,-4.7344,0.0,-4.668,-4.5469,-4.5898,-4.6172,-4.5859,-4.6092,-4.6242,-4.6186,-4.6153,-4.6109,-4.6056,-4.6022,-4.5968,-4.5935,-4.5854,-4.5807,-4.5807,-4.5807,-4.5807,-4.5807,-4.5807,-4.5807,-4.5807,-4.6348,-4.6767,-4.7154,-4.8237,-4.8894,-4.9243,-5.0094,-5.0434,-5.0473,-5.0782,-5.0898,-5.0898,-5.0898,-5.0898,-5.0898,-5.0898,-5.0898,-5.0898,-6.6727,-6.6727,-6.673,-6.6739,-6.6751,-6.68,-6.6807,-6.6807,-6.6809,-6.6811,-6.6857,-6.6862,-6.6902,-6.6904,-6.6905,-6.6909,-6.6909,-6.6911,-6.6913,-6.6913,-6.6523,-6.5625,-6.5039,-6.418,-6.3008,-6.3008,-6.2578,-6.1719,-6.1719,-6.1719,-6.1719,-6.1719,-6.1719,-6.1719,-6.1719,-6.1719,-6.1719,-6.1719,-6.1719,-6.1719,-6.1719,-6.1719,-6.1719,-6.1719,-6.1719,-6.1719,-6.1719,-6.1719,-6.1719,-6.1719,-6.1719,-6.1719,-6.1719,-6.1719,-6.1523,-6.0664,-5.9609,-5.8555,-5.8047,-5.7461,-5.6797,-5.5937,-5.5508,-5.5,-5.3789,-5.3086,-5.2539,-5.1914,-5.1601,-5.1211,-5.0664,-5.0351,-4.9805,-4.8594,-4.8203,-4.7812,-4.7187,-4.7109,-4.6992,-4.6758,-4.6719,-4.6561,-4.6278,-4.6228,-4.6171,-4.6137,-4.6112,-4.6076,-4.6012,-4.5942,-4.5879,-4.5874,-4.5874,-4.5854,-4.5807,-4.5807,-4.5923,-4.6232,-4.6806,-4.7386,-4.7966,-4.9165,-4.9861,-5.0132,-5.0666,-5.0898,-5.0898,-5.0898,-5.0898,-5.0898,-5.0898,-5.0898,-5.0898,-5.0898,-5.0898,-5.0898,-6.659,-6.659,-6.659,-6.659,-6.6709,-6.6795,-6.6795,-6.6795,-6.68,-6.6811,-6.6811,-6.6815,-6.6902,-6.6902,-6.6902,-6.6902,-6.6902,-6.6904,-6.6904,-6.6909,-6.6522,-6.5664,-6.5625,-6.4805,-6.3047,-6.3008,-6.2578,-6.1719,-6.1719,-6.1719,-6.1719,-6.1719,-6.1719,-6.1719,-6.1719,-6.1719,-6.1719,-6.1719,-6.1719,-6.1719,-6.1719,-6.1719,-6.1719,-6.1719,-6.1719,-6.1719,-6.1719,-6.1719,-6.1719,-6.1719,-6.1719,-6.1719,-6.1719,-6.1719,-6.1523,-6.0664,-6.039,-6.0039,-5.8359,-5.789,-5.7695,-5.6836,-5.5937,-5.5312,-5.5312,-5.3945,-5.2734,-5.2695,-5.2031,-5.1406,-5.1406,-5.0742,-5.0195,-5.0195,-4.9453,-4.8906,-4.8906,-4.8906,-4.8594,-4.7695,-4.7617,-4.7266,-4.6406,-4.6279,-4.6223,-4.6223,-4.6178,-4.6102,-4.6102,-4.6141,-4.6103,-4.6007,-4.6002,-4.5947,-4.5807,-4.5807,-4.6232,-4.7115,-4.7115,-4.8043,-4.9707,-4.9707,-5.0132,-5.0898,-5.0898,-5.0898,-5.0898,-5.0898,-5.0898,-5.0898,-5.0898,-5.0898,-5.0898,-5.0898,-5.0898,-5.0898,-6.6379,-6.6379,-6.6379,-6.6379,-6.6419,-6.6513,-6.6629,-6.6677,-6.6701,-6.6795,-6.68,-6.6802,-6.6846,-6.6846,-6.6848,-6.6815,-6.6817,-6.6857,-6.6902,-6.6905,-6.679,-6.6518,-6.6523,-6.5976,-6.4844,-6.4805,-6.4101,-6.2617,-6.2617,-6.2305,-6.1719,-6.1719,-6.1719,-6.1719,-6.1719,-6.1719,-6.1719,-6.1719,-6.1719,-6.1719,-6.1719,-6.1719,-6.1719,-6.1719,-6.1719,-6.1719,-6.1719,-6.1719,-6.1719,-6.1719,-6.1719,-6.1719,-6.1719,-6.1719,-6.164,-6.1406,-6.0898,-6.0273,-5.9805,-5.8789,-5.7695,-5.6836,-5.6406,-5.6055,-5.543,-5.4883,-5.4336,-5.375,-5.293,-5.2305,-5.2305,-5.1601,-5.0859,-5.0273,-4.9961,-4.9609,-4.8984,-4.8906,-4.8789,-4.8555,-4.8516,-4.8398,-4.8164,-4.8124,-4.8084,-4.8084,-4.8024,-4.8001,-4.8001,-4.7927,-4.7852,-4.7829,-4.728,-4.7193,-4.7705,-4.7062,-4.6844,-4.7115,-4.8353,-4.9204,-4.9707,-5.0279,-5.0666,-5.0898,-5.0898,-5.0898,-5.0898,-5.0898,-5.0898,-5.0898,-5.0898,-5.0898,-5.0898,-5.0898,-5.0898,-5.0898,-6.6209,-6.6209,-6.6209,-6.6209,-6.6267,-6.6344,-6.6471,-6.6483,-6.6513,-6.658,-6.6658,-6.6716,-6.6716,-6.6781,-6.68,-6.6805,-6.6807,-6.6809,-6.6854,-6.6857,-6.6859,-6.6859,-6.6909,-6.6483,-6.5624,-6.5585,-6.4922,-6.3515,-6.3164,-6.2734,-6.2226,-6.1875,-6.1719,-6.1719,-6.1719,-6.1719,-6.1719,-6.1719,-6.1719,-6.1719,-6.1719,-6.1719,-6.1719,-6.1719,-6.1719,-6.1718,-6.1719,-6.1719,-6.1718,-6.1719,-6.1719,-6.1719,-6.1719,-6.1719,-6.1719,-6.1719,-6.1328,-6.0859,-6.0508,-5.9648,-5.8594,-5.7422,-5.6875,-5.6445,-5.5937,-5.5547,-5.5156,-5.4609,-5.3555,-5.2695,-5.2695,-5.1992,-5.125,-5.0742,-5.0664,-5.0508,-4.9961,-4.9883,-4.9766,-4.9453,-4.9414,-4.9297,-4.8945,-4.8906,-4.8906,-4.8906,-4.8864,-4.8858,-4.8858,-4.8763,-4.8703,-4.8683,-4.8212,-4.8142,-4.8521,-4.8338,-4.8167,-4.8121,-4.9204,-4.9861,-5.0202,-5.0666,-5.0898,-5.0898,-5.0898,-5.0898,-5.0898,-5.0898,-5.0898,-5.0898,-5.0898,-5.0898,-5.0898,-5.0898,-5.0898,-5.0898,-6.6077,-6.6077,-6.6077,-6.6077,-6.6194,-6.6275,-6.6283,-6.6291,-6.6291,-6.6307,-6.6471,-6.6579,-6.659,-6.6709,-6.679,-6.6795,-6.6795,-6.6795,-6.6795,-6.6805,-6.6811,-6.6811,-6.6859,-6.6514,-6.5738,-6.57,-6.5271,-6.4414,-6.3631,-6.3201,-6.3086,-6.2226,-6.1836,-6.1797,-6.1719,-6.1719,-6.1719,-6.1719,-6.1719,-6.1719,-6.1719,-6.1719,-6.1719,-6.1719,-6.1718,-6.1717,-6.1718,-6.1718,-6.1717,-6.1718,-6.1719,-6.1719,-6.1719,-6.1719,-6.1719,-6.1719,-6.1719,-6.1523,-6.0742,-6.0469,-6.0039,-5.8515,-5.7422,-5.6719,-5.6601,-5.5976,-5.543,-5.543,-5.4101,-5.293,-5.293,-5.2148,-5.1523,-5.1523,-5.1445,-5.1406,-5.1406,-5.1406,-5.1133,-5.0391,-5.0312,-5.0,-4.9219,-4.9101,-4.9101,-4.9101,-4.9101,-4.9101,-4.9101,-4.9101,-4.91,-4.9041,-4.8963,-4.8905,-4.8851,-4.9546,-4.9839,-4.9729,-4.9807,-5.0179,-5.0898,-5.0898,-5.0898,-5.0898,-5.0898,-5.0898,-5.0898,-5.0898,-5.0898,-5.0898,-5.0898,-5.0898,-5.0898,-5.0898,-5.0898,-5.0898,-6.5946,-6.5946,-6.5946,-6.5946,-6.5955,-6.6008,-6.6109,-6.6138,-6.6194,-6.6291,-6.6344,-6.6445,-6.6585,-6.6615,-6.6697,-6.6792,-6.6795,-6.6795,-6.6795,-6.6798,-6.68,-6.68,-6.6811,-6.6738,-6.6545,-6.659,-6.6203,-6.5306,-6.5149,-6.4679,-6.4017,-6.3122,-6.2732,-6.2693,-6.1992,-6.1719,-6.1719,-6.1719,-6.1719,-6.1719,-6.1719,-6.1719,-6.1719,-6.1718,-6.1717,-6.1716,-6.1713,-6.1712,-6.1711,-6.1716,-6.1717,-6.1718,-6.1719,-6.1719,-6.1719,-6.1718,-6.1718,-6.164,-6.1483,-6.0937,-6.0312,-5.9961,-5.8711,-5.7422,-5.6758,-5.6445,-5.6328,-5.6328,-5.5469,-5.4726,-5.4726,-5.3476,-5.2422,-5.2422,-5.1836,-5.1406,-5.1406,-5.1406,-5.1328,-5.1172,-5.1133,-5.1055,-5.0898,-5.0859,-5.0859,-5.0859,-5.0859,-5.0859,-5.0859,-5.0859,-5.0859,-5.0858,-5.0233,-5.0148,-5.0698,-5.0228,-4.9889,-4.9801,-5.0461,-5.0829,-5.0898,-5.0898,-5.0898,-5.0898,-5.0898,-5.0898,-5.0898,-5.0898,-5.0898,-5.0898,-5.0898,-5.0898,-5.0898,-5.0898,-5.0898,-5.0898,-6.5897,-6.5897,-6.5897,-6.5897,-6.5897,-6.5909,-6.6001,-6.5986,-6.603,-6.6108,-6.6167,-6.6226,-6.6353,-6.6483,-6.6633,-6.6792,-6.6795,-6.6795,-6.6795,-6.6795,-6.6795,-6.6795,-6.6802,-6.6805,-6.6805,-6.6811,-6.6623,-6.6238,-6.5806,-6.5376,-6.4911,-6.4016,-6.3392,-6.2963,-6.2536,-6.2108,-6.1718,-6.1718,-6.1718,-6.1719,-6.1719,-6.1719,-6.1718,-6.1717,-6.1714,-6.171,-6.1709,-6.1709,-6.1709,-6.1712,-6.1713,-6.1714,-6.1716,-6.1716,-6.1716,-6.1714,-6.1715,-6.1716,-6.1714,-6.1365,-6.0937,-6.0506,-5.9726,-5.875,-5.75,-5.6914,-5.6601,-5.6601,-5.5898,-5.5312,-5.5312,-5.4219,-5.3164,-5.2773,-5.2305,-5.1875,-5.1445,-5.1406,-5.1406,-5.1406,-5.1406,-5.1406,-5.1406,-5.1406,-5.1406,-5.1406,-5.1406,-5.1406,-5.1406,-5.1406,-5.1406,-5.1406,-5.0976,-5.0976,-5.1358,-5.089,-5.0631,-5.0537,-5.0957,-5.1103,-5.1016,-5.1016,-5.0974,-5.0898,-5.0898,-5.0898,-5.0898,-5.0898,-5.0898,-5.0898,-5.0898,-5.0898,-5.0898,-5.0898,-5.0898,-5.0898,-6.5897,-6.5897,-6.5897,-6.5897,-6.5897,-6.5897,-6.5897,-6.5897,-6.5897,-6.5897,-6.6013,-6.6067,-6.6098,-6.6376,-6.661,-6.6736,-6.6781,-6.6784,-6.6795,-6.6795,-6.6795,-6.6795,-6.6795,-6.6795,-6.6795,-6.6795,-6.6846,-6.686,-6.6149,-6.5798,-6.5806,-6.4908,-6.4128,-6.3425,-6.3115,-6.2611,-6.1911,-6.1755,-6.1717,-6.1719,-6.1719,-6.1718,-6.1716,-6.1716,-6.171,-6.1699,-6.1704,-6.1705,-6.1705,-6.1707,-6.1707,-6.1708,-6.1708,-6.1709,-6.1708,-6.1708,-6.1708,-6.1708,-6.1708,-6.1712,-6.152,-6.0812,-6.0504,-6.0039,-5.8633,-5.7539,-5.6797,-5.664,-5.6015,-5.5508,-5.5508,-5.4805,-5.3984,-5.3242,-5.3008,-5.2617,-5.1758,-5.1601,-5.1562,-5.1406,-5.1406,-5.1406,-5.1406,-5.1406,-5.1406,-5.1406,-5.1406,-5.1406,-5.1406,-5.1406,-5.1406,-5.1406,-5.1406,-5.1406,-5.1406,-5.1406,-5.1365,-5.1306,-5.1266,-5.1191,-5.1114,-5.1114,-5.1043,-5.0944,-5.0944,-5.0929,-5.0898,-5.0898,-5.0898,-5.0898,-5.0898,-5.0898,-5.0898,-5.0898,-5.0898,-5.0898,-6.5897,-6.5897,-6.5897,-6.5897,-6.5897,-6.5897,-6.5897,-6.5897,-6.5897,-6.5897,-6.5935,-6.5967,-6.6088,-6.6226,-6.6406,-6.6605,-6.6615,-6.6689,-6.6792,-6.6795,-6.6795,-6.6795,-6.6795,-6.6795,-6.6795,-6.6795,-6.6798,-6.68,-6.6683,-6.6644,-6.6605,-6.5794,-6.5368,-6.5173,-6.3659,-6.292,-6.2765,-6.2023,-6.1713,-6.1717,-6.1717,-6.1717,-6.1716,-6.1712,-6.1705,-6.1697,-6.1688,-6.1686,-6.1686,-6.1696,-6.1699,-6.1701,-6.1707,-6.1709,-6.1708,-6.1702,-6.1704,-6.1708,-6.1701,-6.1705,-6.1671,-6.1553,-6.0968,-6.0345,-6.0115,-5.8867,-5.75,-5.6758,-5.6523,-5.6406,-5.6406,-5.5703,-5.5078,-5.4961,-5.4336,-5.3516,-5.2656,-5.2539,-5.2226,-5.1484,-5.1406,-5.1406,-5.1406,-5.1406,-5.1406,-5.1406,-5.1406,-5.1406,-5.1406,-5.1406,-5.1406,-5.1406,-5.1406,-5.1406,-5.1406,-5.1406,-5.1406,-5.1406,-5.1366,-5.1301,-5.1183,-5.1183,-5.1133,-5.1056,-5.1056,-5.1023,-5.0898,-5.0898,-5.0898,-5.0898,-5.0898,-5.0898,-5.0898,-5.0898,-5.0898,-5.0898,-6.5897,-6.5897,-6.5897,-6.5897,-6.5897,-6.5897,-6.5897,-6.5897,-6.5897,-6.5897,-6.5897,-6.5909,-6.5978,-6.6118,-6.6234,-6.6439,-6.6558,-6.659,-6.6535,-6.6716,-6.6781,-6.6701,-6.6778,-6.6795,-6.6795,-6.6795,-6.6795,-6.6795,-6.6795,-6.6795,-6.6795,-6.6449,-6.6021,-6.5553,-6.4818,-6.4197,-6.3655,-6.2796,-6.2449,-6.2377,-6.1909,-6.1711,-6.1708,-6.1705,-6.1697,-6.1688,-6.1681,-6.1718,-6.1681,-6.1686,-6.1688,-6.169,-6.1694,-6.1696,-6.1694,-6.169,-6.1692,-6.1694,-6.169,-6.1696,-6.1702,-6.1696,-6.1429,-6.1005,-6.0497,-5.9838,-5.8904,-5.7617,-5.6953,-5.6601,-5.6601,-5.6289,-5.5859,-5.539,-5.4961,-5.4414,-5.3555,-5.3008,-5.2383,-5.1484,-5.1406,-5.1406,-5.1406,-5.1406,-5.1406,-5.1406,-5.1406,-5.1406,-5.1406,-5.1406,-5.1406,-5.1406,-5.1406,-5.1406,-5.1406,-5.1406,-5.1406,-5.1406,-5.1406,-5.1359,-5.1263,-5.1263,-5.1225,-5.1176,-5.1176,-5.1114,-5.0991,-5.0991,-5.0981,-5.0898,-5.0898,-5.0898,-5.0898,-5.0898,-5.0898,-5.0898]},{"header":{"parameterUnit":"m.s-1","parameterCategory":1,"la1":30.6,"la2":28.766,"lo1":-90.7593,"lo2":-88.6598,"dy":0.0162,"dx":0.0183,"nx":116,"ny":114,"refTime":"2024-05-22T06:00:00:Z","depth":0,"parameterNumber":3,"parameterNumberName":"V-component_of_WINDS"},"data":[0.0,0.0,0.0,0.0,0.0,0.0,0.0,0.0,0.0,0.0,0.0,0.0,0.0,0.0,0.0,0.0,0.0,0.0,0.0,0.0,0.0,0.0,0.0,0.0,0.0,0.0,0.0,0.0,0.0,0.0,0.0,0.0,0.0,0.0,0.0,0.0,0.0,0.0,0.0,0.0,0.0,0.0,0.0,0.0,0.0,0.0,0.0,0.0,0.0,0.0,0.0,0.0,0.0,0.0,0.0,0.0,0.0,0.0,0.0,0.0,0.0,0.0,0.0,0.0,0.0,0.0,0.0,0.0,0.0,0.0,0.0,0.0,0.0,0.0,0.0,0.0,0.0,0.0,0.0,0.0,0.0,0.0,0.0,0.0,0.0,0.0,0.0,0.0,0.0,0.0,0.0,0.0,0.0,0.0,0.0,0.0,0.0,0.0,0.0,0.0,0.0,0.0,0.0,0.0,0.0,0.0,0.0,0.0,0.0,0.0,0.0,0.0,0.0,0.0,0.0,0.0,0.0,0.0,0.0,0.0,0.0,0.0,0.0,0.0,0.0,0.0,0.0,0.0,0.0,0.0,0.0,0.0,0.0,0.0,0.0,0.0,0.0,0.0,0.0,0.0,0.0,0.0,0.0,0.0,0.0,0.0,0.0,0.0,0.0,0.0,0.0,0.0,0.0,0.0,0.0,0.0,0.0,0.0,0.0,0.0,0.0,0.0,0.0,0.0,0.0,0.0,0.0,0.0,0.0,0.0,0.0,0.0,0.0,0.0,0.0,0.0,0.0,0.0,0.0,0.0,0.0,0.0,0.0,0.0,0.0,0.0,0.0,0.0,0.0,0.0,0.0,0.0,0.0,0.0,0.0,0.0,0.0,0.0,0.0,0.0,0.0,0.0,0.0,0.0,0.0,0.0,0.0,0.0,0.0,0.0,0.0,0.0,0.0,0.0,0.0,0.0,0.0,0.0,0.0,0.0,0.0,0.0,0.0,0.0,0.0,0.0,0.0,0.0,0.0,0.0,0.0,0.0,0.0,0.0,0.0,0.0,0.0,0.0,0.0,0.0,0.0,0.0,0.0,0.0,0.0,0.0,0.0,0.0,0.0,0.0,0.0,0.0,0.0,0.0,0.0,0.0,0.0,0.0,0.0,0.0,0.0,0.0,0.0,0.0,0.0,0.0,0.0,0.0,0.0,0.0,0.0,0.0,0.0,0.0,0.0,0.0,0.0,0.0,0.0,0.0,0.0,0.0,0.0,0.0,0.0,0.0,0.0,0.0,0.0,0.0,0.0,0.0,0.0,0.0,0.0,0.0,0.0,0.0,0.0,0.0,0.0,0.0,0.0,0.0,0.0,0.0,0.0,0.0,0.0,0.0,0.0,0.0,0.0,0.0,0.0,0.0,0.0,0.0,0.0,0.0,0.0,0.0,0.0,0.0,0.0,0.0,0.0,0.0,0.0,0.0,0.0,0.0,0.0,0.0,0.0,0.0,0.0,0.0,0.0,0.0,0.0,0.0,0.0,0.0,0.0,0.0,0.0,0.0,0.0,0.0,0.0,0.0,0.0,0.0,0.0,0.0,0.0,0.0,0.0,0.0,0.0,0.0,0.0,0.0,0.0,0.0,0.0,0.0,0.0,0.0,0.0,0.0,0.0,0.0,0.0,0.0,0.0,0.0,0.0,0.0,0.0,0.0,0.0,0.0,0.0,0.0,0.0,0.0,0.0,0.0,0.0,0.0,0.0,0.0,0.0,0.0,0.0,0.0,0.0,0.0,0.0,0.0,0.0,0.0,0.0,0.0,0.0,0.0,0.0,0.0,0.0,0.0,0.0,0.0,0.0,0.0,0.0,0.0,0.0,0.0,0.0,0.0,0.0,0.0,0.0,0.0,0.0,0.0,0.0,0.0,0.0,0.0,0.0,0.0,0.0,0.0,0.0,0.0,0.0,0.0,0.0,0.0,0.0,0.0,0.0,0.0,0.0,0.0,0.0,0.0,0.0,0.0,0.0,0.0,0.0,0.0,0.0,0.0,0.0,0.0,0.0,0.0,0.0,0.0,0.0,0.0,0.0,0.0,0.0,0.0,0.0,0.0,0.0,0.0,0.0,0.0,0.0,0.0,0.0,0.0,0.0,0.0,0.0,0.0,0.0,0.0,0.0,0.0,0.0,0.0,0.0,0.0,0.0,0.0,0.0,0.0,0.0,0.0,0.0,0.0,0.0,0.0,0.0,0.0,0.0,0.0,0.0,0.0,0.0,0.0,0.0,0.0,0.0,0.0,0.0,0.0,0.0,0.0,0.0,0.0,0.0,0.0,0.0,0.0,0.0,0.0,0.0,0.0,0.0,0.0,0.0,0.0,0.0,0.0,0.0,0.0,0.0,0.0,0.0,0.0,0.0,0.0,0.0,0.0,0.0,0.0,0.0,0.0,0.0,0.0,0.0,0.0,0.0,0.0,0.0,0.0,0.0,0.0,0.0,0.0,0.0,0.0,0.0,0.0,0.0,0.0,0.0,0.0,0.0,0.0,0.0,0.0,0.0,0.0,0.0,0.0,0.0,0.0,0.0,0.0,0.0,0.0,0.0,0.0,0.0,0.0,0.0,0.0,0.0,0.0,0.0,0.0,0.0,0.0,0.0,0.0,0.0,0.0,0.0,0.0,0.0,0.0,0.0,0.0,0.0,0.0,0.0,0.0,0.0,0.0,0.0,0.0,0.0,0.0,0.0,0.0,0.0,0.0,0.0,0.0,0.0,0.0,0.0,0.0,0.0,0.0,0.0,0.0,0.0,0.0,0.0,0.0,0.0,0.0,0.0,0.0,0.0,0.0,0.0,0.0,0.0,0.0,0.0,0.0,0.0,0.0,0.0,0.0,0.0,0.0,0.0,0.0,0.0,0.0,0.0,0.0,0.0,0.0,0.0,0.0,0.0,0.0,0.0,0.0,0.0,0.0,0.0,0.0,0.0,0.0,0.0,0.0,0.0,0.0,0.0,0.0,0.0,0.0,0.0,0.0,0.0,0.0,0.0,0.0,0.0,0.0,0.0,0.0,0.0,0.0,0.0,0.0,0.0,0.0,0.0,0.0,0.0,0.0,0.0,0.0,0.0,0.0,0.0,0.0,0.0,0.0,0.0,0.0,0.0,0.0,0.0,0.0,0.0,0.0,0.0,0.0,0.0,0.0,0.0,0.0,0.0,0.0,0.0,0.0,0.0,0.0,0.0,0.0,0.0,0.0,0.0,0.0,0.0,0.0,0.0,0.0,0.0,0.0,0.0,0.0,0.0,0.0,0.0,0.0,0.0,0.0,0.0,0.0,0.0,0.0,0.0,0.0,0.0,0.0,0.0,0.0,0.0,0.0,0.0,0.0,0.0,0.0,0.0,0.0,0.0,0.0,0.0,0.0,0.0,0.0,0.0,0.0,0.0,0.0,0.0,0.0,0.0,0.0,0.0,0.0,0.0,0.0,0.0,0.0,0.0,0.0,0.0,0.0,0.0,0.0,0.0,0.0,0.0,0.0,0.0,0.0,0.0,0.0,0.0,0.0,0.0,0.0,0.0,0.0,0.0,0.0,0.0,0.0,0.0,0.0,0.0,0.0,0.0,0.0,0.0,0.0,0.0,0.0,0.0,0.0,0.0,0.0,0.0,0.0,0.0,0.0,0.0,0.0,0.0,0.0,0.0,0.0,0.0,0.0,0.0,0.0,0.0,0.0,0.0,0.0,0.0,0.0,0.0,0.0,0.0,0.0,0.0,0.0,0.0,0.0,0.0,0.0,0.0,0.0,0.0,0.0,0.0,0.0,0.0,0.0,0.0,0.0,0.0,0.0,0.0,0.0,0.0,0.0,0.0,0.0,0.0,0.0,0.0,0.0,0.0,0.0,0.0,0.0,0.0,0.0,0.0,0.0,0.0,0.0,0.0,0.0,0.0,0.0,0.0,0.0,0.0,0.0,0.0,0.0,0.0,0.0,0.0,0.0,0.0,0.0,0.0,0.0,0.0,0.0,0.0,0.0,0.0,0.0,0.0,0.0,0.0,0.0,0.0,0.0,0.0,0.0,0.0,0.0,0.0,0.0,0.0,0.0,0.0,0.0,0.0,0.0,0.0,0.0,0.0,0.0,0.0,0.0,0.0,0.0,0.0,0.0,0.0,0.0,0.0,0.0,0.0,0.0,0.0,0.0,0.0,0.0,0.0,0.0,0.0,0.0,0.0,0.0,0.0,0.0,0.0,0.0,0.0,0.0,0.0,0.0,0.0,0.0,0.0,0.0,0.0,0.0,0.0,0.0,0.0,0.0,0.0,0.0,0.0,0.0,0.0,0.0,0.0,0.0,0.0,0.0,0.0,0.0,0.0,0.0,0.0,0.0,0.0,0.0,0.0,0.0,0.0,0.0,0.0,0.0,0.0,0.0,0.0,0.0,0.0,0.0,0.0,0.0,0.0,0.0,0.0,0.0,0.0,0.0,0.0,0.0,0.0,0.0,0.0,0.0,0.0,0.0,0.0,0.0,0.0,0.0,0.0,0.0,0.0,0.0,0.0,0.0,0.0,0.0,0.0,0.0,0.0,0.0,0.0,0.0,0.0,0.0,0.0,0.0,0.0,0.0,0.0,0.0,0.0,0.0,0.0,0.0,0.0,0.0,0.0,0.0,0.0,0.0,0.0,0.0,0.0,0.0,0.0,0.0,0.0,0.0,0.0,0.0,0.0,0.0,0.0,0.0,0.0,0.0,0.0,0.0,0.0,0.0,0.0,0.0,0.0,0.0,0.0,0.0,0.0,0.0,0.0,0.0,0.0,0.0,0.0,0.0,0.0,0.0,0.0,0.0,0.0,0.0,0.0,0.0,0.0,0.0,0.0,0.0,0.0,0.0,0.0,0.0,0.0,0.0,0.0,0.0,0.0,0.0,0.0,0.0,0.0,0.0,0.0,0.0,0.0,0.0,0.0,0.0,0.0,0.0,0.0,0.0,0.0,0.0,0.0,0.0,0.0,0.0,0.0,0.0,0.0,0.0,0.0,0.0,0.0,0.0,0.0,0.0,0.0,0.0,0.0,0.0,0.0,0.0,0.0,0.0,0.0,0.0,0.0,0.0,0.0,0.0,0.0,0.0,0.0,0.0,0.0,0.0,0.0,0.0,0.0,0.0,0.0,0.0,0.0,0.0,0.0,0.0,0.0,0.0,0.0,0.0,0.0,0.0,0.0,0.0,0.0,0.0,0.0,0.0,0.0,0.0,0.0,0.0,0.0,0.0,0.0,0.0,0.0,0.0,0.0,0.0,0.0,0.0,0.0,0.0,0.0,0.0,0.0,0.0,0.0,0.0,0.0,0.0,0.0,0.0,0.0,0.0,0.0,0.0,0.0,0.0,0.0,0.0,0.0,0.0,0.0,0.0,0.0,0.0,0.0,0.0,0.0,0.0,0.0,0.0,0.0,0.0,0.0,0.0,0.0,0.0,0.0,0.0,0.0,0.0,0.0,0.0,0.0,0.0,0.0,0.0,0.0,0.0,0.0,0.0,0.0,0.0,0.0,0.0,0.0,0.0,0.0,0.0,0.0,0.0,0.0,0.0,0.0,0.0,0.0,0.0,0.0,0.0,0.0,0.0,0.0,0.0,0.0,0.0,0.0,0.0,0.0,0.0,0.0,0.0,0.0,0.0,0.0,0.0,0.0,0.0,0.0,0.0,0.0,0.0,0.0,0.0,0.0,0.0,0.0,0.0,0.0,0.0,0.0,0.0,0.0,0.0,0.0,0.0,0.0,0.0,0.0,0.0,0.0,0.0,0.0,0.0,0.0,0.0,0.0,0.0,0.0,0.0,0.0,0.0,0.0,0.0,0.0,0.0,0.0,0.0,0.0,0.0,0.0,0.0,0.0,0.0,0.0,0.0,0.0,0.0,0.0,0.0,0.0,0.0,0.0,0.0,0.0,0.0,0.0,0.0,0.0,0.0,0.0,0.0,0.0,0.0,0.0,0.0,0.0,0.0,0.0,0.0,0.0,0.0,0.0,0.0,0.0,0.0,0.0,0.0,0.0,0.0,0.0,0.0,0.0,0.0,0.0,0.0,0.0,0.0,0.0,0.0,0.0,0.0,0.0,0.0,0.0,0.0,-1.5625,0.0,0.0,0.0,0.0,0.0,0.0,0.0,0.0,0.0,0.0,0.0,0.0,0.0,0.0,0.0,0.0,0.0,0.0,0.0,0.0,0.0,0.0,0.0,0.0,0.0,-0.0018,-0.0094,-0.0584,-0.1161,-0.1762,0.0,0.0,0.0,0.0,0.0,-0.3011,-0.2939,-0.3043,-0.3344,-0.3412,-0.3607,-0.3971,-0.3964,-0.3728,-0.3337,0.0,0.0,0.0,0.0,0.0,0.0,0.0,0.0,0.0,0.0,0.0,0.0,0.0,0.0,0.0,0.0,0.0,0.0,0.0,0.0,0.0,0.0,0.0,0.0,0.0,0.0,0.0,0.0,0.0,0.0,0.0,0.0,0.0,0.0,0.0,0.0,0.0,0.0,0.0,0.0,0.0,0.0,0.0,0.0,0.0,0.0,0.0,0.0,0.0,0.0,0.0,0.0,0.0,0.0,0.0,0.0,0.0,0.0,0.0,0.0,0.0,0.0,0.0,0.0,0.0,0.0,0.0,0.0,0.0,0.0,0.0,-1.689,0.0,0.0,0.0,0.0,0.0,0.0,0.0,0.0,0.0,0.0,0.0,0.0,0.0,0.0,0.0,0.0,0.0,0.0,0.0,0.0,0.0,0.0,0.0,0.0,-0.0097,-0.0345,-0.0783,-0.136,-0.2075,-0.2458,0.0,0.0,0.0,-0.3048,-0.3016,-0.303,-0.3233,-0.3679,-0.3907,-0.4307,-0.485,-0.4999,-0.468,-0.3986,-0.3829,0.0,0.0,0.0,0.0,0.0,0.0,0.0,0.0,0.0,0.0,0.0,0.0,0.0,0.0,0.0,0.0,0.0,0.0,0.0,0.0,0.0,0.0,0.0,0.0,0.0,0.0,0.0,0.0,0.0,0.0,0.0,0.0,0.0,0.0,0.0,0.0,0.0,0.0,0.0,0.0,0.0,0.0,0.0,0.0,0.0,0.0,0.0,0.0,0.0,0.0,0.0,0.0,0.0,0.0,0.0,0.0,0.0,0.0,0.0,0.0,0.0,0.0,0.0,-2.1108,-2.164,-2.2153,-2.2181,-2.24,-2.263,-2.0301,-1.9619,-2.0058,-1.8173,0.0,0.0,0.0,0.0,0.0,0.0,0.0,0.0,0.0,0.0,0.0,0.0,0.0,0.0,0.0,0.0,0.0,0.0,0.0,0.0,0.0,0.0,-0.0267,-0.0927,-0.1419,-0.1937,-0.2572,-0.303,0.0,-0.3378,-0.335,-0.3409,-0.3499,-0.3499,-0.364,-0.3937,-0.4597,-0.5128,-0.5474,-0.5616,-0.5623,-0.5474,-0.4723,-0.4484,-0.4631,0.0,0.0,0.0,0.0,0.0,0.0,0.0,0.0,0.0,0.0,0.0,0.0,0.0,0.0,0.0,0.0,0.0,0.0,0.0,0.0,0.0,0.0,0.0,0.0,0.0,0.0,0.0,0.0,0.0,0.0,0.0,0.0,0.0,0.0,0.0,0.0,0.0,0.0,0.0,0.0,0.0,-1.1776,-1.2079,0.0,0.0,0.0,0.0,0.0,0.0,0.0,0.0,0.0,0.0,0.0,0.0,0.0,-1.9751,-2.1119,-2.2236,-2.2858,-2.3041,-2.4207,-2.4409,-2.3889,-2.4207,-2.4409,-2.4427,-2.406,0.0,-2.1357,-2.004,0.0,0.0,0.0,0.0,0.0,0.0,0.0,0.0,0.0,0.0,0.0,0.0,0.0,0.0,0.0,0.0,0.0,0.0,0.0,0.0,0.0,-0.0366,-0.078,-0.1189,-0.2055,-0.2661,-0.2867,-0.3341,-0.355,-0.3412,-0.3324,-0.3392,-0.3589,-0.3668,-0.4061,-0.4775,-0.5521,-0.5956,-0.6129,-0.6234,-0.6308,-0.6288,-0.5842,-0.5386,-0.4968,-0.4443,0.0,0.0,0.0,0.0,0.0,0.0,0.0,0.0,0.0,0.0,0.0,0.0,0.0,0.0,0.0,0.0,0.0,0.0,0.0,0.0,0.0,0.0,0.0,0.0,0.0,0.0,0.0,0.0,0.0,0.0,0.0,0.0,0.0,0.0,0.0,0.0,0.0,0.0,0.0,-1.0659,-1.254,-1.3378,-1.4417,-1.4938,0.0,0.0,0.0,0.0,0.0,0.0,0.0,0.0,0.0,-2.101,-2.1431,-2.2245,-2.3437,-2.3969,-2.4464,-2.4904,-2.5436,-2.569,-2.5527,-2.5711,-2.5803,-2.5803,-2.5803,-2.5161,-2.4005,-2.251,-2.1211,-2.0021,0.0,0.0,0.0,0.0,-1.8724,-1.8521,0.0,0.0,0.0,0.0,0.0,0.0,0.0,0.0,0.0,0.0,0.0,0.0,-0.0253,-0.08,-0.1337,-0.1788,-0.2663,-0.3231,-0.3297,-0.358,-0.3664,-0.3459,-0.3366,-0.3409,-0.3657,-0.3977,-0.4591,-0.5569,-0.6238,-0.6552,-0.6593,-0.6742,-0.681,-0.681,-0.6695,-0.6254,-0.5528,-0.5114,-0.464,-0.4184,0.0,0.0,0.0,0.0,0.0,0.0,0.0,0.0,0.0,0.0,0.0,0.0,0.0,0.0,0.0,0.0,0.0,0.0,0.0,0.0,0.0,0.0,0.0,0.0,0.0,0.0,0.0,0.0,0.0,0.0,0.0,0.0,0.0,0.0,0.0,0.0,0.0,-1.1722,-1.351,-1.4479,-1.5877,-1.6585,0.0,0.0,0.0,0.0,0.0,0.0,-2.0173,-2.1291,-2.2355,-2.3334,-2.3755,-2.4354,-2.5069,-2.5289,-2.5693,-2.6333,-2.6425,-2.6591,-2.6738,-2.6738,-2.6683,-2.6591,-2.6591,-2.6408,-2.6058,-2.4592,-2.3363,-2.2282,-2.1566,-2.0851,-2.0356,-2.1365,-2.1365,-2.1083,0.0,0.0,0.0,0.0,0.0,0.0,0.0,0.0,0.0,0.0,0.0,-0.0276,-0.097,-0.1183,-0.1821,-0.3168,-0.323,-0.3479,-0.4102,-0.3816,-0.3609,-0.3599,-0.3585,-0.3651,-0.3792,-0.4604,-0.5346,-0.5959,-0.6464,-0.6763,-0.6869,-0.7011,-0.7071,-0.7071,-0.7065,-0.6964,-0.6741,-0.5915,-0.5481,-0.5248,-0.4463,0.0,0.0,0.0,0.0,0.0,0.0,0.0,0.0,0.0,0.0,0.0,0.0,0.0,0.0,0.0,0.0,0.0,0.0,0.0,0.0,0.0,0.0,0.0,0.0,0.0,0.0,0.0,0.0,0.0,0.0,0.0,0.0,0.0,0.0,0.0,0.0,0.0,0.0,-1.5125,-1.7148,0.0,0.0,0.0,0.0,-1.9091,-2.0589,-2.1851,-2.2675,-2.3547,-2.4257,-2.4684,-2.5069,-2.5525,-2.5947,-2.6719,-2.7068,-2.7123,-2.7546,-2.7546,-2.7141,-2.7141,-2.694,-2.6591,-2.6591,-2.6573,-2.6481,-2.5637,-2.4845,-2.4036,-2.3565,-2.3096,-2.2767,-2.3206,-2.3352,-2.3389,0.0,0.0,0.0,0.0,0.0,0.0,0.0,0.0,0.0,0.0,-0.0345,-0.0751,-0.1175,-0.2006,-0.2808,-0.3477,-0.3934,-0.424,-0.444,-0.413,-0.4044,-0.4308,-0.4115,-0.4281,-0.4938,-0.5549,-0.6057,-0.6464,-0.6768,-0.697,-0.7024,-0.7071,-0.7098,-0.7098,-0.7098,-0.7065,-0.6984,-0.6417,-0.5945,-0.5467,-0.4975,-0.4401,0.0,0.0,0.0,0.0,0.0,0.0,0.0,0.0,0.0,0.0,0.0,0.0,0.0,0.0,0.0,0.0,0.0,0.0,0.0,0.0,0.0,0.0,0.0,0.0,0.0,0.0,0.0,0.0,0.0,0.0,0.0,0.0,0.0,0.0,0.0,0.0,0.0,-1.6714,-1.9054,0.0,-2.0021,-2.0461,-2.1163,-2.1925,-2.2813,-2.3657,-2.4464,-2.5065,-2.5672,-2.6298,-2.6463,-2.6774,-2.7179,-2.7473,-2.762,-2.762,-2.7748,-2.7748,-2.762,-2.762,-2.7528,-2.7343,-2.7343,-2.7343,-2.7306,-2.6756,-2.6113,-2.5359,-2.5161,-2.4849,-2.4537,-2.4666,-2.4721,-2.4739,0.0,0.0,0.0,0.0,0.0,0.0,0.0,0.0,0.0,0.0,-0.057,-0.1136,-0.16,-0.2387,-0.3183,-0.3932,-0.4159,-0.4405,-0.4666,-0.4384,-0.4308,-0.459,-0.4492,-0.484,-0.5718,-0.6163,-0.6518,-0.6776,-0.6977,-0.7098,-0.7098,-0.7098,-0.7098,-0.7098,-0.7098,-0.7098,-0.7078,-0.6824,-0.6383,-0.5861,-0.5555,-0.511,-0.4624,0.0,0.0,0.0,0.0,0.0,0.0,0.0,0.0,0.0,0.0,0.0,0.0,0.0,0.0,0.0,0.0,0.0,0.0,0.0,0.0,0.0,0.0,0.0,0.0,0.0,0.0,0.0,0.0,0.0,0.0,0.0,0.0,0.0,0.0,0.0,-1.6739,-1.8425,-2.0473,-2.1869,-2.2062,-2.2712,-2.3382,-2.3914,-2.4464,-2.5047,-2.5598,-2.6131,-2.6664,-2.716,-2.7306,-2.7508,-2.7822,-2.7911,-2.7967,-2.7985,-2.8113,-2.8113,-2.7967,-2.7967,-2.7967,-2.7967,-2.7877,-2.7895,-2.7948,-2.7601,-2.7105,-2.6591,-2.6333,-2.6004,-2.5784,-2.5784,-2.5784,-2.5784,0.0,0.0,0.0,0.0,0.0,0.0,0.0,0.0,0.0,0.0,-0.0657,-0.1439,-0.2225,-0.233,-0.2999,-0.4662,-0.3944,-0.3813,-0.4828,-0.4582,-0.4417,-0.4416,-0.475,-0.5278,-0.6006,-0.6342,-0.6634,-0.6896,-0.7031,-0.7098,-0.7105,-0.7105,-0.7105,-0.7112,-0.7112,-0.7112,-0.7112,-0.7105,-0.6898,-0.6511,-0.6173,-0.5874,-0.5542,0.0,0.0,0.0,0.0,0.0,0.0,0.0,0.0,0.0,0.0,0.0,0.0,0.0,0.0,0.0,0.0,0.0,0.0,0.0,0.0,0.0,0.0,0.0,0.0,0.0,0.0,0.0,0.0,0.0,0.0,0.0,0.0,0.0,-1.4522,-1.5732,-1.7488,-2.0104,-2.1367,-2.2258,-2.2946,-2.4115,-2.4831,-2.4831,-2.5617,-2.6058,-2.6058,-2.6829,-2.7215,-2.7233,-2.76,-2.7858,-2.7877,-2.8223,-2.8407,-2.8407,-2.8792,-2.8792,-2.8407,-2.8407,-2.8407,-2.8388,-2.7985,-2.804,-2.8388,-2.7967,-2.784,-2.7767,-2.6921,-2.6609,-2.6609,-2.6591,-2.6591,-2.6591,0.0,0.0,0.0,0.0,0.0,0.0,0.0,0.0,0.0,0.0,-0.102,-0.1924,-0.2384,-0.276,-0.3461,-0.4699,-0.3844,-0.3745,-0.4915,-0.4429,-0.4408,-0.5091,-0.5732,-0.6247,-0.6633,-0.6763,-0.6856,-0.7038,-0.7078,-0.7197,-0.7305,-0.7305,-0.7366,-0.7475,-0.7475,-0.7475,-0.7468,-0.7353,-0.7238,-0.7132,-0.6681,-0.6274,-0.5867,0.0,0.0,0.0,0.0,0.0,0.0,0.0,0.0,0.0,0.0,0.0,0.0,0.0,0.0,0.0,0.0,0.0,0.0,0.0,0.0,0.0,0.0,0.0,0.0,0.0,0.0,0.0,0.0,0.0,0.0,0.0,0.0,-1.3841,-1.4609,-1.7318,-1.9651,-2.0687,-2.2958,-2.4615,-2.5106,-2.5436,-2.5819,-2.6059,-2.6554,-2.6848,-2.6848,-2.7618,-2.8187,-2.848,-2.859,-2.8792,-2.9067,-2.8902,-2.8828,-2.8828,-2.8938,-2.892,-2.8828,-2.8828,-2.8828,-2.881,-2.87,-2.8718,-2.8792,-2.8388,-2.8223,-2.815,-2.7325,-2.7013,-2.6976,-2.6701,-2.6591,-2.6628,0.0,0.0,0.0,0.0,0.0,0.0,0.0,0.0,0.0,0.0,-0.0944,-0.1817,-0.2353,-0.2342,-0.2969,-0.4556,-0.3486,-0.3347,-0.473,-0.4672,-0.495,-0.5747,-0.6245,-0.6614,-0.6876,-0.6943,-0.7045,-0.7238,-0.7238,-0.7319,-0.7468,-0.7468,-0.7516,-0.7597,-0.7597,-0.7597,-0.7597,-0.7502,-0.7468,-0.7441,-0.7109,-0.679,-0.6411,-0.603,-0.58,-0.5644,-0.5284,-0.5176,-0.5176,-0.5026,0.0,0.0,0.0,0.0,0.0,0.0,0.0,0.0,0.0,0.0,0.0,0.0,0.0,0.0,0.0,0.0,0.0,0.0,0.0,0.0,0.0,0.0,0.0,0.0,-1.3922,-1.5068,-1.5835,-1.8216,-2.0542,-2.213,-2.3877,-2.5289,-2.6188,-2.6278,-2.6443,-2.6811,-2.705,-2.7251,-2.7416,-2.804,-2.8572,-2.8975,-2.8975,-2.9177,-2.9623,-2.9177,-2.8975,-2.8975,-2.8975,-2.8975,-2.8975,-2.8975,-2.9067,0.0,-2.9048,-2.9085,-2.9195,-2.881,-2.8645,0.0,0.0,0.0,0.0,0.0,-2.6591,-2.6628,0.0,0.0,0.0,0.0,0.0,0.0,0.0,0.0,0.0,0.0,-0.0639,-0.1415,-0.2185,-0.1576,-0.1992,-0.4161,-0.295,-0.2807,-0.4504,-0.5127,-0.5684,-0.6272,-0.647,-0.6661,-0.6903,-0.7051,-0.7238,-0.7419,-0.7433,-0.7475,-0.7624,-0.7624,-0.7631,-0.7651,-0.7651,-0.7651,-0.7651,-0.7631,-0.7624,-0.7611,-0.7441,-0.7278,-0.7038,-0.6539,-0.6443,-0.6484,-0.603,-0.5806,-0.5691,-0.559,0.0,0.0,0.0,0.0,0.0,0.0,0.0,0.0,0.0,0.0,0.0,0.0,0.0,0.0,0.0,0.0,0.0,0.0,0.0,0.0,0.0,0.0,0.0,0.0,-1.5166,-1.6471,-1.7543,-1.8745,-2.0649,-2.3644,-2.4193,-2.4963,-2.6445,-2.6591,-2.6756,-2.7141,-2.7215,-2.7416,-2.7877,0.0,0.0,0.0,0.0,-2.9214,-2.9623,-2.9177,-2.8975,-2.8975,-2.8975,-2.8975,-2.8975,-2.8975,-2.9177,-2.9489,-2.914,-2.9177,-2.947,-2.9122,-2.8975,-2.8902,-2.8132,-2.76,-2.7196,-2.6848,-2.6701,-2.6646,0.0,0.0,0.0,0.0,0.0,0.0,0.0,0.0,0.0,0.0,-0.0651,-0.1369,-0.2057,-0.1529,-0.1738,-0.3301,-0.2569,-0.2745,-0.4498,-0.5297,-0.5892,-0.6286,-0.6634,-0.6876,-0.7051,-0.7251,-0.7339,-0.7419,-0.7495,-0.7631,-0.7773,-0.7773,-0.7834,-0.7907,-0.7907,-0.7907,-0.7894,-0.7821,-0.7773,-0.7746,-0.7482,-0.7278,-0.7071,-0.6842,-0.6742,-0.6627,-0.6417,-0.6403,-0.6485,-0.6451,-0.6159,-0.5791,-0.5931,-0.5493,0.0,0.0,0.0,0.0,0.0,0.0,0.0,0.0,0.0,0.0,0.0,0.0,0.0,0.0,0.0,0.0,0.0,0.0,0.0,-1.4449,-1.5722,-1.7003,-1.8142,-1.9539,-2.1023,-2.2638,-2.3921,-2.5206,-2.6464,-2.6591,-2.6756,-2.7141,-2.7528,-2.7838,-2.826,-2.8957,-2.9379,-2.9452,-2.9452,-2.9489,-2.9562,-2.9177,-2.8975,-2.8975,0.0,0.0,-2.8975,-2.8975,-2.903,-2.9085,-2.9012,-2.903,-2.9085,-2.9012,-2.8975,-2.8938,-2.8462,-2.8022,-2.7693,-2.762,-2.7343,-2.7068,0.0319,0.0118,0.0,0.0,0.0,0.0,0.0,0.0,0.0,0.0,-0.0323,-0.0824,-0.1518,-0.0976,-0.1115,-0.2481,-0.2575,-0.3151,-0.461,-0.5379,-0.5968,-0.6344,-0.6753,-0.7024,-0.7092,-0.7292,-0.7453,-0.7489,-0.7631,-0.778,-0.7874,-0.7874,-0.7914,-0.7988,-0.7988,-0.7988,-0.7982,-0.7907,-0.7874,-0.7909,-0.7678,-0.7502,-0.7346,-0.7078,-0.6943,-0.6912,-0.6837,-0.681,-0.6817,-0.6817,-0.6566,-0.624,-0.6166,-0.6001,-0.5856,0.0,0.0,0.0,0.0,0.0,0.0,0.0,0.0,0.0,0.0,0.0,0.0,0.0,0.0,-1.1645,0.0,0.0,-1.4596,-1.5443,-1.6561,-1.7644,-1.8332,-1.9398,-2.0714,-2.2553,-2.3438,-2.4612,-2.6427,-2.6261,-2.6419,-2.7435,-2.7838,-2.826,-2.8663,-2.9067,-2.936,-2.9562,-2.9379,-2.9379,-2.9562,-2.9177,-2.8975,-2.8975,-2.8975,-2.8975,-2.8975,-2.8975,-2.8975,-2.8975,-2.8975,-2.8975,-2.8975,-2.8975,-2.8975,-2.8957,-2.8773,-2.8443,-2.8058,-2.7838,-2.7693,-2.7435,0.0673,0.0285,0.0,0.0,0.0,0.0,0.0,0.0,0.0,0.0,0.0,-0.0267,-0.0993,-0.0429,-0.0546,-0.189,-0.2561,-0.3454,-0.4723,-0.5377,-0.5906,-0.6385,-0.6807,-0.7054,-0.7098,-0.7319,-0.7475,-0.7597,-0.7773,-0.7916,-0.7988,-0.7988,-0.7988,-0.7988,-0.7988,-0.7988,-0.7988,-0.7988,-0.7988,-0.7975,-0.7875,-0.7726,-0.757,-0.7292,-0.7125,-0.7092,-0.7065,-0.6964,-0.6842,-0.6842,-0.6681,-0.6436,-0.6179,-0.6323,-0.6565,-0.6613,-0.7176,0.0,0.0,0.0,0.0,0.0,0.0,0.0,0.0,0.0,-1.0875,-1.1588,-1.2409,-1.3169,-1.3652,-1.4765,-1.5803,-1.6249,-1.7325,-1.8134,-1.8298,-1.8942,-2.0155,-2.2297,-2.2805,-2.3888,-2.6026,-2.5978,-2.6293,-2.7671,-2.815,-2.8572,-2.8957,-2.8975,-2.9122,-2.9452,-2.914,-2.914,-2.9452,-2.914,-2.8975,-2.8975,-2.8975,-2.8975,-2.8975,-2.8975,-2.8975,-2.8975,-2.8975,-2.8975,-2.8975,-2.8975,-2.8975,-2.8975,-2.8975,-2.8792,-2.8462,-2.804,-2.795,-2.7838,0.0,0.047,0.0,0.0,0.0,0.0,0.0,0.0,0.0,0.0,0.0,-0.0246,-0.0844,-0.0359,-0.0553,-0.1877,-0.2133,-0.2955,-0.4694,-0.521,-0.5738,-0.6392,-0.6684,-0.6922,-0.7098,-0.7428,-0.7584,-0.7597,-0.7875,-0.7975,-0.7988,-0.7988,-0.7988,-0.7988,-0.7988,-0.7988,-0.7988,-0.7988,-0.7988,-0.7975,-0.7875,-0.7726,-0.7584,-0.7407,-0.7258,-0.7078,-0.6957,-0.6858,-0.6729,-0.6729,-0.6532,-0.634,-0.6429,-0.6265,-0.6287,-0.739,0.0,-0.7687,-0.9244,-0.9877,-1.0226,-1.0695,-1.0695,-1.1081,0.0,0.0,-1.2445,-1.3688,-1.4039,-1.422,-1.4521,-1.5297,-1.5984,-1.6258,-1.727,-1.8027,-1.8052,-1.8827,-1.9809,-2.0859,-2.2168,-2.3536,-2.4889,-2.6201,-2.7231,-2.7728,-2.815,-2.8572,-2.8957,-2.8975,-2.9012,-2.9048,-2.9012,-2.9012,-2.9048,-2.9012,-2.8975,-2.8975,-2.8975,-2.8975,-2.8975,-2.8975,-2.8975,-2.8975,-2.8975,-2.8975,-2.8975,-2.8975,-2.8975,-2.8975,-2.8975,-2.8957,-2.8865,-2.8462,-2.8333,-2.826,0.0,0.0504,0.0,0.0,0.0,0.0,0.0,0.0,0.0,0.0,0.0,-0.0097,-0.0353,-0.0152,-0.0361,-0.1273,-0.1819,-0.2644,-0.39,-0.4884,-0.5592,-0.5984,-0.6511,-0.684,-0.6922,-0.7349,-0.7597,-0.7597,-0.7847,-0.7988,-0.7988,-0.7988,-0.7988,-0.7988,-0.7988,-0.7988,-0.7988,-0.7988,-0.7988,-0.7975,-0.7875,-0.7726,-0.757,-0.7333,-0.7088,-0.6878,-0.6817,-0.6695,0.0,-0.6511,-0.6457,-0.6422,-0.6395,-0.643,-0.6603,-0.6968,-0.7918,0.0,-1.1042,-1.1369,0.0,0.0,-1.1962,-1.2307,-1.3254,-1.3338,-1.3483,-1.4364,-1.4787,-1.5028,-1.5149,-1.5984,-1.663,0.0,-1.7466,-1.8192,-1.8031,-1.8642,-1.9163,-1.932,-2.0872,-2.2771,-2.4957,-2.5315,-2.6209,-2.798,-2.8517,-2.881,-2.8975,-2.8975,-2.8975,-2.8975,-2.8975,-2.8975,-2.8975,-2.8975,-2.8975,-2.8975,-2.8975,-2.8975,-2.8975,-2.8975,-2.8975,-2.8975,-2.8975,-2.8975,-2.8975,-2.8975,-2.8975,-2.8975,-2.8975,-2.8975,-2.8957,-2.8792,-2.8737,-2.8682,0.0,0.0504,0.0,0.0,0.0,0.0,0.0,0.0,0.0,0.0,0.0,0.0,0.0,0.0,-0.025,-0.0837,-0.1605,-0.2423,-0.3296,-0.4514,-0.5347,-0.5641,-0.6239,-0.6618,-0.6795,-0.7217,-0.7489,-0.7536,-0.7834,-0.7928,-0.7928,-0.7968,-0.7988,-0.7988,-0.7988,-0.7988,-0.7988,-0.7941,-0.7928,-0.7914,-0.7814,-0.7638,-0.7441,-0.7139,-0.6802,-0.6512,-0.6512,-0.639,-0.6245,-0.6102,-0.6115,-0.619,-0.6136,-0.6321,-0.6632,-0.6722,-0.8346,-1.0384,-1.1851,0.0,0.0,-1.2373,-1.294,-1.3447,-1.3447,-1.3857,-1.4352,-1.4739,-1.5125,-1.5415,-1.5487,-1.6245,-1.6802,-1.6738,-1.7538,-1.8106,-1.7901,-1.8351,-1.8654,-1.8352,-1.9647,-2.1576,-2.4154,-2.4176,-2.4886,-2.7047,-2.7925,-2.8372,-2.8421,-2.8797,-2.8975,-2.8975,-2.8975,-2.903,-2.914,-2.914,-2.914,-2.914,-2.914,-2.9085,-2.8975,-2.8975,-2.8975,-2.8975,-2.8975,-2.8975,-2.8975,-2.8975,-2.8975,-2.8975,-2.8975,-2.8975,-2.8975,-2.8975,-2.8975,-2.8938,0.0,0.0,0.0,0.0,0.0,0.0,0.0,0.0,0.0,0.0,0.0,0.0,0.0,0.0,-0.0233,-0.0853,-0.1566,-0.2345,-0.3166,-0.4146,-0.4972,-0.5462,-0.5762,-0.6213,-0.6789,-0.6944,-0.7152,-0.7426,-0.7672,-0.7821,-0.7821,-0.7921,-0.7988,-0.7988,-0.7988,-0.7988,-0.7982,-0.7882,-0.7821,-0.7807,-0.7665,-0.7428,-0.7092,-0.695,-0.6525,-0.6013,-0.6013,-0.5861,-0.5596,-0.5474,-0.5426,-0.5453,-0.5562,-0.5733,0.0,-0.7131,-0.888,-1.0567,0.0,0.0,-1.2687,-1.2687,-1.3483,-1.4256,-1.4256,-1.4678,-1.5077,-1.5089,-1.5113,-1.5197,-1.5451,-1.5728,-1.6091,-1.6622,-1.7207,-1.7592,-1.7501,-1.8,-1.8339,-1.804,-1.8589,-1.9726,0.0,-2.2932,-2.3757,-2.4109,-2.5721,-2.6764,-2.7065,-2.8301,-2.8975,-2.8975,-2.8975,-2.9159,-2.9544,-2.9562,-2.9562,-2.9562,-2.9562,-2.936,-2.8975,-2.8975,-2.8975,-2.8975,-2.8975,-2.8975,-2.8975,-2.8975,-2.8975,-2.8975,-2.8975,-2.8975,-2.8975,-2.8975,-2.8975,-2.8975,0.0,0.0,0.0,0.0037,0.0,0.0,0.0,0.0,0.0,0.0,0.0,0.0,0.0,0.0,0.0,0.0,-0.0965,-0.1704,-0.2417,-0.3419,-0.4292,-0.5018,-0.5428,-0.5823,-0.6207,-0.6523,-0.6776,-0.691,-0.7242,-0.7428,-0.7428,-0.7624,-0.7746,-0.7746,-0.7746,-0.7746,-0.7746,-0.7692,-0.7726,-0.778,-0.7434,-0.7292,-0.7244,-0.6797,-0.6315,-0.5854,0.0,-0.5454,-0.5264,-0.5114,-0.5128,-0.5216,-0.527,0.0,0.0,-0.7743,-0.8799,-0.9843,0.0,0.0,-1.3592,-1.3954,-1.4437,-1.4883,-1.5052,-1.5101,-1.5161,-1.533,-1.5234,-1.5137,-1.5221,-1.5596,-1.6006,-1.6368,-1.7061,-1.7557,-1.7467,-1.8124,-1.8361,-1.7749,-1.8577,0.0,0.0,0.0,0.0,-2.4582,-2.587,-2.6329,-2.5713,-2.6944,-2.7684,-2.7684,-2.7684,-2.83,-2.9562,-2.9562,-2.9709,-2.9984,-2.9709,-2.936,-2.8975,-2.8975,-2.8975,-2.8975,-2.8975,-2.8975,-2.8975,-2.8975,-2.8975,-2.8975,-2.8975,-2.8975,-2.8975,-2.8975,-2.8975,-2.8975,0.0,0.0,0.0,0.0,0.0,0.0,0.0,0.0,0.0,0.0,0.0,0.0,0.0,0.0,0.0,0.0,0.0,0.0,-0.1714,-0.2774,-0.3666,-0.4267,-0.4828,-0.5263,-0.5589,-0.5841,-0.6092,-0.6362,-0.6719,-0.693,-0.6989,-0.727,-0.7434,-0.7434,-0.7434,-0.7388,-0.7296,-0.7334,-0.7368,-0.7323,-0.693,-0.6813,-0.6795,-0.6264,-0.5801,0.0,-0.5209,-0.502,-0.4877,-0.4789,-0.4891,-0.5029,-0.5083,-0.5583,-0.6518,-0.8263,-0.9048,-0.9846,-1.2249,-1.3356,-1.4063,-1.4702,-1.5052,-1.527,-1.5342,-1.5306,-1.5209,-1.5089,-1.4932,-1.4787,-1.469,-1.4956,-1.539,-1.603,-1.6573,-1.7044,-1.743,-1.7933,-1.8111,-1.7575,-1.8273,0.0,0.0,0.0,0.0,-2.3155,-2.4585,-2.506,-2.4363,-2.5659,-2.6411,-2.6277,-2.6762,-2.7705,-2.909,-2.9537,-2.9929,-3.0204,-2.9764,-2.936,-2.8975,-2.8975,-2.8975,-2.8975,-2.8975,-2.8975,-2.8975,-2.8975,-2.8975,-2.8975,-2.8975,-2.8975,-2.8975,-2.8975,-2.8975,-2.8975,0.0,0.0,0.0,0.0,0.0,0.0,0.0,0.0,0.0,0.0,0.0,0.0,0.0,0.0,0.0,0.0,0.0,0.0,-0.1078,-0.2263,-0.3088,-0.3363,-0.4081,-0.4617,-0.4937,-0.4973,-0.5163,-0.5604,-0.6021,-0.6348,-0.6525,-0.6877,-0.7031,-0.7038,-0.7038,-0.6913,-0.6744,-0.6824,-0.6721,-0.6518,-0.6282,-0.5996,-0.5761,-0.5403,-0.5035,-0.4716,-0.4696,-0.4627,-0.4491,-0.4505,0.0,0.0,0.0,0.0,0.0,-0.8779,-0.9635,-1.0524,-1.3136,-1.3895,-1.4171,-1.4932,-1.5318,-1.5439,-1.5185,-1.5282,-1.5221,-1.4437,-1.4256,-1.4147,0.0,0.0,-1.4328,-1.562,-1.5885,-1.6296,-1.7358,-1.7518,-1.7514,0.0,0.0,0.0,0.0,0.0,0.0,-2.0093,0.0,-2.3032,-2.3014,-2.45,-2.5218,-2.4887,-2.6156,-2.7258,-2.8215,-2.96,-3.0241,-3.0204,-2.98,-2.9379,-2.8975,-2.8975,-2.8975,-2.8975,-2.8975,-2.8975,-2.8975,-2.8975,-2.8975,-2.8975,-2.8975,-2.8975,-2.8975,-2.8975,-2.8975,-2.8975,0.0,0.0,0.0,0.0,0.0,0.0,0.0,0.0,0.0,0.0,0.0,0.0,0.0,0.0,0.0,0.0,0.0,0.0,-0.0933,-0.1784,-0.2511,-0.308,-0.3821,-0.4138,-0.3951,-0.4412,-0.4522,-0.4299,-0.5001,-0.5352,-0.5418,-0.5714,-0.5861,-0.5924,-0.5924,-0.5942,-0.599,-0.5992,-0.6019,-0.5954,-0.5645,-0.5525,-0.5466,-0.5124,-0.4887,-0.4698,-0.4689,-0.4629,0.0,0.0,0.0,0.0,0.0,0.0,-0.681,0.0,0.0,-1.1,-1.2565,-1.4035,-1.5137,-1.5354,-1.5451,-1.5487,-1.5415,-1.498,-1.4485,-1.4087,-1.3688,-1.3278,0.0,0.0,0.0,-1.4896,-1.5849,0.0,-1.7648,-1.7949,0.0,0.0,0.0,-1.859,-1.8802,-1.9195,0.0,0.0,-2.1202,-2.1907,-2.1636,-2.2976,-2.3664,-2.3574,-2.3946,-2.5451,-2.8152,-3.0121,-3.0791,-3.0204,-3.0094,-2.9672,-2.8975,-2.8975,-2.8975,-2.8975,-2.8975,-2.8975,-2.8975,-2.8975,-2.8975,-2.8975,-2.8975,-2.8975,-2.8975,-2.8975,-2.8975,-2.8975,0.0,0.0,0.0,0.0,0.0,0.0,0.0,0.0,0.0,0.0,0.0,0.0,0.0,0.0,0.0,0.0,0.0,0.0,0.0,-0.114,-0.18,-0.2451,-0.3122,-0.3513,-0.3602,-0.4003,-0.4082,-0.3833,-0.4461,-0.4757,-0.4845,-0.5054,-0.5202,-0.5241,-0.5241,-0.5242,-0.5237,-0.5316,-0.5316,0.0,0.0,-0.4891,-0.4858,-0.4612,-0.4467,-0.4393,-0.4458,0.0,0.0,0.0,0.0,-0.6045,-0.6912,-0.6995,-0.7196,-0.9182,0.0,-1.1382,-1.2779,-1.432,-1.5499,-1.5499,-1.5499,-1.5342,-1.4763,-1.428,-1.3749,-1.3012,-1.2626,0.0,0.0,0.0,0.0,0.0,0.0,0.0,-1.7563,-1.7841,-1.8022,0.0,-1.8301,0.0,-1.8853,-1.9051,-1.9299,0.0,-2.0815,-2.1257,-2.0906,-2.185,-2.2356,-2.2215,-2.2764,-2.4766,-2.8152,-2.9566,-3.0221,-3.0204,-3.0204,-2.9764,-2.8975,-2.8975,-2.8975,-2.8975,0.0,-2.8975,-2.8975,-2.8975,-2.8975,-2.8975,-2.8975,-2.8975,-2.8975,-2.8975,-2.8975,-2.8975,0.0,0.0,0.0,0.0,0.0,0.0,0.0,0.0,0.0,0.0,0.0,0.0,0.0,0.0,0.0,0.0,0.0,0.0,0.0,0.0,-0.1121,-0.1651,-0.2348,-0.2905,-0.336,-0.3623,-0.3754,-0.3736,-0.4114,-0.4348,-0.4457,-0.4659,-0.4736,-0.4754,-0.4754,-0.4662,-0.4509,-0.468,-0.4668,-0.4475,-0.4359,-0.4244,-0.4122,0.0,-0.3954,0.0,0.0,0.0,0.0,0.0,-0.6179,-0.6497,-0.6895,-0.7234,-0.7759,-0.9212,-1.0511,-1.1736,-1.3153,-1.4402,-1.5327,-1.5291,-1.5231,-1.4862,-1.3799,-1.3435,-1.2952,-1.1682,0.0,-1.1236,-1.0924,0.0,-1.2566,-1.3628,0.0,-1.5934,-1.7334,-1.7503,-1.7708,-1.8324,-1.8155,-1.8301,-1.9124,-1.8752,-1.8875,-1.9877,-2.0516,-2.0734,-2.0628,-2.1157,-2.1376,-2.1122,-2.2446,-2.4593,-2.7563,-2.8188,-2.8824,-2.9599,-2.9599,-2.9281,-2.8737,-2.8737,-2.8797,-2.8975,-2.8975,0.0,-2.8975,-2.8975,-2.8975,-2.8975,-2.8975,-2.8975,-2.8975,-2.8975,-2.8975,-2.8975,0.0,0.0,0.0,0.0,0.0,0.0,0.0,0.0,0.0,0.0,0.0,0.0,0.0,0.0,0.0,0.0,0.0,0.0,0.0,0.0,0.0,-0.1065,-0.2125,-0.2516,-0.2125,0.0,0.0,0.0,0.0,-0.3743,-0.3765,-0.3823,-0.3873,-0.3998,-0.3998,-0.3994,-0.4027,-0.4058,-0.4033,-0.3933,-0.3911,-0.3833,-0.3699,-0.3677,0.0,0.0,0.0,0.0,0.0,0.0,-0.6437,-0.7389,-0.8428,-0.8271,-0.8172,-1.0416,-1.1428,-1.1961,-1.224,-1.3359,-1.4382,-1.4162,-1.3759,-1.3518,-1.3755,-1.2988,0.0,0.0,0.0,-1.0358,-0.9877,-1.0791,0.0,-1.3041,0.0,0.0,0.0,0.0,-1.7841,0.0,0.0,0.0,0.0,0.0,0.0,0.0,0.0,-2.0081,-2.0552,-2.0718,-2.0845,-2.1109,-2.2722,-2.3862,-2.4475,-2.6009,-2.6645,-2.649,-2.649,-2.6756,-2.7323,-2.7323,-2.7942,-2.8975,-2.8975,0.0,-2.8975,-2.8975,-2.8975,-2.8975,-2.8975,-2.8975,-2.8975,-2.8975,-2.8975,-2.8975,0.0,0.0,0.0,0.0,0.0,0.0,0.0,0.0,0.0,0.0,0.0,0.0,0.0,0.0,0.0,0.0,0.0,0.0,0.0,0.0,0.0,0.0,0.0,-0.193,0.0,0.0,0.0,0.0,0.0,0.0,0.0,0.0,0.0,0.0,0.0,0.0,0.0,0.0,-0.3719,0.0,0.0,0.0,0.0,0.0,0.0,0.0,0.0,0.0,0.0,0.0,-0.6397,-0.7538,-0.8149,-0.8177,-0.8181,-0.9501,-1.0441,-1.1245,-1.2021,-1.2719,-1.3311,-1.3602,-1.33,-1.2862,-1.2215,0.0,0.0,0.0,0.0,-0.9432,-0.9324,0.0,0.0,0.0,0.0,0.0,0.0,0.0,0.0,0.0,0.0,0.0,0.0,0.0,0.0,0.0,0.0,-1.9584,-2.003,-2.0412,-2.0729,-2.1109,-2.1928,-2.2779,-2.3701,-2.455,-2.517,-2.5705,-2.5705,-2.5762,-2.5973,-2.5973,-2.6702,-2.7942,-2.7942,0.0,-2.9269,-2.9067,-2.9104,-2.9269,-2.9067,-2.8975,-2.8975,-2.8975,-2.8975,-2.8975,0.0,0.0,0.0,0.0,0.0,0.0,0.0,0.0,0.0,0.0,0.0,0.0,0.0,0.0,0.0,0.0,0.0,0.0,0.0,0.0,0.0,0.0,0.0,0.0,0.0,0.0,0.0,0.0,0.0,0.0,0.0,0.0,0.0,0.0,0.0,0.0,0.0,0.0,0.0,0.0,0.0,0.0,0.0,0.0,0.0,0.0,0.0,0.0,0.0,0.0,-0.6065,-0.7078,-0.7278,-0.7672,-0.8042,-0.8357,-0.9287,-1.0418,-1.1334,-1.1837,-1.2152,-1.2625,-1.2516,-1.1887,-1.0542,-1.0362,0.0,0.0,-0.8663,-0.8551,-0.8932,0.0,0.0,0.0,0.0,0.0,0.0,0.0,0.0,0.0,0.0,0.0,0.0,0.0,0.0,0.0,0.0,0.0,-1.9584,-2.0221,-2.0729,-2.0982,-2.1046,-2.1787,-2.3154,-2.3154,-2.3661,-2.4718,-2.4718,-2.4704,-2.4564,-2.4564,-2.5301,-2.6581,-2.6581,0.0,0.0,-2.8402,-2.8715,-2.9525,-2.8823,-2.8737,-2.8975,-2.8975,-2.8975,-2.8975,0.0,0.0,0.0,0.0,0.0,0.0,0.0,0.0,0.0,0.0,0.0,0.0,0.0,0.0,0.0,0.0,0.0,0.0,0.0,0.0,0.0,0.0,0.0,0.0,0.0,0.0,0.0,0.0,0.0,0.0,0.0,0.0,0.0,0.0,0.0,0.0,0.0,0.0,0.0,0.0,0.0,0.0,0.0,0.0,0.0,0.0,0.0,0.0,0.0,0.0,0.0,-0.5847,-0.6443,-0.7251,-0.8022,-0.8241,0.0,0.0,-0.9273,-0.9907,-1.0799,-1.0487,-1.0078,-0.9717,-0.9761,0.0,0.0,-0.8228,-0.7873,-0.7852,-0.8598,-0.9203,0.0,0.0,0.0,0.0,0.0,0.0,0.0,0.0,0.0,0.0,0.0,0.0,0.0,0.0,0.0,0.0,-1.9584,-2.0221,-2.0602,-2.0666,-2.0919,-2.1186,-2.1339,-2.1339,-2.1402,-2.1515,-2.1515,-2.2118,-2.3263,-2.3263,-2.3946,-2.5178,-2.5178,0.0,0.0,-2.606,-2.7044,-2.9465,-2.7842,-2.7942,-2.8975,-2.8975,-2.8975,-2.8975,0.0,0.0,0.0,0.0,0.0,0.0,0.0,0.0,0.0,0.0,0.0,0.0,0.0,0.0,0.0,0.0,0.0,0.0,0.0,0.0,0.0,0.0,0.0,0.0,0.0,0.0,0.0,0.0,0.0,0.0,0.0,0.0,0.0,0.0,0.0,0.0,0.0,0.0,0.0,0.0,0.0,0.0,0.0,0.0,0.0,0.0,0.0,0.0,0.0,0.0,0.0,0.0,-0.5759,-0.6396,0.0,0.0,-0.8308,-0.8924,-0.9595,-0.9586,-0.9527,-1.002,-0.9744,-0.9163,-0.8607,0.0,-0.8034,-0.7891,-0.7548,-0.7566,-0.8509,-0.889,-0.9456,-1.0791,-1.1236,-1.2067,0.0,0.0,0.0,0.0,0.0,0.0,0.0,0.0,0.0,0.0,0.0,0.0,-1.9264,-1.9711,-2.0157,-2.0602,-2.0729,-2.0919,-2.1109,-2.1109,-2.1109,-2.1109,-2.1109,-2.1348,-2.1915,-2.1915,-2.2591,-2.3884,-2.3884,0.0,0.0,-2.5464,-2.601,-2.7407,-2.6265,-2.6641,-2.7822,-2.7822,-2.8301,-2.8975,0.0,0.0,0.0,0.0,0.0,0.0,0.0,0.0,0.0,0.0,0.0,0.0,0.0,0.0,0.0,0.0,0.0,0.0,0.0,0.0,0.0,0.0,0.0,0.0,0.0,0.0,0.0,0.0,-0.2434,0.0,0.0,0.0,0.0,0.0,0.0,0.0,0.0,0.0,0.0,0.0,0.0,0.0,0.0,0.0,0.0,0.0,0.0,0.0,0.0,0.0,0.0,0.0,0.0,0.0,0.0,0.0,-0.7597,-0.8063,-0.9465,-0.9211,-0.8682,-0.9465,-0.9168,-0.8489,0.0,0.0,-0.7325,-0.7176,-0.6984,-0.717,-0.8253,-0.8593,-0.9095,-1.0262,-1.0491,-1.1152,-1.3025,0.0,0.0,0.0,0.0,0.0,0.0,0.0,0.0,0.0,0.0,0.0,0.0,-1.9328,-1.9711,-2.0284,-2.0475,-2.0729,-2.0919,-2.1046,-2.1109,-2.1109,-2.1109,-2.1149,-2.1243,-2.1149,-2.1655,-2.2657,-2.2557,0.0,0.0,-2.4251,-2.4719,-2.5882,-2.4844,-2.524,-2.6459,-2.684,-2.7624,-2.8498,0.0,0.0,0.0,0.0,0.0,0.0,0.0,0.0,0.0,0.0,0.0,0.0,0.0,0.0,0.0,0.0,0.0,0.0,0.0,0.0,0.0,0.0,0.0,0.0,0.0,0.0,-0.1203,-0.1821,-0.1819,0.0,0.0,0.0,0.0,0.0,0.0,0.0,0.0,0.0,0.0,0.0,0.0,0.0,0.0,0.0,0.0,0.0,0.0,0.0,0.0,0.0,0.0,0.0,0.0,0.0,0.0,0.0,-0.736,-0.7699,-0.8204,-0.8429,-0.8452,-0.8361,-0.7985,-0.7441,0.0,-0.6163,-0.5663,-0.5793,-0.6037,-0.6553,-0.7698,-0.8346,-0.8975,-0.9781,-1.0563,-1.1479,-1.2566,0.0,0.0,0.0,0.0,0.0,0.0,0.0,0.0,0.0,0.0,0.0,0.0,-1.9072,-1.9264,-1.9571,-2.0221,-2.0602,-2.0615,-2.0919,-2.1109,-2.1109,-2.1109,-2.1269,-2.1601,-2.1243,-2.1269,0.0,0.0,0.0,0.0,-2.185,-2.2967,-2.5548,-2.3833,-2.3884,-2.5178,-2.652,-2.7021,-2.7203,0.0,0.0,0.0,0.0,0.0,0.0,0.0,0.0,0.0,0.0,0.0,0.0,0.0,0.0,0.0,0.0,0.0,0.0,0.0,0.0,0.0,0.0,0.0,0.0,0.0,0.0,-0.0595,-0.1183,-0.1188,-0.1507,0.0,0.0,0.0,0.0,0.0,0.0,0.0,0.0,0.0,0.0,0.0,0.0,0.0,0.0,0.0,0.0,0.0,0.0,0.0,0.0,0.0,0.0,0.0,0.0,0.0,-0.5528,0.0,0.0,-0.7186,-0.7387,-0.7407,-0.7366,-0.717,-0.6851,-0.6356,-0.5901,-0.5629,-0.5763,-0.6171,-0.6757,-0.772,-0.8484,-0.9348,-1.0515,-1.0948,0.0,0.0,0.0,0.0,0.0,0.0,0.0,0.0,0.0,0.0,0.0,0.0,0.0,0.0,-1.9072,-1.9264,-1.9571,-1.9839,-2.003,-2.0234,-2.0361,-2.0425,-2.0425,-2.0425,-2.0695,-2.1149,-2.086,-2.1078,0.0,0.0,0.0,0.0,-2.142,-2.1778,-2.2844,-2.2026,-2.2529,-2.376,-2.4178,-2.4871,-2.5668,0.0,0.0,0.0,0.0,0.0,0.0,0.0,0.0,0.0,0.0,0.0,0.0,0.0,0.0,0.0,0.0,0.0,0.0,0.0,0.0,0.0,0.0,0.0,0.0,0.0,0.0,-0.0186,-0.0559,-0.0569,-0.0895,-0.1569,-0.2268,-0.2678,0.0,0.0,0.0,0.0,0.0,0.0,0.0,0.0,0.0,0.0,0.0,0.0,0.0,0.0,0.0,0.0,0.0,0.0,0.0,0.0,0.0,0.0,0.0,-0.5038,-0.5639,0.0,-0.6797,-0.6844,-0.6844,-0.6688,-0.643,-0.603,-0.5671,-0.5403,-0.5389,-0.5764,-0.6398,-0.7396,-0.8143,-0.9068,-1.0287,-1.0731,0.0,0.0,0.0,0.0,0.0,0.0,0.0,0.0,0.0,0.0,0.0,0.0,0.0,0.0,-1.9072,-1.92,-1.9392,-1.952,-1.9711,-1.9915,-2.0043,-2.0106,-2.0106,-2.0106,-2.0374,-2.0825,-2.0554,-2.0708,0.0,0.0,0.0,0.0,-2.0935,-2.1025,-2.1171,-2.0999,-2.1475,-2.2404,-2.2889,-2.3574,-2.4379,0.0,0.0,0.0,0.0,0.0,0.0,0.0,0.0,0.0,0.0,0.0,0.0,0.0,0.0,0.0,0.0,0.0,0.0,0.0,0.0,0.0,0.0,0.0,0.0,0.0,0.0,0.0,0.0,0.0,-0.0337,-0.102,-0.1799,-0.2423,-0.2965,-0.3629,0.0,0.0,0.0,0.0,0.0,0.0,0.0,0.0,0.0,0.0,0.0,0.0,0.0,0.0,0.0,0.0,0.0,0.0,0.0,0.0,0.0,0.0,0.0,0.0,-0.6464,0.0,0.0,-0.6376,-0.6143,-0.5806,-0.5413,0.0,-0.4748,-0.5024,-0.569,-0.6844,-0.7559,-0.8315,-0.9479,-1.031,0.0,0.0,0.0,0.0,0.0,0.0,0.0,0.0,0.0,0.0,0.0,0.0,0.0,0.0,-1.9072,-1.9072,-1.9072,-1.9392,-1.9571,-1.9571,-1.9839,-2.0055,-2.0068,-2.0055,-2.0195,-2.0474,-2.0182,-2.0195,0.0,0.0,0.0,0.0,-2.0425,-2.0539,-2.0539,-2.0602,-2.0792,-2.1235,-2.2452,-2.2952,-2.3139,0.0,0.0,0.0,0.0,0.0,0.0,0.0,0.0,0.0,0.0,0.0,0.0,0.0,0.0,0.0,0.0,0.0,0.0,0.0,0.0,0.0,0.0,0.0,0.0,0.0,0.0,0.0,0.0,0.0,-0.0077,-0.0282,-0.175,-0.233,-0.2283,-0.3719,-0.4175,0.0,0.0,0.0,0.0,0.0,0.0,0.0,0.0,0.0,0.0,0.0,0.0,0.0,0.0,0.0,0.0,0.0,0.0,0.0,0.0,-0.3961,-0.4231,-0.4821,0.0,-0.544,-0.5365,-0.5365,-0.5352,0.0,-0.5015,-0.4887,-0.4728,0.0,0.0,-0.7349,-0.8101,-0.913,0.0,0.0,0.0,0.0,0.0,0.0,0.0,0.0,0.0,0.0,0.0,0.0,0.0,0.0,0.0,0.0,-1.9072,-1.9072,-1.9072,-1.92,-1.92,-1.92,-1.9264,-1.9438,-1.9634,-1.9426,-1.9714,-2.0422,-1.9936,-1.9989,0.0,0.0,0.0,-2.0106,-2.017,-2.0234,-2.0234,-2.0488,-2.0666,-2.0792,-2.1348,-2.1538,-2.1601,0.0,0.0,0.0,0.0,0.0,0.0,0.0,0.0,0.0,0.0,0.0,0.0,0.0,0.0,0.0,0.0,0.0,0.0,0.0,0.0,0.0,0.0,0.0,0.0,0.0,0.0,0.0,0.0,0.0,-0.0235,-0.0671,-0.1926,-0.2591,-0.2768,-0.35,-0.3841,0.0,0.0,0.0,0.0,0.0,0.0,0.0,0.0,0.0,0.0,0.0,-0.361,0.0,-0.3866,-0.3918,-0.3914,0.0,0.0,0.0,0.0,-0.3795,-0.396,-0.4216,-0.4789,-0.5306,-0.5231,-0.5332,-0.5386,-0.5169,0.0,0.0,0.0,0.0,0.0,0.0,0.0,0.0,0.0,0.0,0.0,0.0,0.0,0.0,0.0,0.0,0.0,0.0,0.0,0.0,0.0,0.0,0.0,0.0,-1.9072,-1.9072,-1.9072,-1.9072,-1.9072,-1.9072,-1.9072,-1.9145,-1.9289,-1.9145,-1.9358,-1.9756,-1.9527,-1.9542,0.0,0.0,0.0,-1.966,-1.9775,-1.9839,-1.9903,-2.0094,-2.0221,-2.0425,-2.0539,-2.0666,-2.0666,0.0,0.0,0.0,0.0,0.0,0.0,0.0,0.0,0.0,0.0,0.0,0.0,0.0,0.0,0.0,0.0,0.0,0.0,0.0,0.0,0.0,0.0,0.0,0.0,0.0,0.0,0.0,0.0,0.0,-0.048,-0.1426,-0.2232,-0.2986,-0.365,-0.3097,-0.3219,0.0,0.0,0.0,0.0,0.0,0.0,0.0,0.0,0.0,0.0,0.0,0.0,0.0,-0.3787,-0.3838,-0.3824,-0.386,0.0,0.0,0.0,0.0,0.0,-0.4011,-0.4835,-0.5597,-0.5487,-0.561,-0.5684,-0.5399,0.0,0.0,0.0,0.0,0.0,0.0,0.0,0.0,0.0,0.0,0.0,0.0,0.0,0.0,0.0,0.0,0.0,0.0,0.0,0.0,0.0,0.0,0.0,0.0,-1.9072,-1.9072,-1.9072,-1.9072,-1.9072,-1.9072,-1.9072,-1.9096,-1.9132,-1.9096,-1.9096,-1.9132,-1.9096,-1.9072,-1.9136,0.0,0.0,-1.9136,-1.9392,-1.9507,-1.952,-1.9584,-1.9775,-2.0043,-2.0106,-2.0106,-2.0094,0.0,0.0,0.0,0.0,0.0,0.0,0.0,0.0,0.0,0.0,0.0,0.0,0.0,0.0,0.0,0.0,0.0,0.0,0.0,0.0,0.0,0.0,0.0,0.0,0.0,0.0,0.0,0.0,0.0,-0.0532,-0.1607,-0.2483,-0.3314,-0.3958,-0.2777,-0.264,-0.3304,-0.3212,0.0,0.0,0.0,0.0,0.0,0.0,0.0,0.0,0.0,0.0,0.0,-0.3626,-0.3757,-0.3846,-0.3697,0.0,0.0,0.0,0.0,0.0,-0.4293,-0.5092,-0.563,-0.4991,-0.523,-0.5508,-0.5081,0.0,0.0,0.0,0.0,0.0,0.0,0.0,0.0,0.0,0.0,0.0,0.0,0.0,0.0,0.0,0.0,0.0,0.0,0.0,0.0,0.0,0.0,0.0,0.0,-1.9072,-1.9072,-1.9072,-1.9072,-1.9072,-1.9072,-1.9072,-1.9181,-1.9475,-1.9181,-1.9193,-1.9398,-1.9181,-1.9072,-1.9072,0.0,-1.9136,-1.9072,-1.9136,-1.92,-1.92,-1.9507,-1.9635,-1.9711,-1.9979,-2.0106,-2.0068,0.0,0.0,0.0,0.0,0.0,0.0,0.0,0.0,0.0,0.0,0.0,0.0,0.0,0.0,0.0,0.0,0.0,0.0,0.0,0.0,0.0,0.0,0.0,0.0,0.0,0.0,0.0,0.0,0.0,-0.0509,-0.1505,-0.2327,-0.2877,-0.3094,-0.2397,-0.2508,-0.3213,-0.321,0.0,0.0,0.0,0.0,0.0,0.0,0.0,0.0,0.0,0.0,0.0,0.0,-0.3789,-0.3873,-0.3758,0.0,0.0,0.0,0.0,0.0,-0.4022,-0.4767,-0.5325,-0.4996,-0.5674,-0.6308,-0.5861,-0.563,0.0,0.0,0.0,0.0,0.0,0.0,0.0,0.0,0.0,0.0,0.0,0.0,0.0,0.0,0.0,0.0,0.0,0.0,0.0,0.0,0.0,0.0,0.0,0.0,-1.9072,-1.9072,-1.9072,-1.9072,-1.9072,-1.9072,-1.9132,-1.9253,-1.9132,-1.9132,-1.9253,-1.9132,-1.9072,-1.9072,0.0,-1.9072,-1.9072,-1.9072,-1.9072,-1.9136,-1.9264,-1.9328,-1.9328,-1.952,-1.956,-1.96,0.0,0.0,0.0,0.0,0.0,0.0,0.0,0.0,0.0,0.0,0.0,0.0,0.0,0.0,0.0,0.0,0.0,0.0,0.0,0.0,0.0,0.0,0.0,0.0,0.0,0.0,0.0,0.0,0.0,-0.0489,-0.1459,-0.2044,-0.2221,-0.2146,-0.2097,-0.2424,-0.295,-0.3318,-0.3789,0.0,0.0,0.0,0.0,0.0,0.0,0.0,0.0,0.0,0.0,0.0,0.0,0.0,0.0,0.0,0.0,-0.3719,-0.3648,-0.3704,-0.3902,-0.4504,-0.5092,-0.519,0.0,-0.6768,-0.6532,-0.624,0.0,0.0,0.0,0.0,0.0,0.0,0.0,0.0,0.0,0.0,0.0,0.0,0.0,0.0,0.0,0.0,0.0,0.0,0.0,0.0,0.0,0.0,0.0,0.0,-1.9012,-1.9072,-1.9072,-1.9072,-1.9072,-1.9072,-1.9072,-1.9072,-1.9072,-1.9072,-1.9072,-1.9072,-1.9072,-1.9072,-1.9072,-1.9072,-1.9072,-1.9072,-1.9072,-1.9072,-1.9072,-1.9072,-1.9072,-1.9012,-1.9045,-1.91,0.0,0.0,0.0,0.0,0.0,0.0,0.0,0.0,0.0,0.0,0.0,0.0,0.0,0.0,0.0,0.0,0.0,0.0,0.0,0.0,0.0,0.0,0.0,0.0,0.0,0.0,0.0,0.0,0.0,-0.0521,-0.1602,-0.1649,-0.1641,-0.1668,-0.1977,-0.2125,-0.2281,-0.3627,-0.4267,-0.4278,0.0,0.0,0.0,0.0,0.0,0.0,0.0,0.0,0.0,0.0,0.0,0.0,0.0,0.0,-0.39,-0.3884,-0.3827,-0.3868,-0.4317,-0.4683,-0.5015,-0.545,-0.5809,-0.6134,-0.6417,-0.624,0.0,-0.6552,0.0,0.0,0.0,0.0,0.0,0.0,0.0,0.0,0.0,0.0,0.0,0.0,0.0,0.0,0.0,0.0,0.0,0.0,0.0,0.0,0.0,0.0,0.0,-1.9072,-1.9072,-1.9072,-1.9072,-1.9072,-1.9072,-1.9072,-1.9072,-1.9072,-1.9072,-1.9072,-1.9072,-1.9072,-1.9072,-1.9072,-1.9072,-1.9072,-1.9072,-1.9072,-1.9072,-1.9072,-1.9048,-1.8807,-1.8698,-1.8676,0.0,0.0,0.0,0.0,0.0,0.0,0.0,0.0,0.0,0.0,0.0,0.0,0.0,0.0,0.0,0.0,0.0,0.0,0.0,0.0,0.0,0.0,0.0,0.0,0.0,0.0,0.0,0.0,0.0,-0.0195,-0.0583,-0.0588,-0.0594,-0.0642,-0.165,-0.2162,-0.2305,-0.3722,-0.4344,-0.4376,-0.4029,0.0,0.0,0.0,0.0,0.0,0.0,0.0,0.0,0.0,-0.3746,-0.3849,-0.3746,-0.3871,-0.3986,-0.3865,-0.3819,-0.3854,-0.4005,-0.4542,-0.5084,-0.5396,-0.5944,0.0,0.0,-0.6984,-0.7253,-0.7373,-0.7434,0.0,0.0,0.0,0.0,0.0,0.0,0.0,0.0,0.0,0.0,0.0,0.0,0.0,0.0,0.0,0.0,0.0,0.0,0.0,0.0,0.0,0.0,-1.8589,-1.8746,-1.8831,-1.8831,-1.9,-1.9072,-1.9072,-1.9072,-1.9072,-1.9072,-1.9072,-1.9072,-1.9072,-1.9072,-1.9072,-1.9072,-1.9072,-1.8976,-1.8819,-1.865,-1.8589,-1.8577,-1.8481,-1.8336,-1.8216,0.0,0.0,0.0,0.0,0.0,0.0,0.0,0.0,0.0,0.0,0.0,0.0,0.0,0.0,0.0,0.0,0.0,0.0,0.0,0.0,0.0,0.0,0.0,0.0,0.0,0.0,0.0,0.0,0.0,0.0,0.0,0.0,-0.0167,-0.0566,-0.1669,-0.2388,-0.2858,-0.3914,-0.4398,-0.4476,-0.4121,-0.3938,0.0,0.0,0.0,0.0,0.0,0.0,0.0,0.0,-0.3719,-0.3781,-0.3724,-0.3838,-0.3979,-0.3879,-0.3898,-0.3985,-0.3985,-0.4546,-0.517,-0.5466,0.0,0.0,-0.6991,-0.7502,-0.7909,-0.795,-0.7957,0.0,0.0,0.0,0.0,0.0,0.0,0.0,0.0,0.0,0.0,0.0,0.0,0.0,0.0,0.0,0.0,0.0,0.0,0.0,0.0,0.0,0.0,0.0,-1.8469,-1.8565,-1.8565,-1.8746,-1.8831,-1.8831,-1.8831,-1.8915,-1.9072,-1.9072,-1.9024,-1.8951,-1.8951,-1.8903,-1.8831,-1.8831,-1.8722,-1.8541,-1.836,-1.83,-1.8287,-1.8191,-1.8034,-1.7925,0.0,0.0,0.0,0.0,0.0,0.0,0.0,0.0,0.0,0.0,0.0,0.0,0.0,0.0,0.0,0.0,0.0,0.0,0.0,0.0,0.0,0.0,0.0,0.0,0.0,0.0,0.0,0.0,0.0,0.0,0.0,0.0,-0.0565,-0.1598,-0.2079,-0.2881,-0.393,-0.4329,-0.4503,-0.4482,-0.4213,-0.4013,0.0,0.0,0.0,0.0,0.0,0.0,0.0,0.0,-0.3704,-0.3626,-0.383,-0.3854,-0.3813,-0.3868,-0.4142,-0.4397,-0.4397,-0.4749,-0.523,0.0,0.0,0.0,-0.7346,-0.7502,-0.774,-0.8231,0.0,0.0,0.0,0.0,0.0,0.0,0.0,0.0,0.0,0.0,0.0,0.0,0.0,0.0,0.0,0.0,0.0,0.0,0.0,0.0,0.0,0.0,0.0,-1.8275,-1.8287,-1.8287,-1.8287,-1.83,-1.83,-1.83,-1.83,-1.8565,-1.9072,-1.9072,-1.8927,-1.8686,-1.8686,-1.8541,-1.83,-1.8287,-1.8287,-1.8287,-1.8287,-1.8287,-1.8251,-1.7974,-1.7865,-1.7829,0.0,0.0,0.0,0.0,0.0,0.0,0.0,0.0,0.0,0.0,0.0,0.0,0.0,0.0,0.0,0.0,0.0,0.0,0.0,0.0,0.0,0.0,0.0,0.0,0.0,0.0,0.0,0.0,0.0,0.0,0.0,0.0,-0.0497,-0.1419,-0.2009,-0.2803,-0.3708,-0.4268,-0.4503,-0.4482,-0.4213,-0.4062,0.0,0.0,0.0,0.0,0.0,0.0,0.0,0.0,0.0,0.0,-0.3691,-0.3892,-0.4094,-0.3901,-0.4014,-0.4163,-0.4074,-0.472,0.0,0.0,0.0,0.0,0.0,-0.8201,0.0,0.0,0.0,0.0,0.0,0.0,0.0,0.0,0.0,0.0,0.0,0.0,0.0,0.0,0.0,0.0,0.0,0.0,0.0,0.0,0.0,0.0,0.0,0.0,-1.7636,-1.772,-1.7901,-1.7998,-1.7998,-1.8191,-1.83,-1.83,-1.83,-1.8372,-1.8529,-1.8529,-1.8481,-1.8408,-1.8408,-1.836,-1.8275,-1.8082,-1.7998,-1.7986,-1.7793,-1.772,-1.7708,-1.7624,-1.7599,-1.7587,0.0,0.0,0.0,0.0,0.0,0.0,0.0,0.0,0.0,0.0,0.0,0.0,0.0,0.0,0.0,0.0,0.0,0.0,0.0,0.0,0.0,0.0,0.0,0.0,0.0,0.0,0.0,0.0,0.0,0.0,0.0,-0.0422,-0.1137,-0.2096,-0.2846,-0.3605,-0.437,-0.4593,-0.4659,-0.4599,-0.4409,-0.43,-0.4235,0.0,0.0,0.0,0.0,0.0,0.0,0.0,0.0,0.0,-0.3632,-0.3784,-0.4021,-0.3985,-0.4187,-0.4463,-0.4604,0.0,0.0,0.0,0.0,0.0,0.0,0.0,0.0,0.0,0.0,0.0,0.0,0.0,0.0,0.0,0.0,0.0,0.0,0.0,0.0,0.0,0.0,0.0,0.0,0.0,0.0,0.0,0.0,0.0,0.0,-1.7479,-1.7479,-1.7479,-1.7636,-1.772,-1.772,-1.7889,-1.7974,-1.7974,-1.7974,-1.7974,-1.7974,-1.8191,-1.8227,-1.8118,-1.8022,-1.7974,-1.7962,-1.7793,-1.772,-1.7708,-1.7539,-1.7479,-1.7479,-1.7479,-1.7479,-1.7479,0.0,0.0,0.0,0.0,0.0,0.0,0.0,0.0,0.0,0.0,0.0,0.0,0.0,0.0,0.0,0.0,0.0,0.0,0.0,0.0,0.0,0.0,0.0,0.0,0.0,0.0,0.0,0.0,0.0,0.0,-0.0042,-0.0985,-0.2078,-0.3209,-0.3957,-0.4747,-0.5437,-0.5071,-0.4844,-0.472,-0.4684,-0.4564,-0.4443,-0.4306,0.0,0.0,0.0,0.0,0.0,0.0,0.0,0.0,-0.361,-0.3627,-0.3682,-0.4028,-0.4506,-0.4981,-0.5564,0.0,0.0,0.0,0.0,0.0,0.0,0.0,0.0,0.0,0.0,0.0,0.0,0.0,0.0,0.0,0.0,0.0,0.0,0.0,0.0,0.0,0.0,0.0,0.0,0.0,0.0,0.0,0.0,0.0,0.0,-1.7467,-1.7479,-1.7479,-1.7479,-1.7479,-1.7479,-1.7479,-1.7479,-1.7479,-1.7479,-1.7479,-1.7503,-1.7998,-1.8082,-1.7829,-1.7587,-1.7479,-1.7479,-1.7479,-1.7479,-1.7479,-1.7479,-1.7479,-1.7479,-1.7479,-1.7479,-1.7479,0.0,0.0,0.0,0.0,0.0,0.0,0.0,0.0,0.0,0.0,0.0,0.0,0.0,0.0,0.0,0.0,0.0,0.0,0.0,0.0,0.0,0.0,0.0,0.0,0.0,0.0,0.0,0.0,0.0,0.0,0.0,-0.0247,-0.1288,-0.2946,-0.2842,-0.3637,-0.5065,-0.4648,-0.4382,-0.4234,-0.424,-0.4159,-0.4013,-0.3992,-0.3903,0.0,0.0,0.0,0.0,0.0,0.0,0.0,-0.361,-0.3708,-0.3833,-0.376,-0.4178,-0.4712,0.0,-0.5708,0.0,0.0,0.0,0.0,0.0,0.0,0.0,0.0,0.0,0.0,0.0,0.0,0.0,0.0,0.0,0.0,0.0,0.0,0.0,0.0,0.0,0.0,0.0,0.0,0.0,0.0,0.0,0.0,-1.7177,-1.737,-1.7479,-1.7479,-1.7479,-1.7479,-1.7479,-1.7479,-1.7479,0.0,-1.7479,-1.7479,-1.7491,-1.7599,-1.7624,-1.7563,-1.7503,-1.7479,-1.7479,-1.7479,-1.7479,-1.7479,-1.7479,-1.7479,-1.7479,-1.7479,-1.7479,-1.7479,0.0,0.0,0.0,0.0,0.0,0.0,0.0,0.0,0.0,0.0,0.0,0.0,0.0,0.0,0.0,0.0,0.0,0.0,0.0,0.0,0.0,0.0,0.0,0.0,0.0,0.0,0.0,0.0,0.0,0.0,-0.0039,-0.104,-0.2093,-0.3086,-0.381,-0.4502,-0.5072,-0.4708,-0.4452,-0.4278,-0.423,-0.4197,-0.4181,-0.4035,-0.3909,-0.3798,-0.3654,0.0,0.0,0.0,0.0,0.0,0.0,0.0,-0.3767,-0.3873,-0.4184,-0.4649,0.0,0.0,0.0,0.0,0.0,0.0,0.0,0.0,0.0,0.0,0.0,0.0,0.0,0.0,0.0,0.0,0.0,0.0,0.0,0.0,0.0,0.0,0.0,0.0,0.0,0.0,0.0,0.0,0.0,-1.6911,-1.6911,-1.7032,-1.7165,-1.7286,-1.7298,-1.7358,-1.7479,-1.7479,-1.7479,-1.7479,-1.7479,-1.7479,-1.7479,-1.7479,-1.7479,-1.7479,-1.7479,-1.7479,-1.7479,-1.7479,-1.7479,-1.7479,-1.7479,-1.7479,-1.7479,-1.7479,-1.7479,-1.7479,0.0,0.0,0.0,0.0,0.0,0.0,0.0,0.0,0.0,0.0,0.0,0.0,0.0,0.0,0.0,0.0,0.0,0.0,0.0,0.0,0.0,0.0,0.0,0.0,0.0,0.0,0.0,0.0,0.0,0.0,-0.0041,-0.1996,-0.2986,-0.3213,-0.48,-0.5375,-0.5137,-0.4662,-0.4444,-0.4372,-0.4246,-0.4251,-0.4334,-0.4121,-0.392,-0.3742,-0.3649,-0.361,-0.361,-0.361,0.0,0.0,0.0,0.0,-0.3677,-0.4,-0.4221,-0.4605,0.0,0.0,0.0,0.0,0.0,0.0,0.0,0.0,0.0,0.0,0.0,0.0,0.0,0.0,0.0,0.0,0.0,0.0,0.0,0.0,0.0,0.0,0.0,0.0,0.0,0.0,0.0,0.0,0.0,-1.6634,-1.6634,-1.667,-1.6803,-1.702,-1.702,-1.7129,-1.7346,-1.7394,-1.7418,-1.7418,-1.7455,-1.7479,-1.7479,-1.7479,-1.7479,-1.7479,-1.7479,-1.7479,-1.7479,-1.7479,-1.7479,-1.7479,-1.7479,-1.7479,-1.7479,-1.7479,-1.7479,-1.7479,0.0,0.0,0.0,0.0,0.0,0.0,0.0,0.0,0.0,0.0,0.0,0.0,0.0,0.0,0.0,0.0,0.0,0.0,0.0,0.0,0.0,0.0,0.0,0.0,0.0,0.0,0.0,0.0,0.0,0.0,-0.0043,-0.1147,-0.2139,-0.3046,-0.3004,-0.3741,-0.4957,-0.3693,-0.3449,-0.3879,-0.3862,-0.3808,-0.3736,-0.3808,-0.3747,-0.3632,-0.3616,-0.361,-0.361,-0.361,-0.361,0.0,0.0,0.0,0.0,0.0,-0.3936,-0.4317,0.0,0.0,0.0,0.0,0.0,0.0,0.0,0.0,0.0,0.0,0.0,0.0,0.0,0.0,0.0,0.0,0.0,0.0,0.0,0.0,0.0,0.0,0.0,0.0,0.0,0.0,0.0,0.0,0.0,-1.6332,-1.6332,-1.6573,-1.6718,-1.6754,-1.6754,-1.6767,-1.6803,-1.7032,-1.7141,-1.7153,-1.737,-1.7479,-1.7479,-1.7479,-1.7479,-1.7479,-1.7479,-1.7479,-1.7479,-1.7479,-1.7479,-1.7479,-1.7479,-1.7479,-1.7479,-1.7479,-1.7479,-1.7479,0.0,0.0,0.0,0.0,0.0,0.0,0.0,0.0,0.0,0.0,0.0,0.0,0.0,0.0,0.0,0.0,0.0,0.0,0.0,0.0,0.0,0.0,0.0,0.0,0.0,0.0,0.0,0.0,0.0,0.0,0.0,-0.0978,-0.1693,-0.2236,-0.319,-0.3871,-0.4277,-0.3336,-0.3339,-0.3941,-0.3769,-0.3857,-0.4082,-0.3797,-0.3824,-0.3952,-0.368,-0.361,-0.361,-0.361,-0.361,0.0,0.0,0.0,0.0,0.0,0.0,0.0,0.0,0.0,0.0,0.0,0.0,0.0,0.0,0.0,0.0,0.0,0.0,0.0,0.0,0.0,0.0,0.0,0.0,0.0,0.0,0.0,0.0,0.0,0.0,0.0,0.0,0.0,0.0,0.0,0.0,-1.5406,-1.6066,-1.6175,-1.632,-1.6465,-1.6465,-1.6537,-1.6706,-1.6815,-1.6875,-1.6875,-1.6996,-1.7044,-1.7044,-1.7201,-1.7346,-1.7479,-1.7479,-1.7479,-1.7479,-1.7479,-1.7479,-1.7479,-1.7479,-1.7479,-1.7479,-1.7479,-1.7479,-1.7479,0.0,0.0,0.0,0.0,0.0,0.0,0.0,0.0,0.0,0.0,0.0,0.0,0.0,0.0,0.0,0.0,0.0,0.0,0.0,0.0,0.0,0.0,0.0,0.0,0.0,0.0,0.0,0.0,0.0,0.0,-0.0041,-0.0979,-0.1364,-0.1289,-0.2973,-0.3751,-0.3761,-0.3045,-0.3293,-0.4143,-0.3903,-0.4087,-0.4427,-0.4136,-0.4197,-0.4425,-0.3974,-0.3819,0.0,0.0,0.0,0.0,0.0,0.0,0.0,0.0,0.0,0.0,0.0,0.0,0.0,0.0,0.0,0.0,0.0,0.0,0.0,0.0,0.0,0.0,0.0,0.0,0.0,0.0,0.0,0.0,0.0,0.0,0.0,0.0,0.0,0.0,0.0,0.0,0.0,0.0,0.0,-1.4869,-1.5458,-1.5725,-1.5982,-1.6175,-1.6187,-1.6284,-1.6489,-1.6561,-1.6634,-1.6706,-1.6706,-1.6706,-1.6706,-1.6899,-1.7092,-1.7286,-1.7418,-1.7479,-1.7479,-1.7479,-1.7479,-1.7479,-1.7479,-1.7479,-1.7479,-1.7406,-1.7382,-1.737,0.0,0.0,0.0,0.0,0.0,0.0,0.0,0.0,0.0,0.0,0.0,0.0,0.0,0.0,0.0,0.0,0.0,0.0,0.0,0.0,0.0,0.0,0.0,0.0,0.0,0.0,0.0,0.0,0.0,0.0,-0.0043,-0.1104,-0.1048,-0.0103,-0.1099,-0.2437,-0.3834,-0.2558,-0.2917,-0.43,-0.4421,-0.441,-0.4365,-0.4898,-0.505,-0.4931,-0.4591,0.0,0.0,0.0,0.0,0.0,0.0,0.0,0.0,0.0,0.0,0.0,0.0,0.0,0.0,0.0,0.0,0.0,0.0,0.0,0.0,0.0,0.0,0.0,0.0,0.0,0.0,0.0,0.0,0.0,0.0,0.0,0.0,0.0,0.0,0.0,0.0,0.0,0.0,0.0,0.0,-1.5351,-1.4331,-1.5298,-1.5897,-1.591,-1.591,-1.5922,-1.5934,-1.6199,-1.6453,-1.6706,-1.6706,-1.6706,-1.6706,-1.6718,-1.673,-1.6767,-1.7274,-1.7479,-1.7479,-1.7479,-1.7479,-1.7479,-1.7479,-1.7479,-1.7455,-1.7201,-1.7117,-1.708,0.0,0.0,0.0,0.0,0.0,0.0,0.0,0.0,0.0,0.0,0.0,0.0,0.0,0.0,0.0,0.0,0.0,0.0,0.0,0.0,0.0,0.0,0.0,0.0,0.0,0.0,0.0,0.0,0.0,0.0,0.0,-0.0411,-0.0347,-0.0046,-0.1089,-0.2159,-0.3222,-0.24,-0.3147,0.0,-0.4701,-0.4844,-0.5168,-0.5116,-0.529,-0.5518,0.0,0.0,0.0,0.0,0.0,0.0,-0.3747,-0.3671,-0.361,-0.361,0.0,0.0,0.0,0.0,0.0,0.0,0.0,0.0,0.0,0.0,0.0,0.0,0.0,0.0,0.0,0.0,0.0,0.0,0.0,0.0,0.0,0.0,0.0,0.0,0.0,0.0,0.0,0.0,0.0,0.0,0.0,-1.4148,-1.5244,-1.5672,-1.5885,-1.5885,-1.5885,-1.5885,-1.5885,-1.5994,-1.6091,-1.6187,-1.6187,-1.6187,-1.6187,-1.6356,-1.6429,-1.6453,-1.6827,-1.6984,-1.6984,-1.6984,-1.6984,-1.6984,-1.6984,-1.6984,-1.6972,-1.6875,-1.6839,-1.6827,0.0,0.0,0.0,0.0,0.0,0.0,0.0,0.0,0.0,0.0,0.0,0.0,0.0,0.0,0.0,0.0,0.0,0.0,0.0,0.0,0.0,0.0,0.0,0.0,0.0,0.0,0.0,0.0,0.0,0.0,0.0,0.0,0.0,-0.0043,-0.0728,-0.1593,-0.2451,0.0,0.0,-0.4783,0.0,0.0,-0.5621,-0.5632,-0.5812,-0.6018,0.0,0.0,0.0,0.0,0.0,0.0,-0.3956,-0.3769,-0.361,-0.361,-0.361,0.0,-0.4081,0.0,0.0,0.0,0.0,0.0,0.0,0.0,0.0,0.0,0.0,0.0,0.0,0.0,0.0,0.0,0.0,0.0,0.0,0.0,0.0,0.0,0.0,0.0,0.0,0.0,0.0,0.0,0.0,0.0,-1.4562,-1.5382,-1.5801,-1.5885,-1.5885,-1.5885,-1.5885,-1.5885,-1.5885,-1.5885,-1.5885,-1.5885,-1.5897,-1.6066,-1.6151,-1.6163,-1.6344,-1.6537,-1.6706,-1.6706,-1.6706,-1.6706,-1.6706,-1.6706,-1.6682,-1.6598,-1.6561,-1.6549,0.0,0.0,0.0,0.0,0.0,0.0,0.0,0.0,0.0,0.0,0.0,0.0,0.0,0.0,0.0,0.0,0.0,0.0,0.0,0.0,0.0,0.0,0.0,0.0,0.0,0.0,0.0,0.0,0.0,0.0,0.0,0.0,0.0,0.0,0.0,-0.0577,-0.1606,0.0,-0.3051,-0.4017,0.0,-0.5626,-0.5637,0.0,0.0,0.0,-0.6187,-0.5947,0.0,-0.5033,0.0,0.0,0.0,-0.3876,-0.3616,-0.3616,-0.3616,0.0,0.0,0.0,0.0,0.0,0.0,0.0,0.0,0.0,0.0,0.0,0.0,0.0,0.0,0.0,0.0,0.0,0.0,0.0,0.0,0.0,0.0,0.0,0.0,0.0,0.0,0.0,0.0,0.0,-1.1535,-1.3029,-1.2236,-1.4264,-1.5555,-1.5873,-1.5873,-1.5885,-1.5885,-1.5885,-1.5885,-1.5885,-1.5885,-1.5885,-1.5885,-1.5885,-1.5885,-1.5885,-1.5885,-1.6187,-1.6682,-1.6682,-1.6682,-1.6682,-1.6682,-1.6682,-1.6646,-1.6368,-1.6272,-1.6235,0.0,0.0,0.0,0.0,0.0,0.0,0.0,0.0,0.0,0.0,0.0,0.0,0.0,0.0,0.0,0.0,0.0,0.0,0.0,0.0,0.0,0.0,0.0,0.0,0.0,0.0,0.0,0.0,0.0,0.0,0.0,0.0,0.0,0.0,0.0,-0.0157,-0.0529,-0.1808,0.0,-0.4627,-0.5223,-0.592,0.0,0.0,0.0,0.0,0.0,-0.6323,-0.6083,0.0,-0.5404,-0.4887,0.0,0.0,-0.372,-0.3638,-0.3671,-0.3715,-0.3632,0.0,0.0,0.0,0.0,0.0,0.0,0.0,0.0,0.0,0.0,0.0,0.0,0.0,0.0,0.0,0.0,0.0,0.0,0.0,0.0,0.0,0.0,0.0,0.0,0.0,0.0,0.0,-1.0603,-1.1408,-1.2044,-1.3339,-1.4545,-1.5596,-1.5608,-1.5692,-1.5885,-1.5885,-1.5885,-1.5885,-1.5885,-1.5885,-1.5885,-1.5885,-1.5885,-1.5885,-1.5885,-1.597,-1.6115,-1.6115,-1.6115,-1.6115,-1.6115,-1.6115,-1.6103,-1.603,-1.5994,-1.5982,0.0,0.0,0.0,0.0,0.0,0.0,0.0,0.0,0.0,0.0,0.0,0.0,0.0,0.0,0.0,0.0,0.0,0.0,0.0,0.0,0.0,0.0,0.0,0.0,0.0,0.0,0.0,0.0,0.0,0.0,0.0,0.0,0.0,0.0,0.0,0.0,-0.0075,-0.1296,0.0,0.0,-0.4831,0.0,0.0,-0.66,-0.6752,0.0,0.0,0.0,-0.6464,-0.629,-0.5801,0.0,0.0,0.0,0.0,-0.3811,-0.3849,-0.3988,-0.3838,-0.3816,0.0,0.0,0.0,0.0,0.0,0.0,0.0,0.0,0.0,0.0,0.0,0.0,0.0,0.0,0.0,0.0,0.0,0.0,0.0,0.0,0.0,0.0,0.0,0.0,0.0,-0.921,-0.9721,-1.051,-1.1763,-1.2884,-1.3872,-1.4648,-1.5124,-1.5463,-1.5728,-1.5728,-1.5777,-1.5885,-1.5885,-1.5885,-1.5885,-1.5885,-1.5885,-1.5885,-1.5885,-1.5885,-1.5885,-1.5885,-1.5885,-1.5885,-1.5885,-1.5885,-1.5885,-1.5885,-1.5885,-1.5885,0.0,0.0,0.0,0.0,0.0,0.0,0.0,0.0,0.0,0.0,0.0,0.0,0.0,0.0,0.0,0.0,0.0,0.0,0.0,0.0,0.0,0.0,0.0,0.0,0.0,0.0,0.0,0.0,0.0,0.0,0.0,0.0,0.0,0.0,0.0,0.0,-0.0034,-0.0711,0.0,-0.2827,-0.4077,-0.5301,0.0,0.0,-0.6802,-0.6872,-0.6953,-0.6915,-0.6785,-0.6473,-0.5996,0.0,0.0,0.0,0.0,0.0,-0.4186,-0.4349,-0.4213,-0.4078,-0.4094,0.0,0.0,0.0,-0.4569,-0.4512,0.0,0.0,0.0,0.0,0.0,0.0,0.0,0.0,0.0,0.0,0.0,0.0,0.0,0.0,0.0,0.0,0.0,-0.7596,-0.7696,-0.7988,-0.8874,-0.997,-1.1334,-1.2435,-1.318,-1.3456,-1.4394,-1.5083,-1.5451,-1.5451,-1.5584,-1.5849,-1.5849,-1.5861,-1.5885,-1.5885,-1.5885,-1.5885,-1.5885,-1.5885,-1.5885,-1.5885,-1.5885,-1.5885,-1.5885,-1.5885,-1.5885,-1.5885,-1.5885,-1.5885,0.0,0.0096,0.0,0.0,0.0,0.0,0.0,0.0,0.0,0.0,0.0,0.0,0.0,0.0,0.0,0.0,0.0,0.0,0.0,0.0,0.0,0.0,0.0,0.0,0.0,0.0,0.0,0.0,0.0,0.0,0.0,0.0,0.0,0.0,0.0,0.0,0.0,0.0,0.0,-0.176,-0.2592,0.0,-0.6728,-0.5623,-0.6051,-0.7209,-0.7046,-0.697,-0.6899,0.0,-0.6219,-0.586,0.0,0.0,0.0,0.0,0.0,-0.4828,-0.4646,-0.4605,-0.4574,-0.442,0.0,0.0,0.0,-0.4175,0.0,0.0,0.0,0.0,0.0,0.0,0.0,0.0,0.0,0.0,0.0,0.0,0.0,0.0,0.0,0.0,0.0,-0.7596,-0.7696,-0.7988,-0.8187,-0.879,-0.9954,-1.0235,-1.1219,-1.3097,-1.3396,-1.4032,-1.5185,-1.5185,-1.5318,-1.5572,-1.5572,-1.568,-1.5885,-1.5885,-1.5885,-1.5885,-1.5885,-1.5885,-1.5885,-1.5885,-1.5885,-1.5885,-1.5885,-1.5885,-1.5885,-1.5885,-1.5885,-1.5885,0.0197,0.0099,0.0,0.0,0.0,0.0,0.0,0.0,0.0,0.0,0.0,0.0,0.0,0.0,0.0,0.0,0.0,0.0,0.0,0.0,0.0,0.0,0.0,0.0,0.0,0.0,0.0,0.0,0.0,0.0,0.0,0.0,0.0,0.0,0.0,0.0,0.0,0.0,-0.0552,-0.1431,-0.1942,0.0,-0.5112,-0.5112,-0.5608,-0.6439,-0.6945,-0.7035,-0.6937,-0.6632,-0.641,0.0,0.0,-0.5632,-0.5665,0.0,-0.5094,-0.5178,-0.4915,-0.4833,-0.4779,-0.4757,0.0,0.0,0.0,0.0,0.0,0.0,0.0,0.0,0.0,0.0,0.0,0.0,0.0,0.0,0.0,0.0,0.0,0.0,0.0,0.0,0.0,-0.7502,-0.7696,-0.7988,-0.7988,-0.8237,-0.8775,-0.9312,-1.0134,-1.1321,-1.1865,-1.277,-1.4082,-1.4082,-1.4523,-1.5306,-1.5306,-1.5439,-1.5692,-1.5692,-1.5765,-1.5885,-1.5885,-1.5885,-1.5885,-1.5885,-1.5885,-1.5885,-1.5885,-1.5885,-1.5885,-1.5885,-1.5885,-1.5885,0.0168,0.0067,0.0,0.0,0.0,0.0,0.0,0.0,0.0,0.0,0.0,0.0,0.0,0.0,0.0,0.0,0.0,0.0,0.0,0.0,0.0,0.0,0.0,0.0,0.0,0.0,0.0,0.0,0.0,0.0,0.0,0.0,0.0,0.0,0.0,0.0,0.0,0.0,0.0,-0.1146,0.0,-0.2138,-0.3294,-0.4307,-0.4875,-0.5155,-0.6135,-0.6599,-0.6655,-0.637,0.0,-0.6387,-0.5934,-0.6067,0.0,0.0,0.0,0.0,0.0,0.0,0.0,0.0,0.0,-0.475,0.0,0.0,0.0,-0.4564,0.0,0.0,0.0,0.0,0.0,0.0,0.0,0.0,0.0,0.0,0.0,0.0,0.0,0.0,0.0,-0.7417,-0.7655,-0.7889,-0.7907,-0.7901,-0.7982,-0.8825,-0.941,-0.9608,-1.0435,-1.1491,-1.2709,-1.2908,-1.3585,-1.4713,-1.4927,-1.5173,-1.5427,-1.5475,-1.5608,-1.5813,-1.5861,-1.5885,-1.5885,-1.5885,-1.5885,-1.5885,-1.5885,-1.5885,-1.5885,-1.5885,-1.5885,-1.5885,0.0034,0.0,0.0,0.0,0.0,0.0,0.0,0.0,0.0,0.0,0.0,0.0,0.0,0.0,0.0,0.0,0.0,0.0,0.0,0.0,0.0,0.0,0.0,0.0,0.0,0.0,0.0,0.0,0.0,0.0,0.0,0.0,0.0,0.0,0.0,0.0,0.0,0.0,-0.0042,0.0,-0.0194,-0.1415,0.0,-0.2448,-0.2886,-0.3808,-0.3984,-0.4693,-0.555,0.0,-0.5869,-0.6698,0.0,-0.6377,-0.6502,0.0,0.0,0.0,0.0,0.0,0.0,0.0,-0.5464,0.0,0.0,0.0,-0.452,-0.4083,0.0,0.0,0.0,0.0,0.0,0.0,0.0,0.0,0.0,0.0,0.0,0.0,0.0,0.0,0.0,0.0,-0.7469,-0.7614,-0.7529,-0.7624,-0.7968,-0.8137,-0.8627,-0.9558,-0.9706,-1.0306,-1.1404,-1.2283,-1.2937,-1.3325,-1.4293,-1.4896,-1.5161,-1.539,-1.5511,-1.5559,-1.5789,-1.5885,-1.5885,-1.5885,-1.5885,-1.5885,-1.5885,-1.5885,-1.5885,-1.5885,-1.5885,-1.5885,0.0,0.0,0.0,0.0,0.0,0.0,0.0,0.0,0.0,0.0,0.0,0.0,0.0,0.0,0.0,0.0,0.0,0.0,0.0,0.0,0.0,0.0,0.0,0.0,0.0,0.0,0.0,0.0,0.0,0.0,0.0,0.0,0.0,0.0,0.0,0.0,0.0,0.0,0.0,0.0,0.0,0.0,0.0,-0.1688,-0.2574,-0.3625,-0.3715,-0.4005,-0.429,0.0,-0.4336,0.0,0.0,0.0,0.0,0.0,0.0,0.0,0.0,0.0,0.0,0.0,0.0,0.0,-0.4644,0.0,-0.4465,0.0,0.0,0.0,0.0,0.0,0.0,0.0,0.0,0.0,0.0,0.0,0.0,0.0,0.0,0.0,0.0,0.0,0.0,0.0,-0.7389,-0.7429,-0.784,-0.7941,-0.8187,-0.8676,-0.8676,-0.9164,-1.0239,-1.1317,-1.2196,-1.2877,-1.3975,-1.4618,-1.4883,-1.4992,-1.5125,-1.5282,-1.5547,-1.5656,-1.568,-1.5825,-1.5885,-1.5885,-1.5885,-1.5885,-1.5885,-1.5885,-1.5885,-1.5885,0.0,0.0,0.0,0.0,0.0,0.0,0.0,0.0,0.0,0.0,0.0,0.0,0.0,0.0,0.0,0.0,0.0,0.0,0.0,0.0,0.0,0.0,0.0,0.0,0.0,0.0,0.0,0.0,0.0,0.0,0.0,0.0,0.0,0.0,0.0,0.0,0.0,0.0,0.0,0.0,0.0,0.0,-0.0099,-0.0966,-0.1833,-0.2634,-0.2723,-0.2884,-0.3068,-0.2852,-0.3026,0.0,-0.3145,0.0,0.0,0.0,0.0,0.0,-0.601,0.0,0.0,0.0,0.0,0.0,0.0,0.0,0.0,0.0,0.0,0.0,0.0,0.0,0.0,0.0,0.0,0.0,0.0,0.0,0.0,0.0,0.0,0.0,0.0,0.0,0.0,0.0,0.0,-0.7098,-0.7787,-0.7882,-0.7907,-0.7988,-0.7988,-0.8528,-0.9608,-1.0386,-1.1268,-1.229,-1.3366,-1.3953,-1.4152,-1.453,-1.4823,-1.5016,-1.5282,-1.539,-1.5415,-1.568,-1.5777,-1.5789,-1.5861,-1.5885,-1.5885,-1.5885,-1.5885,-1.5885,0.0,0.0,0.0,0.0,0.0,0.0,0.0,0.0,0.0,0.0,0.0,0.0,0.0,0.0,0.0,0.0,0.0,0.0,0.0,0.0,0.0,0.0,0.0,0.0,0.0,0.0,0.0,0.0,0.0,0.0,0.0,0.0,0.0,0.0,0.0,0.0,0.0,0.0,0.0,0.0,0.0,0.0,0.0,0.0,-0.0054,-0.0112,-0.0112,0.0,0.0,-0.1701,-0.2453,0.0,0.0,0.0,0.0,0.0,0.0,0.0,0.0,0.0,0.0,-0.5583,0.0,0.0,0.0,0.0,-0.4715,0.0,0.0,0.0,0.0,0.0,-0.4416,-0.4153,-0.4219,0.0,0.0,0.0,0.0,0.0,0.0,0.0,0.0,0.0,0.0,0.0,0.0,0.0,-0.7753,-0.7685,-0.7746,-0.7982,-0.7988,-0.8528,-0.9608,-0.9657,-1.019,-1.1268,-1.229,-1.2786,-1.2797,-1.4091,-1.4714,-1.4739,-1.5004,-1.5125,-1.5137,-1.5403,-1.5511,-1.5535,-1.5789,-1.5885,-1.5885,-1.5885,-1.5885,-1.5885,0.0,0.0,0.0,0.0,0.0,0.0,0.0,0.0,0.0,0.0,0.0,0.0,0.0,0.0,0.0,0.0,0.0,0.0,0.0,0.0,0.0,0.0,0.0,0.0,0.0,0.0,0.0,0.0,0.0,0.0,0.0,0.0,0.0,0.0,0.0,0.0,0.0,0.0,0.0,0.0,0.0,0.0,0.0,0.0,0.0,0.0,0.0,-0.028,0.0,-0.0564,-0.0835,-0.1149,-0.1099,-0.1626,-0.2278,-0.2602,-0.3724,0.0,0.0,0.0,-0.6372,-0.585,0.0,0.0,0.0,0.0,0.0,0.0,0.0,0.0,0.0,0.0,-0.4454,-0.4262,-0.4202,-0.4094,0.0,0.0,0.0,0.0,0.0,0.0,0.0,0.0,0.0,0.0,-0.6068,0.0,0.0,-0.7563,-0.7787,-0.7882,-0.7934,-0.8187,-0.8528,-0.9953,-1.0828,-1.1219,-1.2242,-1.2678,-1.2737,-1.3165,-1.3393,-1.3415,-1.443,-1.4847,-1.4883,-1.5318,-1.5499,-1.5523,-1.5789,-1.5885,-1.5885,-1.5885,-1.5885,-1.5885,0.0,0.0,0.0,0.0,0.0,0.0,0.0,0.0,0.0,0.0,0.0,0.0,0.0,0.0,0.0,0.0,0.0,0.0,0.0,0.0,0.0,0.0,0.0,0.0,0.0,0.0,0.0,0.0,0.0,0.0,0.0,0.0,0.0,0.0,0.0,0.0,0.0,0.0,0.0,0.0,0.0,0.0,0.0,0.0,0.0,0.0,0.0,0.0,0.0,0.0,0.0,0.0,0.0,-0.0495,-0.1126,-0.1484,-0.2888,-0.4371,-0.4787,-0.5388,0.0,-0.5973,-0.5475,0.0,-0.4943,0.0,0.0,0.0,0.0,0.0,0.0,0.0,-0.4572,-0.4501,-0.4278,-0.4018,0.0,0.0,0.0,0.0,0.0,0.0,0.0,0.0,-0.4761,-0.5575,0.0,0.0,0.0,0.0,-0.7509,-0.7662,-0.7766,-0.7988,-0.828,-0.9361,-1.0092,-1.0485,-1.1609,-1.2193,-1.2193,-1.2533,-1.292,-1.3281,-1.3791,-1.4215,-1.4606,-1.5137,-1.5354,-1.539,-1.5753,-1.5885,-1.5885,-1.5885,-1.5885,-1.5885,0.0,0.0,0.0,0.0,0.0,0.0,0.0,0.0,0.0,0.0,0.0,0.0,0.0,0.0,0.0,0.0,0.0,0.0,0.0,0.0,0.0,0.0,0.0,0.0,0.0,0.0,0.0,0.0,0.0,0.0,0.0,0.0,0.0,0.0,0.0,0.0,0.0,0.0,0.0,0.0,0.0,0.0,0.0,0.0,0.0,0.0,0.0,0.0,0.0,0.0,0.0,0.0,0.0,0.0,-0.0219,-0.1202,-0.2371,-0.351,-0.4567,-0.4884,-0.5118,-0.5843,-0.5147,0.0,0.0,0.0,-0.5681,0.0,0.0,0.0,0.0,0.0,0.0,-0.479,-0.4391,-0.3996,0.0,0.0,0.0,0.0,0.0,0.0,0.0,0.0,-0.4251,-0.5101,-0.4926,0.0,0.0,0.0,-0.6976,-0.7395,-0.7513,-0.7988,-0.8761,-0.8031,-0.8187,-0.9213,-1.0485,-1.1121,-1.117,-1.2145,-1.3173,-1.4148,-1.3173,-1.3366,-1.434,-1.4883,-1.5113,-1.5161,-1.568,-1.5885,-1.5885,-1.5885,-1.5885,-1.5885,0.0,0.0,0.0,0.0,0.0,0.0,0.0,0.0,0.0,0.0,0.0,0.0,0.0,0.0,0.0,0.0,0.0,0.0,0.0,0.0,0.0,0.0,0.0,0.0,0.0,0.0,0.0,0.0,0.0,0.0,0.0,0.0,0.0,0.0,0.0,0.0,0.0,0.0,0.0,0.0,0.0,0.0,0.0,0.0,0.0,0.0,0.0,0.0,0.0,0.0,0.0,0.0,0.0,0.0,-0.0056,-0.0329,-0.1198,-0.2108,-0.2402,-0.3029,-0.3912,-0.5033,-0.4806,-0.4575,0.0,0.0,0.0,0.0,0.0,0.0,0.0,0.0,0.0,-0.4794,-0.4371,-0.4083,0.0,0.0,0.0,0.0,0.0,0.0,0.0,0.0,-0.424,-0.4645,-0.4752,0.0,0.0,0.0,0.0,-0.7145,-0.7459,-0.7696,-0.7889,-0.8273,-0.8612,-0.8909,-0.9247,-0.9838,-1.0583,-1.0877,-1.1658,-1.2931,-1.3389,-1.3871,-1.434,-1.4883,-1.5113,-1.5161,-1.568,-1.5885,-1.5885,-1.5885,-1.5885,-1.5885,0.0,0.0,0.0,0.0,0.0,0.0,0.0,0.0,0.0,0.0,0.0,0.0,0.0,0.0,0.0,0.0,0.0,0.0,0.0,0.0,0.0,0.0,0.0,0.0,0.0,0.0,0.0,0.0,0.0,0.0,0.0,0.0,0.0,0.0,0.0,0.0,0.0,0.0,0.0,0.0,0.0,0.0,0.0,0.0,0.0,0.0,0.0,0.0,0.0,0.0,0.0,0.0,0.0,0.0,0.0,0.0,-0.0829,-0.1708,-0.1692,-0.2121,-0.2984,-0.4682,-0.4457,-0.4228,-0.5869,-0.6203,-0.6111,0.0,-0.5996,-0.6051,0.0,0.0,0.0,0.0,0.0,0.0,0.0,0.0,0.0,0.0,0.0,0.0,0.0,0.0,0.0,0.0,0.0,0.0,0.0,0.0,0.0,-0.6721,-0.7026,-0.7186,-0.7092,-0.7627,-0.7925,-0.7925,-0.8513,-0.9099,-0.9698,-0.9698,-1.0632,-1.2242,-1.2349,-1.3039,-1.4148,-1.4564,-1.4903,-1.5161,-1.568,-1.5885,-1.5885,-1.5885,-1.5885,-1.5885,0.0,0.0,0.0,0.0,0.0,0.0,0.0,0.0,0.0,0.0,0.0,0.0,0.0,0.0,0.0,0.0,0.0,0.0,0.0,0.0,0.0,0.0,0.0,0.0,0.0,0.0,0.0,0.0,0.0,0.0,0.0,0.0,0.0,0.0,0.0,0.0,0.0,0.0,0.0,0.0,0.0,0.0,0.0,0.0,0.0,0.0,0.0,0.0,0.0,0.0,0.0,0.0,0.0,0.0,0.0,0.0,-0.0728,-0.1567,-0.1567,-0.1567,-0.2063,-0.4228,-0.3988,-0.3739,-0.5763,-0.6283,-0.629,-0.629,-0.6121,-0.6056,0.0,0.0,0.0,0.0,0.0,0.0,0.0,0.0,0.0,0.0,0.0,0.0,0.0,0.0,0.0,0.0,0.0,0.0,0.0,0.0,0.0,-0.6241,-0.656,-0.6611,-0.6437,0.0,-0.6742,-0.6742,-0.7918,-0.8555,-0.8711,-0.8711,-0.9788,-1.1707,-1.073,-1.1619,-1.3653,-1.3955,-1.4533,-1.5209,-1.5692,-1.5885,-1.5885,-1.5885,-1.5885,-1.5885,0.0,0.0,0.0,0.0,0.0,0.0,0.0,0.0,0.0,0.0,0.0,0.0,0.0,0.0,0.0,0.0,0.0,0.0,0.0,0.0,0.0,0.0,0.0,0.0,0.0,0.0,0.0,0.0,0.0,0.0,0.0,0.0,0.0,0.0,0.0,0.0,0.0,0.0,0.0,0.0,0.0,0.0,0.0,0.0,0.0,0.0,0.0,0.0,0.0,0.0,0.0,0.0,0.0,0.0,0.0,0.0,-0.0168,-0.0336,-0.0336,-0.0336,-0.0672,-0.2063,-0.2774,-0.3551,-0.495,-0.5843,-0.6404,-0.6404,-0.6322,-0.6301,-0.617,0.0,0.0,0.0,0.0,0.0,0.0,0.0,0.0,0.0,0.0,0.0,0.0,0.0,0.0,0.0,0.0,0.0,0.0,0.0,0.0,0.0,-0.6514,0.0,0.0,0.0,-0.6487,-0.6487,-0.6681,-0.7279,-0.8117,-0.8117,-0.8958,-1.0346,-1.0141,-1.0925,-1.237,-1.2787,-1.3959,-1.5463,-1.5765,-1.5885,-1.5885,-1.5885,-1.5885,-1.5885,0.0,0.0,0.0,0.0,0.0,0.0,0.0,0.0,0.0,0.0,0.0,0.0,0.0,0.0,0.0,0.0,0.0,0.0,0.0,0.0,0.0,0.0,0.0,0.0,0.0,0.0,0.0,0.0,0.0,0.0,0.0,0.0,0.0,0.0,0.0,0.0,0.0,0.0,0.0,0.0,0.0,0.0,0.0,0.0,0.0,0.0,0.0,0.0,0.0,0.0,0.0,0.0,0.0,0.0,0.0,0.0,0.0,0.0,0.0,0.0,-0.028,-0.1512,-0.2508,-0.3504,-0.4725,-0.5733,-0.6387,-0.6387,-0.5937,-0.552,-0.5313,-0.5431,0.0,0.0,0.0,0.0,0.0,0.0,0.0,0.0,0.0,0.0,0.0,0.0,0.0,0.0,0.0,0.0,0.0,0.0,0.0,0.0,0.0,0.0,0.0,0.0,0.0,-0.6387,-0.6387,-0.6686,-0.7179,-0.7179,-0.7826,-0.8958,-0.8958,-0.9698,-1.1002,-1.1601,-1.3037,-1.4866,-1.4805,-1.5125,-1.5684,-1.5844,-1.5885,-1.5885,0.0,0.0,0.0,0.0,0.0,0.0,0.0,0.0,0.0,0.0,0.0,0.0,0.0,0.0,0.0,0.0,0.0,0.0,0.0,0.0,0.0,0.0,0.0,0.0,0.0,0.0,0.0,0.0,0.0,0.0,0.0,0.0,0.0,0.0,0.0,0.0,0.0,0.0,0.0,0.0,0.0,0.0,0.0,0.0,0.0,0.0,0.0,0.0,0.0,0.0,0.0,0.0,0.0,0.0,0.0,0.0,0.0,0.0,0.0,0.0,-0.0224,-0.1176,-0.2126,-0.3133,-0.4037,-0.5008,-0.5732,-0.5732,-0.5031,-0.448,-0.4498,-0.5041,0.0,0.0,0.0,0.0,0.0,0.0,0.0,0.0,0.0,0.0,0.0,0.0,0.0,0.0,0.0,0.0,-0.4284,-0.4588,-0.5034,0.0,0.0,-0.6051,-0.6311,0.0,-0.6387,-0.6387,-0.6387,-0.6387,-0.6387,-0.6387,-0.688,-0.7677,-0.7677,-0.8414,-0.9731,-1.0595,-1.199,-1.3594,-1.3306,-1.3814,-1.4708,-1.5232,-1.5446,-1.5512,0.0,0.0,0.0,0.0,0.0,0.0,0.0,0.0,0.0,0.0,0.0,0.0,0.0,0.0,0.0,0.0,0.0,0.0,0.0,0.0,0.0,0.0,0.0,0.0,0.0,0.0,0.0,0.0,0.0,0.0,0.0,0.0,0.0,0.0,0.0,0.0,0.0,0.0,0.0,0.0,0.0,0.0,0.0,0.0,0.0,0.0,0.0,0.0,0.0,0.0,0.0,0.0,0.0,0.0,0.0,0.0,0.0,0.0,0.0,0.0,0.0,-0.0168,-0.0983,-0.1757,-0.1915,-0.2742,-0.3525,-0.3525,-0.3425,-0.3583,-0.4355,-0.4732,-0.5063,0.0,0.0,0.0,0.0,0.0,0.0,0.0,0.0,0.0,0.0,0.0,0.0,0.0,0.0,0.0,-0.4278,-0.4431,-0.4816,-0.5424,0.0,-0.5969,-0.6116,-0.6328,-0.6387,-0.6387,-0.6387,-0.6387,-0.6387,-0.6387,-0.6437,-0.6537,-0.6537,-0.7329,-0.8634,-1.0041,-1.0906,-1.1347,-1.1585,-1.1792,-1.2064,-1.3372,-1.3922,-1.4083,0.0,0.0,0.0,0.0,0.0,0.0,0.0,0.0,0.0,0.0,0.0,0.0,0.0,0.0,0.0,0.0,0.0,0.0,0.0,0.0,0.0,0.0,0.0,0.0,0.0,0.0,0.0,0.0,0.0,0.0,0.0,0.0,0.0,0.0,0.0,0.0,0.0,0.0,0.0,0.0,0.0,0.0,0.0,0.0,0.0,0.0,0.0,0.0,0.0,0.0,0.0,0.0,0.0,0.0,0.0,0.0,0.0,0.0,0.0,0.0,0.0,0.0,-0.0826,-0.1617,-0.1601,-0.2452,-0.3216,-0.3181,-0.3224,-0.3107,-0.2816,-0.3765,-0.4756,-0.5106,0.0,0.0,0.0,0.0,0.0,0.0,0.0,0.0,0.0,0.0,0.0,0.0,0.0,0.0,0.0,-0.4262,0.0,-0.5143,0.0,-0.5893,-0.6083,-0.6317,-0.6387,-0.6387,-0.6387,-0.6387,-0.6387,-0.6387,-0.6387,-0.6387,-0.6387,-0.708,-0.8144,-0.8298,-0.9302,-1.0741,-1.058,-1.1046,-1.1919,-1.2625,-1.2896,-1.3112,0.0,0.0,0.0,0.0,0.0,0.0,0.0,0.0,0.0,0.0,0.0,0.0,0.0,0.0,0.0,0.0,0.0,0.0,0.0,0.0,0.0,0.0,0.0,0.0,0.0,0.0,0.0,0.0,0.0,0.0,0.0,0.0,0.0,0.0,0.0,0.0,0.0,0.0,0.0,0.0,0.0,0.0,0.0,0.0,0.0,0.0,0.0,0.0,0.0,0.0,0.0,0.0,0.0,0.0,0.0,0.0,0.0,0.0,0.0,0.0,0.0,0.0,-0.0553,-0.1142,-0.1123,-0.1733,-0.2268,-0.2277,-0.2267,-0.2116,-0.1663,-0.271,-0.3888,-0.4593,0.0,0.0,0.0,0.0,0.0,0.0,0.0,-0.4569,0.0,0.0,0.0,0.0,0.0,0.0,0.0,0.0,0.0,0.0,0.0,0.0,-0.6083,-0.6317,-0.6387,-0.6387,-0.6387,-0.6387,-0.6387,-0.6387,-0.6387,-0.6387,-0.6387,-0.6853,-0.756,-0.7027,-0.7874,-0.9512,-0.9254,-0.9794,-1.0781,-1.1492,-1.1764,-1.1928,0.0,0.0,0.0,0.0,0.0,0.0,0.0,0.0,0.0,0.0,0.0,0.0,0.0,0.0,0.0,0.0,0.0,0.0,0.0,0.0,0.0,0.0,0.0,0.0,0.0,0.0,0.0,0.0,0.0,0.0,0.0,0.0,0.0,0.0,0.0,0.0,0.0,0.0,0.0,0.0,0.0,0.0,0.0,0.0,0.0,0.0,0.0,0.0,0.0,0.0,0.0,0.0,0.0,0.0,0.0,0.0,0.0,0.0,0.0,0.0,0.0,0.0,0.0,0.0,0.0,-0.0053,-0.0052,-0.0051,-0.005,-0.0353,-0.1412,-0.1613,-0.2288,-0.4212,0.0,0.0,0.0,0.0,0.0,0.0,-0.4799,-0.4503,-0.4503,0.0,0.0,0.0,0.0,0.0,0.0,0.0,0.0,-0.5385,-0.5714,0.0,-0.6083,-0.6317,-0.6387,-0.6387,-0.6387,-0.6387,-0.6387,-0.6387,-0.6387,-0.6387,-0.6387,-0.6507,-0.6627,-0.6752,-0.6872,-0.7105,-0.7503,-0.766,-0.7881,-0.9574,-1.0233,-1.0453,0.0,0.0,0.0,0.0,0.0,0.0,0.0,0.0,0.0,0.0,0.0,0.0,0.0,0.0,0.0,0.0,0.0,0.0,0.0,0.0,0.0,0.0,0.0,0.0,0.0,0.0,0.0,0.0,0.0,0.0,0.0,0.0,0.0,0.0,0.0,0.0,0.0,0.0,0.0,0.0,0.0,0.0,0.0,0.0,0.0,0.0,0.0,0.0,0.0,0.0,0.0,0.0,0.0,0.0,0.0,0.0,0.0,0.0,0.0,0.0,0.0,0.0,0.0,0.0,0.0,0.0,0.0,0.0,0.0,-0.0101,-0.0454,-0.111,-0.1808,-0.2429,-0.3626,0.0,0.0,0.0,0.0,0.0,0.0,-0.4719,0.0,-0.4577,0.0,0.0,0.0,0.0,0.0,0.0,0.0,0.0,-0.5714,0.0,-0.6083,-0.6317,-0.6387,-0.6387,-0.6387,-0.6387,-0.6387,-0.6387,-0.6387,-0.6387,-0.6387,-0.6457,-0.6627,-0.6752,-0.6978,-0.7317,-0.7503,-0.7715,-0.7992,-0.8761,-0.903,-0.9251,0.0,0.0,0.0,0.0,0.0,0.0,0.0,0.0,0.0,0.0,0.0,0.0,0.0,0.0,0.0,0.0,0.0,0.0,0.0,0.0,0.0,0.0,0.0,0.0,0.0,0.0,0.0,0.0,0.0,0.0,0.0,0.0,0.0,0.0,0.0,0.0,0.0,0.0,0.0,0.0,0.0,0.0,0.0,0.0,0.0,0.0,0.0,0.0,0.0,0.0,0.0,0.0,0.0,0.0,0.0,0.0,0.0,0.0,0.0,0.0,0.0,0.0,0.0,0.0,0.0,0.0,0.0,0.0,0.0,0.0,0.0,-0.0555,-0.111,-0.1512,-0.2584,-0.361,-0.4371,0.0,0.0,0.0,0.0,0.0,0.0,-0.4915,-0.4958,0.0,0.0,0.0,0.0,0.0,0.0,-0.5344,-0.5871,-0.6176,-0.6219,-0.6311,-0.6387,-0.6387,-0.6387,-0.6387,-0.6387,-0.6387,-0.6387,-0.6387,-0.6387,-0.6478,-0.6692,-0.6774,-0.7006,-0.7325,-0.752,-0.7715,-0.7881,-0.8208,-0.8318,-0.8484,0.0,0.0,0.0,0.0,0.0,0.0,0.0,0.0,0.0,0.0,0.0,0.0,0.0,0.0,0.0,0.0,0.0,0.0,0.0,0.0,0.0,0.0,0.0,0.0,0.0,0.0,0.0,0.0,0.0,0.0,0.0,0.0,0.0,0.0,0.0,0.0,0.0,0.0,0.0,0.0,0.0,0.0,0.0,0.0,0.0,0.0,0.0,0.0,0.0,0.0,0.0,0.0,0.0,0.0,0.0,0.0,0.0,0.0,0.0,0.0,0.0,0.0,0.0,0.0,0.0,0.0,0.0,0.0,0.0,0.0,0.0,0.0,-0.0303,-0.1312,-0.1416,-0.2092,-0.3992,0.0,0.0,0.0,0.0,0.0,-0.5078,-0.5268,-0.5435,0.0,0.0,0.0,0.0,0.0,-0.5339,-0.5899,-0.6154,-0.6328,-0.6387,-0.6387,-0.6387,-0.6387,-0.6387,-0.6387,-0.6387,-0.6387,-0.6387,-0.6387,-0.6387,-0.6578,-0.6801,-0.6801,-0.6942,-0.721,-0.7493,-0.7549,-0.7604,-0.7881,-0.7992,-0.8048,0.0,0.0,0.0,0.0,0.0,0.0,0.0,0.0,0.0,0.0,0.0,0.0,0.0,0.0,0.0,0.0,0.0,0.0,0.0,0.0,0.0,0.0,0.0,0.0,0.0,0.0,0.0,0.0,0.0,0.0,0.0,0.0,0.0,0.0,0.0,0.0,0.0,0.0,0.0,0.0,0.0,0.0,0.0,0.0,0.0,0.0,0.0,0.0,0.0,0.0,0.0,0.0,0.0,0.0,0.0,0.0,0.0,0.0,0.0,0.0,0.0,0.0,0.0,0.0,0.0,0.0,0.0,0.0,0.0,0.0,0.0,0.0,-0.0101,-0.0353,-0.0977,-0.157,-0.2044,-0.3249,0.0,0.0,-0.5061,-0.5448,-0.5513,-0.5572,-0.561,0.0,0.0,0.0,0.0,-0.5708,-0.5801,-0.6034,-0.6274,-0.636,-0.6387,-0.6387,-0.6387,-0.6387,-0.6387,-0.6387,-0.6387,-0.6387,-0.6387,-0.6387,-0.6387,-0.6578,-0.6801,-0.6801,-0.6942,-0.721,-0.7265,-0.7265,-0.7321,-0.7604,-0.7715,-0.7715,0.0,0.0,0.0,0.0,0.0,0.0,0.0,0.0,0.0,0.0,0.0,0.0,0.0,0.0,0.0,0.0,0.0,0.0,0.0,0.0,0.0,0.0,0.0,0.0,0.0,0.0,0.0,0.0,0.0,0.0,0.0,0.0,0.0,0.0,0.0,0.0,0.0,0.0,0.0,0.0,0.0,0.0,0.0,0.0,0.0,0.0,0.0,0.0,0.0,0.0,0.0,0.0,0.0,0.0,0.0,0.0,0.0,0.0,0.0,0.0,0.0,0.0,0.0,0.0,0.0,0.0,0.0,0.0,0.0,0.0,0.0,0.0,0.0,0.0,-0.0438,-0.0904,-0.1332,-0.266,0.0,-0.4314,-0.5199,-0.5822,-0.5888,-0.5942,-0.5926,-0.5806,-0.5847,0.0,-0.5975,-0.6083,-0.6154,-0.617,-0.6344,-0.6387,-0.6387,-0.6387,-0.6387,-0.6387,-0.6387,-0.6387,-0.6387,-0.6387,-0.6387,-0.6387,-0.6446,-0.6627,-0.6806,-0.6861,-0.6991,-0.721,-0.721,-0.721,-0.721,-0.7382,-0.7438,-0.7438,0.0219,0.0073,0.0,0.0073,0.0073,0.0,0.0,0.0,0.0,0.0,0.0,0.0,0.0,0.0,0.0,0.0,0.0,0.0,0.0,0.0,0.0,0.0,0.0,0.0,0.0,0.0,0.0,0.0,0.0,0.0,0.0,0.0,0.0,0.0,0.0,0.0,0.0,0.0,0.0,0.0,0.0,0.0,0.0,0.0,0.0,0.0,0.0,0.0,0.0,0.0,0.0,0.0,0.0,0.0,0.0,0.0,0.0,0.0,0.0,0.0,0.0,0.0,0.0,0.0,0.0,0.0,0.0,0.0,0.0,0.0,0.0,0.0,0.0,0.0,0.0,-0.0287,-0.1091,0.0,-0.3077,-0.3934,-0.5147,-0.5879,-0.5899,-0.6123,-0.6279,-0.6143,-0.6306,-0.6377,-0.6295,-0.6382,-0.6393,-0.6295,-0.6388,-0.6387,-0.6387,-0.6387,-0.6387,-0.6387,-0.6387,-0.6387,-0.6387,-0.6387,-0.6387,-0.6392,-0.6567,-0.6687,-0.6812,-0.6937,-0.7106,-0.721,-0.721,-0.721,-0.721,-0.721,-0.721,-0.721,0.0949,0.0438,0.0073,0.0438,0.0219,0.0,0.0,0.0,0.0,0.0,0.0,0.0,0.0,0.0,0.0,0.0,0.0,0.0,0.0,0.0,0.0,0.0,0.0,0.0,0.0,0.0,0.0,0.0,0.0,0.0,0.0,0.0,0.0,0.0,0.0,0.0,0.0,0.0,0.0,0.0,0.0,0.0,0.0,0.0,0.0,0.0,0.0,0.0,0.0,0.0,0.0,0.0,0.0,0.0,0.0,0.0,0.0,0.0,0.0,0.0,0.0,0.0,0.0,0.0,0.0,0.0,0.0,0.0,0.0,0.0,0.0,0.0,0.0,0.0,0.0,-0.0048,-0.0187,0.0,-0.1754,-0.1997,-0.3761,-0.4952,-0.4984,-0.5772,-0.6301,-0.6327,-0.6328,-0.6328,-0.6404,-0.6376,-0.6376,-0.636,-0.6376,-0.6387,-0.6387,-0.6387,-0.6387,-0.6387,-0.6387,-0.6387,-0.6387,-0.6387,-0.6387,-0.6392,-0.6567,-0.6687,-0.6812,-0.6937,-0.7106,-0.721,-0.721,-0.721,-0.721,-0.721,-0.721,-0.721,0.1241,0.0803,0.0438,0.0584,0.0511,0.0438,0.0365,0.0292,0.0292,0.0292,0.0146,0.0,0.0,0.0,0.0,0.0,0.0,0.0,0.0,0.0,0.0,0.0,0.0,0.0,0.0,0.0,0.0,0.0,0.0,0.0,0.0,0.0,0.0,0.0,0.0,0.0,0.0,0.0,0.0,0.0,0.0,0.0,0.0,0.0,0.0,0.0,0.0,0.0,0.0,0.0,0.0,0.0,0.0,0.0,0.0,0.0,0.0,0.0,0.0,0.0,0.0,0.0,0.0,0.0,0.0,0.0,0.0,0.0,0.0,0.0,0.0,0.0,0.0,0.0,0.0,0.0,0.0,-0.0866,-0.1553,-0.1569,-0.2966,-0.4139,-0.473,-0.5196,-0.5738,-0.6331,-0.6388,-0.6382,-0.6381,-0.6387,-0.6387,-0.6387,-0.6387,-0.6387,-0.6387,-0.6387,-0.6387,-0.6387,-0.6387,-0.6387,-0.6387,-0.6457,-0.6484,-0.6495,-0.6736,-0.685,-0.691,-0.7029,-0.7161,-0.721,-0.721,-0.721,-0.721,-0.721,-0.721,-0.721,0.1532,0.1168,0.0876,0.0875,0.0876,0.0876,0.073,0.073,0.073,0.0584,0.0365,0.0073,0.0,0.0,0.0,0.0,0.0,0.0,0.0,0.0,0.0,0.0,0.0,0.0,0.0,0.0,0.0,0.0,0.0,0.0,0.0,0.0,0.0,0.0,0.0,0.0,0.0,0.0,0.0,0.0,0.0,0.0,0.0,0.0,0.0,0.0,0.0,0.0,0.0,0.0,0.0,0.0,0.0,0.0,0.0,0.0,0.0,0.0,0.0,0.0,0.0,0.0,0.0,0.0,0.0,0.0,0.0,0.0,0.0,0.0,0.0,0.0,0.0,0.0,0.0,0.0,0.0,-0.0687,-0.1239,-0.1252,-0.2161,-0.3173,-0.3977,-0.4483,-0.5135,-0.5987,-0.6237,-0.6387,-0.6387,-0.6387,-0.6387,-0.6387,-0.6387,-0.6387,-0.6387,-0.6387,-0.6387,-0.6387,-0.6387,-0.6403,-0.643,-0.6578,-0.6632,-0.6676,-0.6893,-0.6986,-0.6991,-0.7161,-0.721,-0.721,-0.721,-0.721,-0.721,-0.721,-0.721,-0.721,0.2187,0.1678,0.1313,0.1677,0.1386,0.1168,0.1168,0.1168,0.1022,0.0657,0.0584,0.0438,0.0073,0.0,0.0,0.0,0.0,0.0,0.0,0.0,0.0,0.0,0.0,0.0,0.0,0.0,0.0,0.0,0.0,0.0,0.0,0.0,0.0,0.0,0.0,0.0,0.0,0.0,0.0,0.0,0.0,0.0,0.0,0.0,0.0,0.0,0.0,0.0,0.0,0.0,0.0,0.0,0.0,0.0,0.0,0.0,0.0,0.0,0.0,0.0,0.0,0.0,0.0,0.0,0.0,0.0,0.0,0.0,0.0,0.0,0.0,0.0,0.0,0.0,0.0,0.0,0.0,-0.0049,-0.01,-0.0099,-0.1048,-0.1764,-0.1814,-0.3626,-0.4834,-0.4935,-0.5837,-0.6387,-0.6387,-0.6387,-0.6387,-0.6387,-0.6387,-0.6387,-0.6387,-0.6387,-0.6387,-0.6387,-0.6387,-0.6446,-0.6605,-0.6616,-0.6681,-0.6796,-0.6926,-0.6986,-0.6991,-0.7161,-0.721,-0.721,-0.721,-0.721,-0.721,-0.721,-0.721,-0.721,0.226,0.2041,0.1896,0.1822,0.1822,0.1824,0.1605,0.1605,0.1532,0.1385,0.1094,0.0949,0.073,0.073,0.0657,0.0365,0.0365,0.0292,0.0,0.0,0.0,0.0,0.0,0.0,0.0,0.0,0.0,0.0,0.0,0.0,0.0,0.0,0.0,0.0,0.0,0.0,0.0,0.0,0.0,0.0,0.0,0.0,0.0,0.0,0.0,0.0,0.0,0.0,0.0,0.0,0.0,0.0,0.0,0.0,0.0,0.0,0.0,0.0,0.0,0.0,0.0,0.0,0.0,0.0,0.0,0.0,0.0,0.0,0.0,0.0,0.0,0.0,0.0,0.0,0.0,0.0,0.0,0.0,0.0,0.0,-0.0352,-0.0858,-0.1512,-0.2318,-0.3073,-0.3776,-0.4178,-0.473,-0.5386,-0.6037,-0.6387,-0.6387,-0.6387,-0.6387,-0.6387,-0.6387,-0.6387,-0.6387,-0.6462,-0.6573,-0.6627,-0.6779,-0.6872,-0.6921,-0.704,-0.7144,-0.715,-0.7193,-0.721,-0.721,-0.721,-0.721,-0.721,-0.721,-0.721,-0.721,0.3059,0.3059,0.2986,0.2768,0.2477,0.2187,0.1968,0.1968,0.1895,0.1822,0.1532,0.1313,0.1241,0.1168,0.1095,0.0803,0.0803,0.0657,0.0365,0.0292,0.0145,0.0,0.0,0.0,0.0,0.0,0.0,0.0,0.0,0.0,0.0,0.0,0.0,0.0,0.0,0.0,0.0,0.0,0.0,0.0,0.0,0.0,0.0,0.0,0.0,0.0,0.0,0.0,0.0,0.0,0.0,0.0,0.0,0.0,0.0,0.0,0.0,0.0,0.0,0.0,0.0,0.0,0.0,0.0,0.0,0.0,0.0,0.0,0.0,0.0,0.0,0.0,0.0,0.0,0.0,0.0,0.0,0.0,0.0,0.0,0.0,-0.0305,-0.101,-0.1412,-0.1915,-0.262,-0.3022,-0.3525,-0.4279,-0.4981,-0.5532,-0.5887,-0.5887,-0.6037,-0.6387,-0.6387,-0.6403,-0.6446,-0.6578,-0.666,-0.6741,-0.691,-0.7008,-0.7046,-0.7177,-0.721,-0.721,-0.721,-0.721,-0.721,-0.721,-0.721,-0.721,-0.721,-0.721,-0.721,0.4729,0.4729,0.4729,0.4729,0.3423,0.2333,0.2333,0.2333,0.2187,0.1822,0.1822,0.1677,0.1241,0.1241,0.1241,0.1241,0.1241,0.1168,0.1168,0.0803,0.0435,0.0,0.0,0.0,0.0,0.0,0.0,0.0,0.0,0.0,0.0,0.0,0.0,0.0,0.0,0.0,0.0,0.0,0.0,0.0,0.0,0.0,0.0,0.0,0.0,0.0,0.0,0.0,0.0,0.0,0.0,0.0,0.0,0.0,0.0,0.0,0.0,0.0,0.0,0.0,0.0,0.0,0.0,0.0,0.0,0.0,0.0,0.0,0.0,0.0,0.0,0.0,0.0,0.0,0.0,0.0,0.0,0.0,0.0,0.0,0.0,0.0,0.0,-0.0959,-0.1564,-0.1564,-0.2572,-0.3173,-0.3173,-0.3176,-0.3679,-0.4734,-0.4784,-0.5286,-0.6387,-0.6387,-0.6446,-0.6622,-0.6622,-0.6752,-0.6986,-0.6986,-0.7046,-0.721,-0.721,-0.721,-0.721,-0.721,-0.721,-0.721,-0.721,-0.721,-0.721,-0.721,-0.721,-0.721,0.6319,0.6319,0.6319,0.6319,0.5884,0.5235,0.4148,0.4005,0.3569,0.2333,0.2187,0.2114,0.1969,0.1969,0.1896,0.1677,0.1604,0.1532,0.1241,0.1095,0.0947,0.0871,0.029,0.0,0.0,0.0,0.0,0.0,0.0,0.0,0.0,0.0,0.0,0.0,0.0,0.0,0.0,0.0,0.0,0.0,0.0,0.0,0.0,0.0,0.0,0.0,0.0,0.0,0.0,0.0,0.0,0.0,0.0,0.0,0.0,0.0,0.0,0.0,0.0,0.0,0.0,0.0,0.0,0.0,0.0,0.0,0.0,0.0,0.0,0.0,0.0,0.0,0.0,0.0,0.0,0.0,0.0,0.0,0.0,0.0,0.0,0.0,0.0,-0.0315,-0.0472,-0.0472,-0.1467,-0.2096,-0.2096,-0.2774,-0.3346,-0.3659,-0.3669,-0.4233,-0.5383,-0.6144,-0.6584,-0.6622,-0.6796,-0.6915,-0.6986,-0.7122,-0.7177,-0.721,-0.721,-0.721,-0.721,-0.721,-0.721,-0.721,-0.721,-0.721,-0.721,-0.721,-0.721,-0.721,0.791,0.791,0.791,0.791,0.7404,0.668,0.5742,0.5597,0.5235,0.4291,0.3639,0.3278,0.3278,0.2697,0.2187,0.2041,0.1968,0.1895,0.1678,0.1532,0.1459,0.1459,0.0803,0.0435,0.0215,0.0215,0.0142,0.0,0.0138,0.0137,0.0,0.0,0.0,0.0,0.0,0.0,0.0,0.0,0.0,0.0,0.0,0.0,0.0,0.0,0.0067,0.0202,0.0067,0.0067,0.0202,0.0067,0.0,0.0,0.0,0.0,0.0,0.0,0.0,0.0,0.0,0.0,0.0,0.0,0.0,0.0,0.0,0.0,0.0,0.0,0.0,0.0,0.0,0.0,0.0,0.0,0.0,0.0,0.0,0.0,0.0,0.0,0.0,0.0,0.0,0.0,0.0,0.0,-0.0586,-0.0959,-0.0959,-0.1596,-0.2126,-0.2551,-0.2579,-0.3103,-0.4298,-0.4974,-0.5807,-0.6763,-0.6915,-0.7008,-0.7111,-0.7177,-0.721,-0.721,-0.721,-0.721,-0.721,-0.721,-0.721,-0.721,-0.721,-0.721,-0.721,-0.721,-0.721,-0.721,0.9507,0.9507,0.9507,0.9507,0.8348,0.7331,0.7259,0.7187,0.7187,0.7042,0.5742,0.4875,0.4729,0.3423,0.2478,0.2333,0.2333,0.2333,0.2333,0.2041,0.1822,0.1822,0.1459,0.1088,0.0717,0.0645,0.0498,0.0141,0.0486,0.0483,0.0138,0.0068,0.0067,0.0067,0.0,0.0,0.0,0.0,0.0,0.0,0.0,0.0,0.0,0.0,0.0202,0.0471,0.0202,0.0269,0.0471,0.0135,0.0067,0.0067,0.0,0.0,0.0,0.0067,0.0,0.0,0.0066,0.0,0.0,0.0,0.0,0.0,0.0,0.0,0.0,0.0,0.0,0.0,0.0,0.0,0.0,0.0,0.0,0.0,0.0,0.0,0.0,0.0,0.0,0.0,0.0,0.0,0.0,0.0,0.0,0.0,0.0,0.0,-0.0428,-0.1445,-0.1442,-0.1975,-0.3041,-0.3193,-0.447,-0.6823,-0.6834,-0.6996,-0.721,-0.721,-0.721,-0.721,-0.721,-0.721,-0.721,-0.721,-0.721,-0.721,-0.721,-0.721,-0.721,-0.721,-0.721,-0.721,1.1109,1.1109,1.1109,1.1109,1.0815,1.0233,0.8997,0.8781,0.8348,0.7187,0.668,0.6032,0.4802,0.4366,0.3641,0.2405,0.2333,0.2333,0.2333,0.226,0.2187,0.2187,0.1822,0.1602,0.1525,0.1235,0.1011,0.0926,0.0995,0.1058,0.0908,0.062,0.0479,0.0479,0.0135,0.0,0.0,0.0,0.0,0.0,0.0,0.0,0.0,0.0269,0.0404,0.0539,0.0808,0.0875,0.0943,0.0539,0.0404,0.0337,0.0067,0.0,0.0067,0.0337,0.0202,0.0067,0.0335,0.0199,0.0,0.0,0.0,0.0,0.0,0.0,0.0,0.0,0.0,0.0,0.0,0.0,0.0,0.0,0.0,0.0,0.0,0.0,0.0,0.0,0.0,0.0,0.0,0.0,0.0,0.0,0.0,0.0,0.0,0.0,-0.0111,-0.0333,-0.0329,-0.093,-0.2103,-0.2138,-0.3325,-0.5619,-0.5694,-0.6241,-0.721,-0.721,-0.721,-0.721,-0.721,-0.721,-0.721,-0.721,-0.721,-0.721,-0.721,-0.721,-0.721,-0.721,-0.721,-0.721,1.1619,1.1619,1.1619,1.1619,1.1619,1.1325,1.0527,1.0377,1.0089,0.9291,0.8564,0.7765,0.6974,0.5597,0.4075,0.2405,0.2333,0.2333,0.2333,0.2333,0.2333,0.2333,0.2114,0.2041,0.2041,0.1822,0.1526,0.1228,0.1364,0.1355,0.1204,0.0978,0.0899,0.0824,0.0614,0.0407,0.0269,0.0269,0.0135,0.0,0.0,0.0067,0.0269,0.0404,0.0741,0.101,0.1077,0.1077,0.1077,0.0875,0.0808,0.0741,0.0606,0.0539,0.0539,0.0741,0.0673,0.0539,0.0741,0.0536,0.0266,0.0462,0.0261,0.0,0.0,0.0,0.0,0.0,0.0,0.0,0.0,0.0,0.0,0.0,0.0,0.0,0.0,0.0,0.0,0.0,0.0,0.0,0.0,0.0,0.0,0.0,0.0,0.0,0.0,0.0,0.0,0.0,0.0,-0.0278,-0.0953,-0.0944,-0.1823,-0.3589,-0.4234,-0.5202,-0.632,-0.632,-0.6654,-0.721,-0.721,-0.721,-0.721,-0.721,-0.721,-0.721,-0.721,-0.721,-0.721,-0.721,-0.721,-0.721,1.1619,1.1619,1.1619,1.1619,1.1619,1.1619,1.1619,1.1619,1.1619,1.1619,1.0455,0.9579,0.9363,0.6757,0.4439,0.2841,0.2697,0.2624,0.2333,0.2333,0.2333,0.2333,0.2333,0.2333,0.2333,0.2333,0.1969,0.1386,0.1732,0.1723,0.1364,0.1345,0.1259,0.1246,0.1102,0.0888,0.0608,0.0606,0.0404,0.0067,0.0067,0.0269,0.0539,0.0606,0.101,0.1548,0.1346,0.1279,0.1279,0.1212,0.1212,0.1144,0.1144,0.1077,0.1144,0.1144,0.1144,0.1144,0.1144,0.0875,0.0671,0.0995,0.066,0.0196,0.0128,0.0063,0.0,0.0,0.0,0.0,0.0,0.0,0.0,0.0,0.0,0.0,0.0,0.0,0.0,0.0,0.0,0.0,0.0,0.0,0.0,0.0,0.0,0.0,0.0,0.0,0.0,0.0,0.0,0.0,0.0,0.0,-0.0504,-0.1512,-0.2519,-0.3748,-0.5091,-0.5091,-0.5759,-0.6877,-0.6877,-0.6988,-0.721,-0.721,-0.721,-0.721,-0.721,-0.721,-0.721,-0.721,-0.721,-0.721,1.1619,1.1619,1.1619,1.1619,1.1619,1.1619,1.1619,1.1619,1.1619,1.1619,1.1404,1.0743,0.9435,0.7765,0.6029,0.4511,0.4366,0.3787,0.2405,0.2333,0.2333,0.2333,0.2333,0.2333,0.2333,0.2333,0.226,0.2187,0.2183,0.2182,0.218,0.1867,0.1712,0.1707,0.125,0.1098,0.1027,0.1015,0.0808,0.0404,0.0404,0.0471,0.0539,0.0875,0.1279,0.1616,0.1952,0.2019,0.2019,0.1683,0.1548,0.1481,0.1212,0.1077,0.1144,0.1414,0.1346,0.1144,0.1481,0.1279,0.1009,0.1074,0.0998,0.0856,0.0525,0.0193,0.0,0.0,0.0,0.0,0.0,0.0,0.0,0.0,0.0,0.0,0.0,0.0,0.0,0.0,0.0,0.0,0.0,0.0,0.0,0.0,0.0,0.0,0.0,0.0,0.0,0.0,0.0,0.0,0.0,0.0,-0.0056,-0.0224,-0.0392,-0.1679,-0.386,-0.386,-0.4474,-0.5648,-0.5648,-0.6265,-0.721,-0.721,-0.721,-0.721,-0.721,-0.721,-0.721,-0.721,-0.721,-0.721,1.1619,1.1619,1.1619,1.1619,1.1619,1.1619,1.1619,1.1619,1.1619,1.1619,1.1619,1.1325,1.0671,0.9219,0.7693,0.6105,0.5165,0.4729,0.4944,0.3278,0.2697,0.3569,0.277,0.2333,0.2333,0.2333,0.2333,0.2333,0.2333,0.2333,0.2333,0.2175,0.2089,0.2074,0.1839,0.1681,0.1458,0.1439,0.1226,0.0817,0.081,0.0943,0.1144,0.1279,0.1616,0.1952,0.2154,0.2223,0.2154,0.2019,0.1952,0.1885,0.175,0.1683,0.175,0.1885,0.1818,0.175,0.1885,0.1683,0.1414,0.1683,0.1407,0.1131,0.1122,0.0849,0.0514,0.0063,0.0,0.0,0.0,0.0,0.0,0.0,0.0,0.0,0.0,0.0,0.0,0.0,0.0,0.0,0.0,0.0,0.0,0.0,0.0,0.0,0.0,0.0,0.0,0.0,0.0,0.0,0.0,0.0,0.0,0.0,0.0,-0.0896,-0.2574,-0.2574,-0.3245,-0.4421,-0.4421,-0.5091,-0.6204,-0.6204,-0.6599,-0.721,-0.721,-0.721,-0.721,-0.721,-0.721,-0.721]}]]